     2              OBSERVATION DATA    GPS                 RINEX VERSION / TYPE
teqc 1997Sep28 Duncan Agnew 19980804 18:57:35UTC            PGM / RUN BY / DATE
                                                            COMMENT
Original Marker Name: VLBI                                  COMMENT
Campaign Name: Ties at PFO and Monument Peak 93             COMMENT
4-Character Station Name: PINY                              COMMENT
6-Character Antenna Code: TRMSST                            COMMENT
Vertical Measurement Point: BGP                             COMMENT
Vertical Offset to Rinex Ref. Point: 0.0597                 COMMENT
Radial Measurement Point: NGP                               COMMENT
Radial Offset to Rinex Ref. Point: 0.2334                   COMMENT
Antenna Height from Field Measurement: 1.0560 m             COMMENT
Original XYZ: -2369633.2372 -4761323.2304 3511113.6627      COMMENT
New XYZ position is based on association with SCEC monument COMMENT
E1D0K5S1+0011. Position of that monument is believed to be  COMMENT
valid to within 1 m horizontally; vertical accuracy         COMMENT
should be no worse than 3-times this value.                 COMMENT
                                                            COMMENT
Revised Rinex header created by UCSD GPS archive for        COMMENT
GSAC on 12-Apr-1999 (1999:102) 10:31:29 GMT                 COMMENT
For assistance contact dagnew@ucsd.edu or hjohnson@ucsd.edu COMMENT
                                                            COMMENT
PINYON FLAT NCMN 1981                                       MARKER NAME
Happer SCRIPPS INSTITUTION OF OCEANOGRAPHY                  OBSERVER / AGENCY
494 TRIMBLE 4000 SST NP 4.64 / SP 4.20                      REC # / TYPE / VERS
37 TR 4000SST L1/L2 GEO                                     ANT # / TYPE
 -2369636.0000 -4761325.0000  3511116.0000                  APPROX POSITION XYZ
        0.9702        0.0000        0.0000                  ANTENNA: DELTA H/E/N
     1     1     0                                          WAVELENGTH FACT L1/2
     3    C1    L1    L2                                    # / TYPES OF OBSERV
     0                                                      INTERVAL
  1993     6    11    17    20   30.000000                  TIME OF FIRST OBS
  1993     6    11    23    30   60.000000                  TIME OF LAST OBS
     0                                                      # OF SATELLITES
                                                            END OF HEADER
 93  6 11 17 20 30.0000000  0  5G27G 2G15G26G19
  20499868.8444         -0.55857
  21227803.1564         -0.84657
  24278867.0784         -0.02255
  23935712.8754         -0.17755
  22421674.7114         -0.79156
 93  6 11 17 21  0.0000000  0  5G27G 2G15G26G19
  20500254.5004       2028.61247        -0.03773
  21222951.1954     -25506.65947        -0.32573
  24269610.3054     -48653.67345        -0.20971
  23919735.859      -83966.097 5        -0.44431
  22431387.891       51028.947 6        -0.37331
 93  6 11 17 21 30.0000000  0  5G27G 2G15G26G19
  20500708.3594       4406.51747      1852.87463
  21218127.3444     -50849.94747    -19748.33463
  24260424.930      -96936.936 5    -37623.51121
  23903821.141     -167611.120 5    -65178.33121
  22441137.523      102269.543 6     39927.32921
 93  6 11 17 22  0.0000000  0  5G27G 2G15G26G19
  20501226.7664       7136.26247      3979.94063
  21213336.4304     -76034.55247    -39372.68963
  24251306.2504    -144840.85745    -74951.24761
  23887966.633     -250929.232 5   -130101.51221
  22450929.578      153729.265 6     80025.78321
 93  6 11 17 22 30.0000000  0  5G27G 2G15G26G19
  20501809.8364      10200.25847      6367.45863
  21208567.3674    -101094.29347    -58899.75163
  24242257.625     -192377.770 5   -111992.96821
  23872166.9614    -333937.33845   -194783.11361
  22460761.430      205399.618 6    120288.36021
 93  6 11 17 23  0.0000000  0  5G27G 2G15G26G19
  20502460.0394      13616.74647      9029.64963
  21203818.8834    -126042.42247    -78339.84663
  24233284.0084    -239536.97545   -148740.36961
  23856435.1254    -416613.01745   -259205.68061
  22470635.797      257295.988 6    160727.05022
 93  6 11 17 23 30.0000000  0  5G27G 2G15G26G19
  20503181.8594      17406.16447     11982.43563
  21199094.3054    -150871.62547    -97687.26463
  24224383.8054    -286306.02445   -185183.80161
  23840767.797     -498941.479 5   -323357.68421
  22480560.750      309435.868 6    201355.49421
 93  6 11 17 24  0.0000000  0  5G27G 2G15G26G19
  20503973.1334      21571.72347     15228.31363
  21194390.2814    -175592.33547   -116950.13663
  24215561.9534    -332677.64045   -221317.49661
  23825170.055     -580918.424 5   -387235.77621
  22490528.945      361820.045 6    242174.30121
 93  6 11 17 24 30.0000000  0  5G27G 2G15G26G19
  20504838.3364      26115.01947     18768.52963
  21189702.7034    -200225.03847   -136144.44763
  24206809.7344    -378661.99245   -257149.45861
  23809637.6254    -662541.67045   -450838.27061
  22500543.250      414438.248 6    283175.46921
 93  6 11 17 25  0.0000000  0  5G27G 2G15G26G19
  20505777.1804      31049.34347     22613.45163
  21185037.4694    -224748.65247   -155253.74063
  24198138.9844    -424243.37145   -292667.38061
  23794175.500     -743794.508 5   -514152.12721
  22510596.7584     467294.33946    324362.00161
 93  6 11 17 25 30.0000000  0  5G27G 2G15G26G19
  20506791.3284      36374.27347     26762.73963
  21180393.3054    -249149.75647   -174267.58163
  24189540.5704    -469412.19545   -327863.87561
  23778783.211     -824666.497 5   -577169.23021
  22520700.930      520387.907 6    365733.58821
 93  6 11 17 26  0.0000000  0  5G27G 2G15G26G19
  20507878.2194      42087.65247     31214.71763
  21175769.2504    -273444.37047   -193198.43963
  24181021.1884    -514174.82845   -362743.84061
  23763468.742     -905163.895 6   -639894.44421
  22530849.547      573703.418 6    407278.09921
 93  6 11 17 26 30.0000000  0  5G27G 2G15G26G19
  20509041.1724      48199.28947     35977.01463
  21171173.8594    -297595.38747   -212017.40363
  24172586.2734    -558514.43245   -397294.13561
  23748220.1094    -985281.32145   -702323.59861
  22541037.6254     627255.85146    449007.25161
 93  6 11 17 27  0.0000000  0  5G27G 2G15G26G19
  20510279.1724      54703.74447     41045.41363
  21166610.188     -321583.190 7   -230709.18423
  24164226.2814    -602428.61245   -431512.95061
  23733047.9384   -1065025.15845   -764461.61761
  22551271.984      681043.029 6    490919.29921
 93  6 11 17 27 30.0000000  0  5G27G 2G15G26G19
  20511591.5234      61612.92747     46429.17563
  21162076.0164    -345400.20647   -249267.88863
  24155955.4774    -645913.04145   -465396.91461
  23717942.3444   -1144395.84245   -826308.87761
  22561557.563      735086.297 6    533030.90421
 93  6 11 17 28  0.0000000  0  5G27G 2G15G26G19
  20512986.2194      68931.98347     52132.32763
  21157580.0314    -369035.79147   -267685.21263
  24147760.3754    -688966.25045   -498944.86461
  23702908.8834   -1223394.65045   -887866.34161
  22571893.297      789390.949 5    575346.18021
 93  6 11 17 28 30.0000000  0  5G27G 2G15G26G19
  20514456.8914      76659.98647     58154.14063
  21153116.6024    -392482.61347   -285955.45663
  24139649.5704    -731581.45145   -532151.51161
  23687948.148    -1302013.615 5   -949127.85221
  22582281.227      843970.735 6    617875.84121
 93  6 11 17 29  0.0000000  0  5G27G 2G15G26G19
  20516006.4224      84805.43147     64501.22563
  21148689.6724    -415755.56947   -304090.21663
  24131625.2894    -773757.57145   -565016.00961
  23673061.852    -1380240.328 5  -1010083.71021
  22592717.203      898838.131 6    660629.62021
 93  6 11 17 29 30.0000000  0  5G27G 2G15G26G19
  20517637.8914      93378.57547     71181.58863
  21144292.2114    -438856.53847   -322090.96063
  24123685.8914    -815485.35245   -597531.12561
  23658255.227    -1458065.487 5  -1070726.67521
  22603216.438      954000.482 6    703613.24021
 93  6 11 17 30  0.0000000  0  5G27G 2G15G26G19
  20519351.0234     102384.00147     78198.78863
  21139930.1724    -461790.66547   -339961.70163
  24115830.4304    -856760.96545   -629693.93161
  23643520.930    -1535488.271 5  -1131056.08421
  22613765.7034    1009430.44046    746805.39161
 93  6 11 17 30 30.0000000  0  5G27G 2G15G26G19
  20521148.5704     111827.91447     85557.67463
  21135595.0314    -484563.68347   -357706.90963
  24108062.4224    -897583.61745   -661503.76461
  23628863.945    -1612506.027 5  -1191069.89721
  22624365.664     1065121.340 6    790200.85621
 93  6 11 17 31  0.0000000  0  5G27G 2G15G26G19
  20523032.7734     121725.99847     93270.45363
  21131295.2894    -507162.61447   -375316.46063
  24100380.9384    -937947.16945   -692955.86661
  23614287.836    -1689107.296 5  -1250759.17521
  22635010.6644    1121067.82946    833795.48961
 93  6 11 17 31 30.0000000  0  5G27G 2G15G26G19
  20525001.7584     132068.84347    101329.79863
  21127025.0944    -529597.35947   -392798.07563
  24092787.797     -977852.727 5   -724051.09321
  23599784.9454   -1765302.66545  -1310132.14861
  22645700.000     1177246.155 6    877570.76321
 93  6 11 17 32  0.0000000  0  5G27G 2G15G26G19
  20527051.2584     142845.40047    109727.10563
  21122786.1804    -551873.95847   -410156.45263
  24085279.750    -1017298.132 5   -754787.72221
  23585369.320    -1841079.793 6  -1369179.24021
  22656432.750     1233664.508 6    921533.07321
 93  6 11 17 32 30.0000000  0  5G27G 2G15G26G19
  20529181.2034     154034.05347    118445.53363
  21118575.9064    -573995.98147   -427394.39863
  24077867.1884   -1056282.19745   -785164.88561
  23571031.430    -1916431.986 6  -1427895.22521
  22667219.102     1290343.198 6    965698.24821
 93  6 11 17 33  0.0000000  0  5G27G 2G15G26G19
  20531386.2584     165621.96747    127475.06363
  21114395.3204    -595966.98047   -444514.64863
  24070537.6024   -1094798.06645   -815177.19161
  23556768.9924   -1991359.06545  -1486279.93461
  22678059.781     1347294.545 5   1010075.88921
 93  6 11 17 33 30.0000000  0  5G27G 2G15G26G19
  20533663.211      177587.262 7    136798.65123
  21110240.7274    -617807.02647   -461532.85663
  24063294.305    -1132847.175 5   -844825.82421
  23542592.3054   -2065865.65846  -1544337.00261
  22688947.6174    1404523.90546   1054670.15861
 93  6 11 17 34  0.0000000  0  5G27G 2G15G26G19
  20536012.4224     189931.48647    146417.52763
  21106111.6254    -639500.25747   -478436.66663
  24056141.5474   -1170426.34845   -874108.24161
  23528497.8444   -2139943.15746  -1602059.69861
  22699893.2424    1462041.78045   1099489.23161
 93  6 11 17 34 30.0000000  0  6G27G 2G15G26G19G13
  20538437.3984     202679.51447    156351.03663
  21102014.4224    -661031.79447   -495214.48463
  24049085.477    -1207531.898 5   -903021.61521
  23514480.555    -2213600.397 6  -1659454.92121
  22710891.9534    1519835.27946   1144523.08261
  24146055.6334    -134680.41744
 93  6 11 17 35  0.0000000  0  6G27G 2G15G26G19G13
  20540944.7194     215854.93647    166617.59463
  21097949.2664    -682392.80647   -511859.42363
  24042110.5084   -1244162.03145   -931564.53261
  23500544.5164   -2286832.68446  -1716519.02861
  22721939.344     1577896.620 6   1189765.64621
  24120441.852     -269267.568 4
 93  6 11 17 35 30.0000000  0  6G27G 2G15G26G19G13
  20543537.4224     229470.70047    177227.26763
  21093918.0634    -703581.63147   -528370.19463
  24035231.203    -1280318.625 5   -959738.48121
  23486689.3444   -2359644.77846  -1773255.70761
  22733036.4144    1636206.93846   1235202.20561
  24094850.445     -403761.923 5        -0.37831
 93  6 11 17 36  0.0000000  0  6G27G 2G15G26G19G13
  20546216.2974     243561.15747    188206.83063
  21089921.3444    -724581.55647   -544733.77163
  24028442.2734   -1315993.23245   -987536.81061
  23472913.0314   -2432034.50946  -1829663.23261
  22744182.422     1694762.917 5   1280830.20321
  24069281.9844    -538154.17545   -104721.45561
 93  6 11 17 36 30.0000000  0  6G27G 2G15G26G19G13
  20548990.4454     258128.97347    199558.36063
  21085960.2114    -745401.00547   -560956.72063
  24021743.7504   -1351183.46145  -1014957.74361
  23459220.7974   -2503999.14146  -1885739.57761
  22755368.5164    1753559.21845   1326645.44961
  24043724.3834    -672440.28945   -209359.89161
 93  6 11 17 37  0.0000000  0  6G27G 2G15G26G19G13
  20551847.6094     273149.87347    211262.95263
  21082030.6484    -766043.76747   -577041.98063
  24015141.617    -1385889.203 6  -1042001.14821
  23445607.102    -2575532.606 6  -1941479.90621
  22766605.422     1812600.905 5   1372651.91221
  24018187.6564    -806618.77245   -313914.36561
 93  6 11 17 37 30.0000000  0  6G27G 2G15G26G19G13
  20554787.078      288603.703 7    223304.88423
  21078135.5164    -786522.97947   -592999.80263
  24008626.805    -1420111.473 5  -1068667.82021
  23432077.656    -2646634.745 6  -1996884.14521
  22777886.109     1871883.694 5   1418846.24221
  23992678.992     -940689.138 5
 93  6 11 17 38  0.0000000  0  6G27G 2G15G26G19G13
  20557809.1484     304472.99547    235670.55563
  21074269.1954    -806839.59647   -608830.92763
  24002214.0234   -1453846.77245  -1094955.02561
  23418631.656    -2717282.762 5  -2051934.53321
  22789214.289     1931422.816 5   1465240.31721
  23967185.398    -1074646.326 5
 93  6 11 17 38 30.0000000  0  6G27G 2G15G26G19G13
  20560901.9384     320732.51747    248340.29863
  21070431.8284    -827000.23947   -624540.51363
  23995882.9454   -1487094.79045  -1120862.57261
  23405275.383    -2787469.399 6  -2106625.39421
  22800597.484     1991223.366 5   1511838.10221
  23941715.430    -1208488.604 5        -0.26231
 93  6 11 17 39  0.0000000  0  6G27G 2G15G26G19G13
  20564073.9534     337394.18847    261323.40963
  21066624.8834    -847005.75347   -640129.22063
  23989650.5784   -1519850.56846  -1146386.51361
  23392008.0314   -2857184.60446  -2160948.90761
  22812025.906     2051296.759 5   1558648.49921
  23916272.8984   -1342209.23545   -104198.03361
 93  6 11 17 39 30.0000000  0  6G27G 2G15G26G19G13
  20567321.344      354468.538 7    274628.08423
  21062844.9384    -866871.59547   -655609.09063
  23983508.7034   -1552120.10945  -1171531.57761
  23378830.984    -2926431.144 6  -2214907.22721
  22823507.5164    2111642.53345   1605671.13161
  23890848.7114   -1475813.19845   -208304.88861
 93  6 11 17 40  0.0000000  0  6G27G 2G15G26G19G13
  20570653.3204     371973.37647    288268.20363
  21059094.4224    -886578.63947   -670965.23063
  23977460.648    -1583895.713 5  -1196291.77021
  23365743.1564   -2995214.09446  -2268504.30161
  22835045.4924    2172271.71245   1652914.59761
  23865444.273    -1609291.381 4   -312313.66421
 93  6 11 17 40 30.0000000  0  6G27G 2G15G26G19G13
  20574070.7734     389928.66447    302259.32463
  21055377.9454    -906116.66347   -686189.66063
  23971507.2114   -1615176.86545  -1220666.64061
  23352742.1804   -3063544.61546  -2321748.82661
  22846640.594     2233174.233 5   1700371.06821
  23840070.344    -1742641.448 5   -416222.64221
 93  6 11 17 41  0.0000000  0  6G27G 2G15G26G19G13
  20577574.3754     408342.48547    316607.74363
  21051692.1564    -925483.11347   -701280.39763
  23965654.078    -1645961.588 6  -1244654.71321
  23339824.938    -3131421.963 6  -2374640.24521
  22858281.156     2294351.403 5   1748041.53421
  23814722.4534   -1875859.53345   -520028.81561
 93  6 11 17 41 30.0000000  0  6G27G 2G15G26G19G13
  20581166.1414     427213.45647    331312.38063
  21048039.9844    -944674.63547   -716234.82963
  23959889.719    -1676246.028 5  -1268252.95021
  23326993.3204   -3198852.11146  -2427183.21061
  22869966.961     2355798.666 5   1795922.46921
  23789395.3914   -2008940.02245   -623727.74161
 93  6 11 17 42  0.0000000  0  6G27G 2G15G26G19G13
  20584843.8444     446539.73547    346371.80563
  21044418.5004    -963696.57347   -731057.11063
  23954218.1484   -1706032.25945  -1291462.98161
  23314247.6564   -3265832.25046  -2479375.49361
  22881709.836     2417495.972 5   1843998.24421
  23764095.1724   -2141883.72745   -727320.10261
 93  6 11 17 42 30.0000000  0  6G27G 2G15G26G19G13
  20588608.6254     466325.69547    361789.42363
  21040827.6024    -982565.71547   -745760.34263
  23948646.2664   -1735314.61045  -1314280.35361
  23301589.188    -3332344.725 6  -2531203.39421
  22893500.117     2479440.124 5   1892266.36021
  23738829.969    -2274683.254 5   -830800.05521
 93  6 11 17 43  0.0000000  0  6G27G 2G15G26G19G13
  20592458.1174     486561.20247    377557.32563
  21037263.9614   -1001298.34747   -760357.19163
  23943172.5554   -1764092.55445  -1336704.70061
  23289020.5704   -3398389.89846  -2582667.13861
  22905335.156     2541627.438 5   1940723.96021
  23713580.711    -2407336.303 5   -934165.88521
 93  6 11 17 43 30.0000000  0  6G27G 2G15G26G19G13
  20596394.1954     507240.36847    393670.95063
  21033726.1174   -1019886.99747   -774841.85163
  23937790.1564   -1792365.60945  -1358735.62861
  23276545.3364   -3463959.79246  -2633760.54561
  22917214.5084    2604044.53945   1989360.60761
  23688370.891    -2539840.701 5  -1037415.91621
 93  6 11 17 44  0.0000000  0  6G27G 2G15G26G19G13
  20600410.0554     528349.46947    410119.58163
  21030219.5004   -1038327.54647   -789211.10663
  23932506.0864   -1820134.75746  -1380373.91161
  23264159.289    -3529054.070 6  -2684483.32921
  22929135.8444    2666694.99745   2038179.08061
  23663181.1254   -2672195.99045  -1140549.71361
 93  6 11 17 44 30.0000000  0  6G27G 2G15G26G19G13
  20604508.6564     549885.14847    426900.61963
  21026739.4454   -1056603.50747   -803452.11363
  23927316.8674   -1847391.38646  -1401612.84061
  23251859.0084   -3593681.66846  -2734842.49461
  22941101.313     2729596.633 5   2087193.29621
  23638024.750    -2804391.848 5  -1243559.31621
 93  6 11 17 45  0.0000000  0  6G27G 2G15G26G19G13
  20608688.5474     571848.00247    444014.51763
  21023295.8284   -1074697.12147   -817551.02463
  23922231.0314   -1874136.76845  -1422453.38661
  23239646.2584   -3657851.54746  -2784844.96461
  22953120.789     2792753.825 5   2136406.65221
  23612901.242    -2936427.469 5  -1346444.05621
 93  6 11 17 45 30.0000000  0  6G27G 2G15G26G19G13
  20612948.6564     594244.30147    461466.16063
  21019889.9064   -1092597.04247   -831499.00963
  23917237.289    -1900368.325 5  -1442893.51021
  23227527.4844   -3721561.39346  -2834489.00961
  22965191.1174    2856178.12245   2185828.12861
  23587802.6564   -3068298.22945  -1449200.34261
 93  6 11 17 46  0.0000000  0  6G27G 2G15G26G19G13
  20617296.4304     617080.77647    479260.80063
  21016515.0554   -1110327.96447   -845315.31463
  23912343.4384   -1926093.89245  -1462939.42561
  23215485.305    -3784828.495 6  -2883788.02821
  22977310.883     2919869.689 5   2235457.86421
  23562742.164    -3200010.776 5  -1551833.32821
 93  6 11 17 46 30.0000000  0  6G27G 2G15G26G19G13
  20621726.6024     640371.26747    497409.22163
  21013175.5084   -1127891.83947   -859001.44663
  23907541.828    -1951308.677 5  -1482587.27121
  23203534.2664   -3847638.69246  -2932731.03461
  22989480.531     2983819.965 5   2285289.20021
  23537707.852    -3331557.881 5  -1654337.42821
 93  6 11 17 47  0.0000000  0  6G27G 2G15G26G19G13
  20626247.6954     664122.22647    515916.44763
  21009864.0474   -1145294.18047   -872561.70063
  23902847.6254   -1976009.62746  -1501834.75561
  23191672.7664   -3909974.79246  -2981304.59461
  23001696.789     3048019.261 5   2335314.58221
  23512707.406    -3462934.507 5  -1756708.66021
 93  6 11 17 47 30.0000000  0  6G27G 2G15G26G19G13
  20630853.1954     688320.55947    534772.26563
  21006577.4694   -1162551.25547   -886008.78263
  23898241.773    -2000195.806 5  -1520681.10721
  23179899.6884   -3971824.39946  -3029499.09061
  23013955.125     3112459.871 5   2385527.99021
  23487741.891    -3594138.683 5  -1858945.51021
 93  6 11 17 48  0.0000000  0  6G27G 2G15G26G19G13
  20635542.5084     712964.59847    553975.40363
  21003323.0394   -1179662.80747   -899342.45363
  23893740.8754   -2023864.96845  -1539124.57961
  23168225.8284   -4033181.40046  -3077309.72661
  23026264.820     3177144.395 5   2435931.46521
  23462802.9224   -3725165.65245  -1961044.31961
 93  6 11 17 48 30.0000000  0  6G27G 2G15G26G19G13
  20640311.5394     738028.88147    573505.99863
  21000094.2504   -1196622.93647   -912558.13263
  23889331.1564   -2047021.89045  -1557168.93561
  23156639.6484   -4094042.43046  -3124733.88561
  23038622.8204    3242070.42045   2486523.11861
  23437906.617    -3856018.769 5  -2063007.64321
 93  6 11 17 49  0.0000000  0  6G27G 2G15G26G19G13
  20645163.0314     763522.34647    593371.01663
  20996897.9064   -1213414.89647   -925642.77263
  23885025.2504   -2069657.16545  -1574806.81361
  23145158.4304   -4154402.59646  -3171767.77161
  23051025.0314    3307253.82645   2537315.32161
  23413039.305    -3986686.110 5  -2164826.21121
 93  6 11 17 49 30.0000000  0  6G27G 2G15G26G19G13
  20650096.4454     789441.21647    613567.51563
  20993737.6484   -1230035.12747   -938593.60063
  23880813.0234   -2091776.65145  -1592042.77461
  23133762.6804   -4214276.18546  -3218422.51561
  23063481.2424    3372700.12545   2588312.38261
  23388209.586    -4117171.724 5  -2266503.22021
 93  6 11 17 50  0.0000000  0  6G27G 2G15G26G19G13
  20655111.2344     815806.07047    634111.53863
  20990610.9614   -1246466.73347   -951397.44363
  23876706.3594   -2113368.74845  -1608867.78761
  23122461.7894   -4273665.87846  -3264700.17461
  23075985.0864    3438419.87445   2639522.52461
  23363419.008    -4247461.787 5  -2368027.85021
 93  6 11 17 50 30.0000000  0  6G27G 2G15G26G19G13
  20660214.4064     842613.38247    655000.34563
  20987516.0164   -1262725.59847   -964066.68363
  23872699.3054   -2134440.02645  -1625286.97461
  23111249.8754   -4332585.73146  -3310611.74161
  23088538.273     3504380.503 5   2690920.36021
  23338660.914    -4377560.581 5  -2469403.40321
 93  6 11 17 51  0.0000000  0  6G27G 2G15G26G19G13
  20665400.4454     869871.92947    676240.75063
  20984453.4224   -1278820.91647   -976608.48463
  23868786.742    -2154989.997 5  -1641299.93821
  23100123.273    -4391048.707 6  -3356167.29721
  23101137.063     3570573.113 5   2742498.94421
  23313939.1724   -4507465.88545  -2570628.20461
 93  6 11 17 51 30.0000000  0  6G27G 2G15G26G19G13
  20670674.0784     897578.91247    697830.58663
  20981419.4144   -1294759.60347   -989028.23763
  23864973.953    -2175010.245 5  -1656900.13121
  23089087.8134   -4449043.23246  -3401357.81961
  23113773.9384    3637004.84045   2794263.86261
  23289257.789    -4637167.667 5  -2671694.41221
 93  6 11 17 52  0.0000000  0  6G27G 2G15G26G19G13
  20676026.5704     925720.94647    719759.42863
  20978412.0164   -1310567.85347  -1001346.35063
  23861267.4304   -2194500.67345  -1672087.48761
  23078144.0314   -4506565.85846  -3446180.63461
  23126466.6024    3703671.16845   2846211.58961
  23264615.133    -4766663.623 5  -2772600.23621
 93  6 11 17 52 30.0000000  0  6G27G 2G15G26G19G13
  20681463.258      954280.942 7    742013.94723
  20975424.5084   -1326260.39347  -1013574.29963
  23857660.133    -2213466.552 5  -1686866.11321
  23067285.1024   -4563616.27446  -3490635.49661
  23139193.7274    3770570.72045   2898341.04761
  23240013.344    -4895956.767 5  -2873348.04621
 93  6 11 17 53  0.0000000  0  6G27G 2G15G26G19G13
  20686980.6724     983273.40447    764605.46663
  20972465.8524   -1341807.17747  -1025688.67263
  23854155.859    -2231886.165 5  -1701219.03821
  23056524.430    -4620169.158 6  -3534702.66221
  23151982.516     3837746.261 5   2950685.57121
  23215450.500    -5025023.357 5  -2973919.32521
 93  6 11 17 53 30.0000000  0  6G27G 2G15G26G19G13
  20692578.0314    1012685.29047    787523.80263
  20969533.3204   -1357223.89147  -1037701.69663
  23850750.2504   -2249777.38145  -1715160.25161
  23045857.3594   -4676232.80546  -3578388.61061
  23164811.6644    3905180.48945   3003231.65961
  23190934.672    -5153879.492 5  -3074326.62921
 93  6 11 17 54  0.0000000  0  6G27G 2G15G26G19G13
  20698256.9924    1042532.54747    810781.38963
  20966626.8914   -1372500.31347  -1049605.39063
  23847444.9064   -2267143.39045  -1728692.19761
  23035281.2344   -4731817.30046  -3621701.20161
  23177687.617     3972865.809 5   3055973.39421
  23166448.406    -5282525.969 5  -3174570.52521
 93  6 11 17 54 30.0000000  0  6G27G 2G15G26G19G13
  20704025.3134    1072841.79047    834398.96463
  20963751.5864   -1387599.84747  -1061371.26363
  23844242.3984   -2283977.16545  -1741809.44361
  23024798.5004   -4786905.69946  -3664627.21561
  23190619.297     4040801.943 5   3108910.60121
  23142010.844    -5410953.548 5  -3274643.85621
 93  6 11 17 55  0.0000000  0  6G27G 2G15G26G19G13
  20709884.0234    1103628.74247    858388.77463
  20960917.0474   -1402504.40547  -1072985.19463
  23841139.3754   -2300282.38245  -1754514.80161
  23014407.2584   -4841496.83146  -3707165.75661
  23203593.0164    4108977.85645   3162034.61761
  23117615.2274   -5539163.65445  -3374547.77061
 93  6 11 17 55 30.0000000  0  6G27G 2G15G26G19G13
  20715833.9694    1134899.53147    882755.60863
  20958118.4844   -1417216.15047  -1084448.88563
  23838135.5704   -2316051.55246  -1766802.48561
  23004116.6414   -4895574.37746  -3749304.08161
  23216609.5004    4177386.65445   3215340.12161
  23093254.039    -5667146.503 5  -3474274.55621
 93  6 11 17 56  0.0000000  0  6G27G 2G15G26G19G13
  20721874.4844    1166633.41447    907483.29663
  20955352.2344   -1431746.14047  -1095770.94763
  23835241.109    -2331288.761 5  -1778675.64421
  22993923.1644   -4949141.92746  -3791045.03461
  23229670.0554    4246011.95145   3268814.30061
  23068949.531    -5794904.099 5  -3573825.84321
 93  6 11 17 56 30.0000000  0  6G27G 2G15G26G19G13
  20727997.359     1198818.132 7    932562.26823
  20952621.3674   -1446100.36147
  23832441.656    -2345988.284 6
  22983828.961    -5002188.307 6  -3832379.85121
  23242770.680     4314856.150 5   3322459.06821
  23044680.7664   -5922428.89145  -3673195.72061
 93  6 11 17 57  0.0000000  0  6G27G 2G15G26G19G13
  20734202.7584    1231422.73647    957968.44763
  20949917.7504   -1460309.50447  -1118028.10663
  23829742.531    -2360154.451 5
  22973829.8834   -5054728.77346  -3873320.47661
  23255906.055     4383909.101 5   3376266.47421
  23020460.609    -6049722.187 6  -3772385.21321
 93  6 11 17 57 30.0000000  0  6G27G 2G15G26G19G13
  20740481.6414    1264420.65447    983681.10163
  20947235.8594   -1474399.47247  -1129007.30263
  23827152.305    -2373789.913 5
  22963928.6804   -5106769.77746  -3913871.90561
  23269088.625     4453168.504 5   3430234.78421
  22996277.023    -6176784.361 6  -3871394.63121
 93  6 11 17 58  0.0000000  0  6G27G 2G15G26G19G13
  20746837.5164    1297814.39447   1009702.18163
  20944581.2814   -1488356.59747  -1139882.97763
  23824655.0234   -2386895.45345        -0.05871
  22954120.1094   -5158320.13346  -3954041.01461
  23282309.8444    4522640.28345   3484368.57261
  22972145.953    -6303614.040 6  -3970222.83821
 93  6 11 17 58 30.0000000  0  6G27G 2G15G26G19G13
  20753269.2894    1331621.44747   1036045.32263
  20941953.0864   -1502163.01547  -1150641.21563
  23822258.953    -2399470.289 5     -9798.64321
  22944405.7114   -5209382.82446  -3993830.10561
  23295569.8914    4592333.27045   3538674.71961
  22948051.008    -6430207.972 6  -4068867.37621
 93  6 11 17 59  0.0000000  0  6G27G 2G15G26G19G13
  20759783.4924    1365853.56647   1062719.69463
  20939356.6644   -1515806.21647  -1161272.28563
  23819970.4454   -2411512.32846    -19182.06561
  22934777.1564   -5259960.70546  -4033241.44761
  23308877.2114    4662255.74745   3593159.69661
  22924007.5084   -6556561.57545  -4167324.63361
 93  6 11 17 59 30.0000000  0  6G27G 2G15G26G19G13
  20766383.4384    1400541.33147   1089749.10363
  20936796.9304   -1529261.03447  -1171756.55363
  23817784.2894   -2423015.22946    -28145.38661
  22925249.1414   -5310035.23846  -4072260.55461
  23322229.563     4732424.514 5   3647836.57921
  22900013.3204   -6682666.44946  -4265588.05961
 93  6 11 18  0  0.0000000  0  6G27G 2G15G26G19G13
  20773075.9144    1435700.46747   1117145.81063
  20934274.2734   -1542517.09847  -1182085.94663
  23815695.6024   -2433982.94046    -36691.65861
  22915815.2584   -5359605.34446  -4110886.60061
  23335628.4534    4802837.52345   3702703.78961
  22876061.953    -6808524.135 6  -4363658.92621
 93  6 11 18  0 30.0000000  0  6G27G 2G15G26G19G13
  20779856.9924    1471335.94747   1144913.71463
  20931787.7734   -1555579.51047  -1192264.45463
  23813713.711    -2444408.850 6    -44815.72521
  22906482.023    -5408658.247 6  -4149109.62921
  23349074.1024    4873507.15645   3757770.96861
  22852161.445    -6934125.389 6  -4461529.95421
 93  6 11 18  1  0.0000000  0  6G27G 2G15G26G19G13
  20786724.4304    1507427.01247   1173036.60863
  20929335.2584   -1568473.45347  -1202311.67863
  23811832.8364   -2454293.93545    -52518.37261
  22897248.1174   -5457184.50346  -4186922.27861
  23362573.5004    4944426.46945   3813032.68761
  22828307.4384   -7059468.60746  -4559199.89561
 93  6 11 18  1 30.0000000  0  6G27G 2G15G26G19G13
  20793676.6094    1543958.05947   1201502.34763
  20926909.8364   -1581212.92847  -1212238.53363
  23810054.4774   -2463641.78145    -59802.40061
  22888112.3984   -5505180.71946  -4224321.91861
  23376114.805     5015584.402 5   3868480.38221
  22804506.0554   -7184555.17646  -4656669.85661
 93  6 11 18  2  0.0000000  0  6G27G 2G15G26G19G13
  20800711.2504    1580917.14547   1230301.62763
  20924512.8834   -1593818.79847  -1222061.28463
  23808372.211    -2472446.597 5    -66663.34621
  22879080.9224   -5552654.95146  -4261314.82561
  23389703.2664    5086983.47145   3924115.94261
  22780750.5474   -7309376.77245  -4753933.36761
 93  6 11 18  2 30.0000000  0  6G27G 2G15G26G19G13
  20807821.5944    1618291.63347   1259424.59163
  20922134.3594   -1606308.41247  -1231793.45063
  23806804.891    -2480704.987 5    -73098.46321
  22870143.7344   -5599610.88146  -4297903.84461
  23403329.8674    5158616.14445   3979933.54861
  22757052.3674   -7433927.37046  -4850985.67861
 93  6 11 18  3  0.0000000  0  6G27G 2G15G26G19G13
  20815008.6094    1656067.97247   1288860.67263
  20919776.4064   -1618699.18947  -1241448.59763
  23805335.203    -2488430.393 6    -79118.28321
  22861305.0164   -5646061.47646  -4334099.09161
  23417006.484     5230455.495 5   4035912.17721
  22733400.6804   -7558218.37046  -4947835.74261
 93  6 11 18  3 30.0000000  0  6G27G 2G15G26G19G13
  20822278.2894    1694257.94747   1318619.08963
  20917441.9534   -1630972.03247  -1251011.85063
  23803964.8134   -2495614.00945    -84715.87861
  22852560.414    -5692013.423 6  -4369905.80221
  23430713.0634    5302515.63745   4092062.85461
  22709802.3834   -7682238.81146  -5044474.97461
 93  6 11 18  4  0.0000000  0  6G27G 2G15G26G19G13
  20829624.0234    1732869.53247   1348706.01863
  20915129.7424   -1643124.43847  -1260481.25063
  23802704.2344   -2502259.04246    -89893.83761
  22843907.7424   -5737481.25446  -4405335.26161
  23444470.5004    5374787.92545   4148378.85861
  22686249.8524   -7805988.50946  -5140903.21661
 93  6 11 18  4 30.0000000  0  6G27G 2G15G26G19G13
  20837056.6484    1771920.32547   1379135.19263
  20912845.0784   -1655124.02247  -1269831.56863
  23801545.992    -2508358.685 5    -94646.80521
  22835352.9064   -5782447.99946  -4440374.27261
  23458263.297     5447266.614 5   4204855.69721
  22662753.6884   -7929458.43846  -5237113.48561
 93  6 11 18  5  0.0000000  0  6G27G 2G15G26G19G13
  20844569.7424    1811412.56147   1409908.34763
  20910595.1334   -1666951.69847  -1279047.94263
  23800487.3364   -2513919.45645    -98979.88861
  22826889.2664   -5826918.25046  -4475026.40761
  23472091.734     5519952.181 5   4261493.71821
  22639313.563    -8052652.465 6  -5333108.73821
 93  6 11 18  5 30.0000000  0  6G27G 2G15G26G19G13
  20852175.1414    1851371.91047   1441045.48463
  20908383.4064   -1678570.38447  -1288101.45963
  23799530.438    -2518920.899 5   -102877.09921
  22818523.5944   -5870876.20946  -4509279.37161
  23485969.688     5592864.682 5   4318308.57521
  22615927.3054   -8175547.59446  -5428871.11261
 93  6 11 18  6  0.0000000  0  6G27G 2G15G26G19G13
  20859867.5944    1891800.67647   1472548.39963
  20906209.4224   -1689992.91347  -1297002.13163
  23798688.4304   -2523373.44545   -106346.61161
  22810258.6484   -5914313.14246  -4543126.32061
  23499879.977     5665980.073 4   4375281.52321
  22592596.3284   -8298151.06246  -5524406.22861
 93  6 11 18  6 30.0000000  0  6G27G 2G15G26G19G13
  20867646.6414    1932674.96947   1504398.48863
  20904071.0554   -1701233.78247  -1305761.25163
  23797937.1564   -2527287.65945   -109396.63361
  22802093.9454   -5957224.27746  -4576563.56861
  23513831.0164    5739296.84045   4432411.37961
  22569319.266    -8420470.948 6  -5619720.34621
 93  6 11 18  7  0.0000000  0  6G27G 2G15G26G19G13
  20875508.0314    1973992.50647   1536593.95563
  20901965.8364   -1712297.62747  -1314382.42763
  23797297.5634   -2530654.53445   -112020.15861
  22794028.4454   -5999593.42546  -4609578.48661
  23527828.492     5812841.871 4   4489719.13221
  22546099.0634   -8542495.94246  -5714804.67361
 93  6 11 18  7 30.0000000  0  6G27G 2G15G26G19G13
  20883456.5084    2015749.71547   1569132.02663
  20899888.1024   -1723209.83947  -1322885.45263
  23796766.7814   -2533473.39346   -114216.67761
  22786071.0944   -6041409.42846  -4642162.38061
  23541864.3754    5886612.21544   4547202.42461
  22522932.0314   -8664222.70946  -5809656.63661
 93  6 11 18  8  0.0000000  0  6G27G 2G15G26G19G13
  20891481.9454    2057931.16947   1602000.67763
  20897839.3444   -1733984.58247  -1331281.34763
  23796330.7194   -2535742.17845   -115984.56761
  22778220.5554   -6082668.90546  -4674312.61761
  23555952.258     5960616.435 4   4604867.99721
  22499828.484    -8785646.233 6  -5904272.30921
 93  6 11 18  8 30.0000000  0  6G27G 2G15G26G19G13
  20899587.0084    2100522.23547   1635188.50263
  20895815.0314   -1744617.13847  -1339566.45863
  23796006.1804   -2537463.26046   -117325.66961
  22770469.836    -6123395.483 6  -4706047.59121
  23570078.2584    6034863.04344   4662722.39461
  22476778.195    -8906766.462 6  -5998651.64021
 93  6 11 18  8 59.9990000  0  6G27G 2G15G26G19G13
  20907773.4014    2143535.31647   1668705.17463
  20893819.9094   -1755107.08247  -1347740.43863
  23795781.714    -2538635.667 6   -118239.25321
  22762821.1834   -6163600.75446  -4737376.38261
  23584246.1754    6109329.37344   4720748.03461
  22453790.401    -9027575.399 6  -6092788.42821
 93  6 11 18  9 29.9990000  0  6G27G 2G15G26G19G13
  20916037.9484    2186977.92147   1702556.53563
  20891851.9724   -1765449.94747  -1355799.80263
  23795662.2064   -2539256.79046   -118723.24761
  22755265.097    -6203311.735 6  -4768319.97421
  23598459.151     6184006.666 4   4778938.06021
  22430860.7144   -9148075.36846  -6186684.42461
 93  6 11 18  9 59.9990000  0  6G27G 2G15G26G19G13
  20924386.7144    2230847.46347   1736740.58363
  20889914.0034   -1775624.08847  -1363727.70363
  23795650.448    -2539325.171 5
  22747800.3394   -6242533.39346  -4798882.32361
  23612705.948     6258890.854 4   4837289.28321
  22407987.9014   -9268258.27046  -6280333.38861
 93  6 11 18 10 29.9990000  0  6G27G 2G15G26G19G13
  20932816.1054    2275147.05147   1771259.72363
  20888011.8474   -1785627.61947  -1371522.66063
  23795741.0194   -2538844.89045
  22740429.7844   -6281257.86046  -4829057.23061
  23626996.9404    6333963.09544   4895787.02761
  22385178.362    -9388126.089 6  -6373736.80621
 93  6 11 18 10 59.9990000  0  6G27G 2G15G26G19G13
  20941328.769     2319872.671 7   1806110.83623
  20886139.7924   -1795459.24347  -1379183.65663
  23795939.5894   -2537814.88245   -117599.67261
  22733160.3554   -6319468.61446  -4858831.84661
  23641314.7374    6409222.72244   4954430.82461
  22362431.0894   -9507675.08046  -6466891.80161
 93  6 11 18 11 29.9990000  0  6G27G 2G15G26G19G13
  20949919.3394    2365023.65247   1841293.40163
  20884306.7304   -1805101.69447  -1386697.24663
  23796237.706    -2536226.000 5   -116361.58921
  22725992.1124   -6357137.58546  -4888184.27761
  23655678.901     6484699.750 4   5013243.98721
  22339743.3474   -9626893.14446  -6559788.93261
 93  6 11 18 11 59.9990000  0  6G27G 2G15G26G19G13
  20958593.636     2410601.408 7   1876808.51623
  20882506.1834   -1814561.35547  -1394068.40163
  23796650.2064   -2534081.64545   -114690.66061
  22718929.1054   -6394245.07846  -4917099.20161
  23670081.151     6560388.467 4   5072222.13521
  22317118.815    -9745780.528 6  -6652428.38321
 93  6 11 18 12 29.9990000  0  6G27G 2G15G26G19G13
  20967348.2924    2456609.23447   1912658.75363
  20880738.8554   -1823849.00947  -1401305.52263
  23797161.3084   -2531379.16845   -112584.83261
  22711974.5264   -6430796.25746  -4945580.64361
  23684524.815     6636292.742 4   5131368.22321
  22294557.8004   -9864331.58546  -6744805.76361
 93  6 11 18 12 59.9990000  0  6G27G 2G15G26G19G13
  20976186.8624    2503049.59647   1948846.02863
  20879002.0894   -1832973.85547  -1408415.78963
  23797781.9874   -2528122.19945   -110046.95161
  22705122.4724   -6466814.09846  -4973646.48361
  23699008.6834    6712411.50544   5190681.45461
  22272064.3154   -9982547.46746  -6836921.96561
 93  6 11 18 13 29.9990000  0  6G27G 2G15G26G19G13
  20985106.8314    2549930.50647   1985376.59463
  20877292.9334   -1841950.56247  -1415410.61463
  23798506.8004   -2524310.99145   -107077.19761
  22698369.1594   -6502305.54646  -5001302.14561
  23713537.120     6788734.124 4   5250153.54021
  22249633.394   -10100425.494 6  -6928774.90521
 93  6 11 18 13 59.9990000  0  6G27G 2G15G26G19G13
  20994111.198     2597253.757 7   2022251.83423
  20875612.8864   -1850779.77047  -1422290.51463
  23799337.4954   -2519942.41545   -103673.09361
  22691710.7924   -6537281.37346  -5028556.04261
  23728099.1364    6865256.60944   5309781.35561
  22227267.3154  -10217959.59746  -7020359.82761
 93  6 11 18 14 29.9990000  0  6G27G 2G15G26G19G13
  21003198.8474    2645016.94147   2059469.87763
  20873962.6054   -1859448.00347  -1429044.97463
  23800276.6284   -2515014.96545    -99833.52961
  22685153.1594   -6571746.93846  -5055412.31561
  23742701.6284    6941987.34744   5369571.43361
  22204966.9804  -10335145.45846  -7111673.42861
 93  6 11 18 14 59.9990000  0  6G27G 2G15G26G19G13
  21012373.144     2693218.322 7   2097029.37923
  20872344.3474   -1867951.96847  -1435671.43463
  23801318.058    -2509532.385 5    -95561.41021
  22678694.9404   -6605683.33046  -5081856.27061
  23757339.480     7018929.001 4   5429525.87421
  22182735.3004  -10451983.93546  -7202716.33261
 93  6 11 18 15 29.9990000  0  6G27G 2G15G26G19G13
  21021627.933     2741844.609 7   2134919.97723
  20870760.9874   -1876278.52547  -1442159.64863
  23802463.480    -2503497.218 5    -90858.68121
  22672341.6904   -6639072.30446  -5107873.64661
  23772022.7144    7096090.92644   5489651.98861
  22160565.1364  -10568474.28146  -7293487.94361
 93  6 11 18 15 59.9990000  0  6G27G 2G15G26G19G13
  21030961.1834    2790894.19547   2173140.42063
  20869213.7304   -1884413.42447  -1448498.52763
  23803720.2064   -2496907.13945    -85723.52961
  22666093.9954   -6671911.05846  -5133462.29261
  23786745.2144    7173477.34444   5549952.99861
  22138465.4334  -10684611.17746  -7383984.16061
 93  6 11 18 16 29.9990000  0  6G27G 2G15G26G19G13
  21040376.3624    2840368.89147   2211692.10663
  20867698.3704   -1892370.32447  -1454698.70663
  23805083.0814   -2489767.61845    -80160.28261
  22659947.3624   -6704198.31446  -5158621.19161
  23801514.636     7251073.455 4   5610417.40521
  22116432.2694  -10800397.31946  -7474207.07361
 93  6 11 18 16 59.9990000  0  6G27G 2G15G26G19G13
  21049873.3084    2890276.71647   2250581.31163
  20866219.0194   -1900152.84747  -1460763.00763
  23806545.6204   -2482074.10845    -74165.34461
  22653910.8314   -6735925.26646  -5183343.49661
  23816316.550     7328881.533 4   5671046.97121
  22094465.612   -10915825.088 6  -7564150.71821
 93  6 11 18 17 29.9990000  0  6G27G 2G15G26G19G13
  21059454.120     2940619.746 7   2289809.62123
  20864768.7304   -1907764.34947  -1466694.05363
  23808113.7844   -2473824.93945    -67737.41961
  22647973.2374   -6767116.90046  -5207648.66061
  23831161.1834    7406889.13944   5731832.01961
  22072569.6674  -11030889.41946  -7653811.16061
 93  6 11 18 17 59.9990000  0  6G27G 2G15G26G19G13
  21069115.4874    2991397.10647   2329376.37363
  20863349.6984   -1915230.81647  -1472512.07763
  23809786.6204   -2465029.36145    -60883.71061
  22642137.3474   -6797796.45646  -5231554.80761
  23846047.0194    7485074.45044   5792755.55161
  22050745.269   -11145597.237 6  -7743193.80621
 93  6 11 18 18 29.9990000  0  6G27G 2G15G26G19G13
  21078863.9804    3042623.92247   2369293.35963
  20861957.1514   -1922541.34247  -1478208.58463
  23811569.7144   -2455677.32845    -53596.43161
  22636399.4094   -6827950.15346  -5255051.17861
  23860962.6054    7563450.34443   5853827.60361
  22028986.4094  -11259935.43346  -7832288.42261
 93  6 11 18 18 59.9990000  0  6G27G 2G15G26G19G13
  21088696.3314    3094288.80047   2409551.69263
  20860598.2064   -1929684.51947  -1483774.69463
  23813453.542    -2445766.819 5    -45873.97121
  22630760.2694   -6857579.77246  -5278139.19461
  23875910.503     7642030.809 4   5915059.03521
  22007300.331   -11373898.647 6  -7921090.84921
 93  6 11 18 19 29.9990000  0  6G27G 2G15G26G19G13
  21098610.9014    3146391.94047   2450151.51563
  20859273.5734   -1936648.53447  -1489201.20263
  23815446.3864   -2435288.06545    -37708.70461
  22625222.4564   -6886677.07146  -5300812.42861
  23890905.0194    7720813.03143   5976447.71961
  21985685.8084  -11487474.21646  -8009591.24561
 93  6 11 18 19 59.9990000  0  6G27G 2G15G26G19G13
  21108604.3864    3198905.41447   2491071.09063
  20857979.6984   -1943446.07647  -1494497.98563
  23817551.4254   -2424259.83245    -29115.28261
  22619790.2614   -6915235.79646  -5323065.97761
  23905934.948     7799780.632 3   6037980.80321
  21964143.5264  -11600677.43146  -8097801.46061
 93  6 11 18 20 29.9990000  0  6G27G 2G15G26G19G13
  21118671.761     3251818.862 7   2532302.31823
  20856719.1834   -1950075.17047  -1499663.51563
  23819748.3004   -2412686.18045    -20096.87161
  22614457.026    -6943247.624 6  -5344893.37221
  23920994.1364    7878938.46443   6099662.10861
  21942672.4094  -11713509.62646  -8185722.56961
 93  6 11 18 20 59.9990000  0  6G27G 2G15G26G19G13
  21128813.9334    3305123.84747   2573838.65462
  20855487.6054   -1956544.40447  -1504704.47263
  23822048.9174   -2400574.37845    -10659.12161
  22609232.2224   -6970717.78346  -5366298.68661
  23936087.3004    7958270.73643   6161479.36061
  21921270.745   -11825975.269 6  -8273358.05621
 93  6 11 18 21 29.9990000  0  6G27G 2G15G26G19G13
  21139037.292     3358838.483 7   2615694.19322
  20854286.1984   -1962853.60447  -1509620.73163
  23824462.7304   -2387918.13245      -797.10861
  22604108.5344   -6997635.83446  -5387273.80461
  23951223.6754    8037776.42143   6223431.72761
  21899942.386   -11938064.325 6  -8360700.11221
 93  6 11 18 21 59.9990000  0  6G27G 2G15G26G19G13
  21149339.026     3412979.347 7   2657881.85723
  20853118.5504   -1968999.49647  -1514409.73863
  23826975.3784   -2374713.92145      9491.88761
  22599090.0264   -7024002.97846  -5407819.62161
  23966387.292     8117481.712 3   6285539.62721
  21878683.1984  -12049770.25546  -8447743.62861
 93  6 11 18 22 29.9990000  0  6G27G 2G15G26G19G13
  21159725.4254    3467547.69147   2700402.62262
  20851979.4954   -1974978.08247  -1519068.37963
  23829591.065    -2360963.629 5     20206.37721
  22594176.4334   -7049841.45746  -5427953.48561
  23981589.2614    8197384.52443   6347801.46061
  21857500.0734  -12161092.45046  -8534488.11361
 93  6 11 18 22 59.9990000  0  6G27G 2G15G26G19G13
  21170184.4804    3522520.39447   2743238.47362
  20850871.4174   -1980797.43247  -1523602.94063
  23832306.2844   -2346680.17045     31336.35761
  22589353.3784   -7075179.72846  -5447697.61361
  23996831.542     8277461.627 3   6410199.12821
  21836386.5504  -12272040.20646  -8620940.84461
 93  6 11 18 23 29.9990000  0  6G27G 2G15G26G19G13
  21180722.2374    3577898.62547   2786390.32662
  20849795.8784   -1986450.69247  -1528008.07563
  23835129.284    -2331860.581 5     42884.06321
  22584627.4014   -7100017.20046  -5467051.48661
  24012107.386     8357722.603 3   6472740.03021
  21815346.3314  -12382607.35446  -8707096.99961
 93  6 11 18 23 59.9990000  0  6G27G 2G15G26G19G13
  21191335.878     3633668.261 7   2829847.16022
  20848749.7224   -1991938.94447  -1532284.62663
  23838051.9564   -2316504.79145     54849.60861
  22579992.651    -7124352.463 6  -5486014.04221
  24027412.503     8438163.825 2   6535421.37721
  21794380.362   -12492791.000 6  -8792954.31221
 93  6 11 18 24 29.9990000  0  6G27G 2G15G26G19G13
  21202019.644     3689807.223 7   2873591.78522
  20847737.1284   -1997265.43647  -1536435.13963
  23841077.7454   -2300611.74345     67233.78461
  22575460.8314   -7148174.28946  -5504576.49661
  24042748.5654    8518764.41042   6598226.90161
  21773486.8394  -12602586.42446  -8878509.11961
 93  6 11 18 24 59.9990000  0  6G27G 2G15G26G19G13
  21212771.7924    3746322.17847   2917629.38562
  20846752.4644   -2002452.76647  -1540477.20663
  23844203.503    -2284184.415 5     80034.29721
  22571027.3314   -7171472.24846  -5522730.75761
  24058118.456     8599523.066 3   6661155.60021
  21752667.6674  -12711993.77946  -8963761.53261
 93  6 11 18 25 29.9990000  0  6G27G 2G15G26G19G13
  21223602.1364    3803229.00947   2961972.35162
  20845788.1834   -2007507.55947  -1544416.00863
  23847427.7374   -2267223.50645     93250.57261
  22566698.5734   -7194233.82346  -5540467.04161
  24073517.323     8680442.839 3   6724209.87221
  21731920.2694  -12821010.26046  -9048709.36461
 93  6 11 18 25 59.9990000  0  5G27G 2G15G26G13
  21234502.6284    3860518.61747   3006613.57962
  20844851.7764   -2012434.71247  -1548255.34663
  23850754.7844   -2249733.20345    106879.36061
  22562467.2694   -7216471.45046  -5557795.06761
  21711252.2844  -12929636.69746  -9133353.28461
 93  6 11 18 26 29.9990000  0  5G27G 2G15G26G13
  21245481.5114    3918219.52547   3051575.30362
  20843941.9174   -2017210.10847  -1551976.43163
  23854187.2924   -2231705.61645    120926.81561
  22558335.9404   -7238172.82346  -5574705.22861
  21690656.3004  -13037862.18546  -9217684.75361
 93  6 11 18 26 59.9990000  0  5G27G 2G15G26G13
  21256544.378     3976347.756 7   3096870.00122
  20843061.8314   -2021839.28647  -1555583.58563
  23857715.362    -2213153.034 4    135383.34721
  22554304.1054   -7259355.64746  -5591211.33361
  21670137.597   -13145695.923 6  -9301710.98821
 93  6 11 18 27 29.9990000  0  5G27G 2G15G26G13
  21267685.6834    4034893.08747   3142489.71862
  20842212.9014   -2026299.52647  -1559059.09963
  23861346.3474   -2194072.79545    150251.05261
  22550372.2534   -7280014.51846  -5607309.16261
  21649691.6594  -13253132.41146  -9385427.66061
 93  6 11 18 27 59.9990000  0  5G27G 2G15G26G13
  21278903.0974    4093847.22947   3188427.99262
  20841397.5424   -2030591.55747  -1562403.53463
  23865080.8234   -2174465.64645    165529.34761
  22546541.7614   -7300151.18446  -5623000.08661
  21629324.4254  -13360168.79346  -9468832.57161
 93  6 11 18 28 29.9990000  0  5G27G 2G15G26G13
  21290202.1834    4153215.48347   3234688.93862
  20840611.0654   -2034713.66447  -1565615.56263
  23868912.237    -2154329.816 5    181219.57321
  22542810.8944   -7319757.14446  -5638277.46261
  21609030.6754  -13466800.61646  -9551922.23261
 93  6 11 18 28 59.9990000  0  5G27G 2G15G26G13
  21301575.1204    4212978.71947   3281257.67262
  20839858.8154   -2038680.90447  -1568706.91463
  23872844.5114   -2133669.66945    197318.37961
  22539175.0584   -7338850.61946  -5653155.49261
  21588817.2374  -13573028.23146  -9634696.93561
 93  6 11 18 29 29.9990000  0  5G27G 2G15G26G13
  21313018.190     4273111.904 7   3328114.66822
  20839133.3624   -2042487.71047  -1571673.26263
  23876874.7374   -2112486.08945    213825.03961
  22535639.3624   -7357436.28446  -5667637.82661
  21568681.237   -13678849.208 6  -9717154.76921
 93  6 11 18 29 59.9990000  0  5G27G 2G15G26G13
  21324531.925     4333621.301 7   3375264.82422
  20838438.9094   -2046138.47647  -1574518.02663
  23881007.8314   -2090774.89745    230742.82761
  22532197.6674   -7375519.74446  -5681728.84961
  21548621.9644  -13784256.17346  -9799290.00361
 93  6 11 18 30 29.9990000  0  5G27G 2G15G26G13
  21336120.081     4394509.685 7   3422710.29922
  20837774.2454   -2049626.68247  -1577236.10063
  23885239.9644   -2068540.02445    248068.69061
  22528854.8004   -7393102.25346  -5695429.51061
  21528642.620   -13889249.748 6  -9881103.11621
 93  6 11 18 30 59.9990000  0  4G27G 2G26G13
  21347776.987     4455773.832 6   3470448.56122
  20837142.7454   -2052943.61047  -1579820.72263
  22525606.5264   -7410170.66846  -5708729.58861
  21508741.1594  -13993825.66646  -9962590.78361
 93  6 11 18 31 29.9990000  0  4G27G 2G26G13
  21359508.417     4517421.468 6   3518485.64822
  20836546.2224   -2056080.73147  -1582265.22963
  22522454.7534   -7426716.74346  -5721622.63461
  21488922.8234  -14097979.54346 -10043749.58561
 93  6 11 18 31 59.9990000  0  4G27G 2G26G13
  21371313.214     4579461.520 6   3566828.52122
  20835981.3084   -2059049.20547  -1584578.32463
  22519408.683    -7442743.385 6  -5734110.93521
  21469180.0034  -14201715.87746 -10124583.02861
 93  6 11 18 32 29.9990000  0  4G27G 2G26G13
  21383195.167     4641903.013 6   3615484.19422
  20835451.5504   -2061836.92547  -1586750.56763
  22516457.0584   -7458245.03946  -5746190.15261
  21449521.698   -14305025.683 6 -10205084.10521
 93  6 11 18 32 59.9990000  0  4G27G 2G26G13
  21395152.870     4704730.031 7   3664440.28522
  20834950.4804   -2064458.05047  -1588793.01163
  22513608.1444   -7473232.65946  -5757868.82661
  21429947.0734  -14407908.96547 -10285252.84961
 93  6 11 18 33 29.9990000  0  4G27G 2G26G13
  21407181.573     4767941.480 6   3713695.92622
  20834479.2694   -2066934.33547  -1590722.58163
  22510847.1444   -7487724.19346  -5769160.93061
  21410447.839   -14510364.327 6 -10365088.13821
 93  6 11 18 33 59.9990000  0  4G27G 2G26G13
  21419280.292     4831527.578 6   3763243.51322
  20834032.4564   -2069282.01647  -1592551.94263
  22508185.144    -7501711.515 6  -5780060.14121
  21391031.097   -14612392.939 6 -10444590.89321
 93  6 11 18 34 29.9990000  0  4G27G 2G26G13
  21431451.9954    4895478.70847   3813075.53162
  20833613.1754   -2071493.84747  -1594275.44763
  22505619.5894   -7515180.31346  -5790555.31461
  21371700.6204  -14713985.27346 -10523753.68861
 93  6 11 18 34 59.9990000  0  4G27G 2G26G13
  21443686.737     4959785.925 6   3863185.01822
  20833218.6444   -2073572.51547  -1595895.18463
  22503162.0034   -7528125.03346  -5800642.12161
  21352449.4954  -14815142.64146 -10602577.54461
 93  6 11 18 35 29.9990000  0  4G27G 2G26G13
  21455993.948     5024458.549 6   3913579.23322
  20832851.2304   -2075502.49747  -1597399.06263
  22500797.4484   -7540529.21746  -5810307.73261
  21333283.9484  -14915865.21746 -10681062.59761
 93  6 11 18 35 59.9990000  0  4G27G 2G26G13
  21468370.792     5089492.033 6   3964254.64222
  20832516.7844   -2077255.16247  -1598764.78663
  22498545.730    -7552368.414 6  -5819533.07721
  21314201.6204  -15016144.30346 -10759202.09461
 93  6 11 18 36 29.9990000  0  4G27G 2G26G13
  21480813.503     5154877.010 6   4015203.93822
  20832220.0264   -2078816.98447  -1599981.79263
  22496399.7064   -7563652.99946  -5828326.28161
  21295202.7694  -15115978.19646 -10836994.69361
 93  6 11 18 36 59.9990000  0  4G27G 2G26G13
  21493322.730     5220613.629 6   4066427.23122
  20831958.0114   -2080198.53247  -1601058.32363
  22494353.6514   -7574396.33446  -5836697.70361
  21276290.026   -15215371.252 6 -10914443.76221
 93  6 11 18 37 29.9990000  0  4G27G 2G26G13
  21505897.112     5286699.833 6   4117922.93322
  20831723.9564   -2081414.85547  -1602006.09763
  22492410.3004   -7584603.76246  -5844651.56261
  21257458.659   -15314322.118 6 -10991548.28421
 93  6 11 18 37 59.9990000  0  4G27G 2G26G13
  21518538.120     5353127.199 6   4169684.48822
  20831520.7614   -2082485.21447  -1602840.14963
  22490566.925    -7594303.825 6  -5852210.06221
  21238713.4404  -15412828.98146 -11068306.81361
 93  6 11 18 38 29.9990000  0  4G27G 2G26G13
  21531247.855     5419917.293 6   4221728.67622
  20831346.5194   -2083419.43847  -1603568.11363
  22488809.8004   -7603528.26346  -5859397.94261
  21220054.128   -15510893.752 6 -11144720.87121
 93  6 11 18 38 59.9990000  0  4G27G 2G26G13
  21544031.206     5487091.318 6   4274072.02822
  20831193.1364   -2084216.02647  -1604188.84163
  22487143.3704   -7612277.90646  -5866215.85561
  21201476.7844  -15608507.14846 -11220783.19361
 93  6 11 18 39 29.9990000  0  4G27G 2G26G13
  21556889.1054    5554652.69446   4326717.22861
  20831067.0034   -2084863.14647  -1604693.09163
  22485566.6514   -7620559.74246  -5872669.25461
  21182989.6754  -15705664.37546 -11296490.06761
 93  6 11 18 39 59.9990000  0  4G27G 2G26G13
  21569818.800     5622603.868 6   4379666.15622
  20830978.3314   -2085339.45647  -1605064.24463
  22484081.472    -7628385.127 6  -5878766.96821
  21164586.284   -15802370.735 6 -11371845.62021
 93  6 11 18 40 29.9990000  0  4G27G 2G26G13
  21582823.2304    5690943.60646   4432917.85462
  20830922.7534   -2085629.84547
  22482684.7614   -7635736.22546  -5884495.10261
  21146269.6984  -15898622.40047 -11446846.86361
 93  6 11 18 40 59.9990000  0  4G27G 2G26G13
  21595893.550     5759642.391 6   4486449.33322
  20830904.1514   -2085738.78047
  22481376.9954   -7642595.88046  -5889840.29761
  21128041.4804  -15994417.26047 -11521492.15461
 93  6 11 18 41 29.9990000  0  4G27G 2G26G13
  21609035.253     5828688.309 6   4540251.29622
  20830915.4724   -2085664.51747
  22480165.5654   -7648964.71746  -5894803.04161
  21109899.089   -16089753.562 7 -11595780.14021
 93  6 11 18 41 59.9990000  0  4G27G 2G26G13
  21622237.339     5898069.605 6   4594314.60522
  20830966.4804   -2085406.26347
  22479048.7924   -7654824.02846  -5899368.76261
  21091844.7614  -16184624.28547 -11669705.32361
 93  6 11 18 42 29.9990000  0  4G27G 2G26G13
  21635500.636     5967762.878 6   4648621.00722
  20831043.4564   -2084991.63547  -1604793.22863
  22478032.183    -7660177.268 6  -5903540.12921
  21073879.0114  -16279031.58247 -11743269.40361
 93  6 11 18 42 59.9990000  0  4G27G 2G26G13
  21648823.206     6037772.532 6   4703173.94622
  20831153.7614   -2084428.45747  -1604354.39263
  22477105.714    -7665035.917 6  -5907326.10721
  21056002.7764  -16372974.91047 -11816471.94061
 93  6 11 18 43 29.9990000  0  4G27G 2G26G13
  21662211.847     6108122.206 6   4757991.82222
  20831285.3004   -2083709.39947  -1603794.09263
  22476280.1444   -7669398.88646  -5910725.83461
  21038216.940   -16466450.929 7 -11889310.35421
 93  6 11 18 43 59.9990000  0  4G27G 2G26G13
  21675661.5974    6178810.60246   4813073.65461
  20831452.8314   -2082847.42947  -1603122.43163
  22475542.8394   -7673264.80046  -5913738.25861
  21020516.9804  -16559461.00247 -11961785.68661
 93  6 11 18 44 29.9990000  0  4G27G 2G26G13
  21689177.776     6249854.649 6   4868432.60222
  20831642.7454   -2081854.60847  -1602348.81563
  22474899.308    -7676650.545 6  -5916376.52121
  21002906.042   -16652003.238 7 -12033896.47421
 93  6 11 18 44 59.9990000  0  4G27G 2G26G13
  21702770.9174    6321267.77546   4924079.16062
  20831859.8474   -2080719.48047  -1601464.30663
  22474343.214    -7679553.982 6  -5918638.95921
  20985387.3314  -16744071.55347 -12105637.97161
 93  6 11 18 45 29.9990000  0  4G27G 2G26G13
  21716424.480     6393034.727 6   4980001.41222
  20832101.6204   -2079439.55047  -1600466.96263
  22473885.581    -7681966.010 6  -5920518.48921
  20967956.956   -16835664.728 7 -12177009.23321
 93  6 11 18 45 59.9990000  0  4G27G 2G26G13
  21730147.495     6465139.862 6   5036187.17121
  20832374.3554   -2078009.16147  -1599352.38263
  22473522.0584   -7683883.14246  -5922012.37061
  20950618.480   -16926781.008 7 -12248008.87621
 93  6 11 18 46 29.9990000  0  4G27G 2G26G13
  21743933.1594    6537581.79946   5092635.39961
  20832677.8784   -2076403.07947  -1598100.89163
  22473251.5264   -7685301.61646  -5923117.67961
  20933369.995   -17017419.507 7 -12318636.23521
 93  6 11 18 46 59.9990000  0  4G27G 2G26G13
  21757780.2764    6610347.58446   5149335.96761
  20833022.5504   -2074601.17347  -1596696.82363
  22473078.8704   -7686208.19346  -5923824.13161
  20916213.1834  -17107583.42347 -12388893.77661
 93  6 11 18 47 29.9990000  0  4G27G 2G26G13
  21771687.214     6683434.214 6   5206286.54021
  20833403.8704   -2072595.68847  -1595134.11063
  22473005.105    -7686588.560 6
  20899145.2304  -17197267.19347 -12458777.18861
 93  6 11 18 47 59.9990000  0  4G27G 2G26G13
  21785658.003     6756844.728 6   5263489.49421
  20833820.9724   -2070399.16847  -1593422.53263
  22473030.1514   -7686453.72046
  20882170.589   -17286467.578 7 -12528283.93021
 93  6 11 18 48 29.9990000  0  4G27G 2G26G13
  21799690.323     6830583.736 6   5320948.41121
  20834272.1904   -2068029.77847  -1591576.26763
  22473152.784    -7685812.965 6  -5923516.22021
  20865288.581   -17375180.818 7 -12597411.09121
 93  6 11 18 48 59.9990000  0  4G27G 2G26G13
  21813784.073     6904653.314 6   5378664.92221
  20834752.2764   -2065511.80247  -1589614.21763
  22473371.480    -7684669.380 6  -5922625.14321
  20848502.550   -17463403.053 7 -12666155.64421
 93  6 11 18 49 29.9990000  0  4G27G 2G26G13
  21827940.980     6979038.496 6   5436627.34521
  20835254.1674   -2062874.73547  -1587559.36463
  22473678.4564   -7683053.12846  -5921365.73361
  20831805.597   -17551141.990 7 -12734523.60721
 93  6 11 18 49 59.9990000  0  4G27G 2G26G13
  21842159.753     7053763.411 6   5494854.51221
  20835781.3944   -2060103.87847  -1585400.25363
  22474075.331    -7680972.335 6  -5919744.37021
  20815204.175   -17638386.992 7 -12802506.68821
 93  6 11 18 50 29.9990000  0  4G27G 2G26G13
  21856444.995     7128830.833 6   5553348.56021
  20836338.5734   -2057168.78147  -1583113.18063
  22474560.7924   -7678423.47946  -5917758.26461
  20798695.940   -17725136.568 7 -12870103.71121
 93  6 11 18 50 59.9990000  0  4G27G 2G26G13
  21870790.9724    7204230.96246   5612101.84761
  20836930.8944   -2054054.70947
  22475135.4094   -7675418.16646
  20782280.714   -17811394.085 7 -12937317.32721
 93  6 11 18 51 29.9990000  0  4G27G 2G26G13
  21885201.183     7279947.788 6   5671101.92321
  20837561.8624   -2050751.11447  -1578112.41063
  22475790.7304   -7671966.46346
  20765961.355   -17897161.466 7 -13004149.00521
 93  6 11 18 51 59.9990000  0  4G27G 2G26G13
  21899672.5034    7355982.09746   5730349.38061
  20838227.8704   -2047239.25047  -1575375.90663
  22476533.1444   -7668054.80546  -5912500.84961
  20749734.222   -17982430.839 7 -13070592.63621
 93  6 11 18 52 29.9990000  0  4G27G 2G26G13
  21914193.940     7432306.028 6   5789822.53321
  20838932.5114   -2043533.37047  -1572488.21163
  22477364.019    -7663682.427 6  -5909093.83521
  20733601.948   -18067205.708 7 -13136650.93821
 93  6 11 18 52 59.9990000  0  4G27G 2G26G13
  21928772.6834    7508920.40446   5849521.99161
  20839673.8394   -2039651.67947  -1569463.52362
  22478286.2534   -7658846.21546  -5905325.39461
  20717565.862   -18151478.932 7 -13202318.34621
 93  6 11 18 53 29.9990000  0  4G27G 2G26G13
  21943409.1984    7585826.44946   5909448.72261
  20840443.6284   -2035599.28347  -1566305.81862
  22479294.9484   -7653545.22246  -5901194.76361
  20701622.237   -18235253.798 7 -13267597.42221
 93  6 11 18 53 59.9990000  0  4G27G 2G26G13
  21958102.011     7663043.687 6   5969617.94721
  20841244.5194   -2031386.27547  -1563022.96563
  22480394.151    -7647769.829 6  -5896694.49521
  20685776.112   -18318526.814 7 -13332485.45221
 93  6 11 18 54 29.9990000  0  4G27G 2G26G13
  21972860.909     7740590.088 6   6030043.65221
  20842075.0424   -2027026.64447  -1559625.85563
  22481580.769    -7641520.763 6  -5891825.12021
  20670026.034   -18401297.527 7 -13396982.07321
 93  6 11 18 54 59.9990000  0  4G27G 2G26G13
  21987680.714     7818484.967 6   6090740.92021
  20842935.5034   -2022500.86347  -1556099.29263
  22482864.784    -7634786.375 6  -5886577.56221
  20654373.862   -18483555.474 7 -13461079.13021
 93  6 11 18 55 29.9990000  0  4G27G 2G26G13
  22002567.019     7896707.340 6   6151693.36921
  20843830.0264   -2017805.51047  -1552440.58863
  22484233.808    -7627573.110 6  -5880956.87621
  20638815.620   -18565311.392 7 -13524785.00721
 93  6 11 18 55 59.9990000  0  4G27G 2G26G13
  22017514.2844    7975247.52846   6212893.44761
  20844754.9954   -2012937.16947  -1548647.08063
  22485702.3314   -7619875.61246  -5874958.85461
  20623355.050   -18646556.690 7 -13588093.00121
 93  6 11 18 56 29.9990000  0  4G27G 2G26G13
  22032513.8394    8054076.47446   6274318.53261
  20845720.3624   -2007874.94147  -1544702.49563
  22487256.6984   -7611705.20446  -5868592.31961
  20607992.737   -18727290.421 7 -13651002.36121
 93  6 11 18 56 59.9980000  0  4G27G 2G26G13
  22047562.217     8133165.380 6   6335946.19321
  20846722.9754   -2002611.82347  -1540601.37563
  22488899.7404   -7603067.57046  -5861861.70861
  20592726.131   -18807508.636 7 -13713510.02021
 93  6 11 18 57 29.9980000  0  4G27G 2G26G13
  22062665.357     8212516.612 6   6397778.27221
  20847756.8504   -1997169.28547  -1536360.44563
  22490631.459    -7593976.966 6  -5854778.16621
  20577559.959   -18887213.762 7 -13775617.87421
 93  6 11 18 57 59.9980000  0  4G27G 2G26G13
  22077818.3424    8292145.68646   6459826.84161
  20848824.1234   -1991565.62447  -1531993.97063
  22492443.9124   -7584444.45946  -5847350.25961
  20562489.412   -18966406.216 7 -13837326.24021
 93  6 11 18 58 29.9980000  0  4G27G 2G26G13
  22093026.6704    8372067.24246   6522103.32061
  20849919.2564   -1985803.37347  -1527503.91663
  22494342.756    -7574469.343 6  -5839577.48021
  20547516.865   -19045087.944 7 -13898636.64521
 93  6 11 18 58 59.9980000  0  4G27G 2G26G13
  22108292.381     8452307.102 6   6584627.83021
  20851041.6474   -1979899.80547  -1522903.74963
  22496327.7014   -7564057.74946  -5831464.59361
  20532641.998   -19123257.158 7 -13959547.68821
 93  6 11 18 59 29.9980000  0  4G27G 2G26G13
  22123627.7094    8532883.47946   6647414.55961
  20852196.0684   -1973842.97947  -1518184.15163
  22498390.3814   -7553197.22446  -5823001.85861
  20517866.5924  -19200901.78847 -14020049.96261
 93  6 11 18 59 59.9980000  0  4G27G 2G26G13
  22139022.170     8613785.096 6   6710454.71121
  20853382.8424   -1967611.71647  -1513328.63563
  22500543.2874   -7541878.59146  -5814182.20261
  20503190.3424  -19278020.62147 -14080142.51961
 93  6 11 19  0 29.9980000  0  4G27G 2G26G13
  22154473.5614    8694982.66946   6773725.49361
  20854600.6784   -1961206.06647  -1508337.23463
  22502787.4124   -7530110.11446  -5805011.98561
  20488614.162   -19354619.627 7 -14139830.02621
 93  6 11 19  0 59.9980000  0  4G27G 2G26G13
  22169980.7724    8776458.58146   6837213.15661
  20855853.1474   -1954624.43747  -1503208.69763
  22505107.498    -7517890.275 6  -5795490.06021
  20474138.201   -19430695.328 7 -14199109.75721
 93  6 11 19  1 29.9980000  0  4G27G 2G26G13
  22185532.2324    8858193.73346   6900902.82261
  20857140.0534   -1947858.88247  -1497936.85363
  22507518.350    -7505215.218 6  -5785613.42521
  20459759.295   -19506248.860 7 -14257982.60221
 93  6 11 19  1 59.9980000  0  4G27G 2G26G13
  22201135.686     8940179.115 6   6964787.46521
  20858462.8974   -1940907.93647  -1492520.53263
  22510014.264    -7492091.084 6  -5775386.85921
  20445483.170   -19581281.825 7 -14316449.81421
 93  6 11 19  2 29.9980000  0  4G27G 2G26G13
  22216782.990     9022418.614 6   7028870.12821
  20859820.6474   -1933772.44747  -1486960.42263
  22512598.4904   -7478518.34046  -5764810.72461
  20431304.404   -19655790.896 7 -14374508.80321
 93  6 11 19  2 59.9980000  0  4G27G 2G26G13
  22232484.318     9104914.722 6   7093152.73321
  20861215.3574   -1926439.29747  -1481246.29163
  22515272.2954   -7464497.60146  -5753885.51861
  20417227.053   -19729768.443 7 -14432153.61121
 93  6 11 19  3 29.9980000  0  4G27G 2G26G13
  22248231.0684    9187672.43646   7157639.20361
  20862648.5924   -1918904.78047  -1475375.25263
  22518019.029    -7450043.376 6  -5742622.50221
  20403248.9284  -19803219.46047 -14489388.14862
 93  6 11 19  3 59.9980000  0  4G27G 2G26G13
  22264028.9204    9270690.90346   7222328.85861
  20864122.0224   -1911174.84347  -1469351.92863
  22520855.201    -7435155.627 6  -5731021.70021
  20389370.248   -19876148.783 7 -14546216.15421
 93  6 11 19  4 29.9980000  0  4G27G 2G26G13
  22279877.9124    9353991.31046   7287238.18661
  20865630.1704   -1903243.75147  -1463171.87163
  22523768.256    -7419832.118 6  -5719081.34921
  20375593.209   -19948548.442 7 -14602631.44721
 93  6 11 19  4 59.9980000  0  4G27G 2G26G13
  22295789.428     9437578.040 6   7352370.61821
  20867177.6074   -1895111.28947  -1456834.89763
  22526769.3184   -7404077.06646  -5706804.72661
  20361917.209   -20020417.613 7 -14658633.36322
 93  6 11 19  5 29.9980000  0  4G27G 2G26G13
  22311750.4674    9521463.87946   7417736.13961
  20868762.0764   -1886786.89247  -1450348.36263
  22529850.3184   -7387887.86046  -5694189.77761
  20348342.2404  -20091751.39547 -14714218.10661
 93  6 11 19  5 59.9980000  0  4G27G 2G26G13
  22327766.6544    9605632.48546   7483322.00861
  20870378.9514   -1878298.00047  -1443733.65663
  22533008.561    -7371275.710 6  -5681245.28121
  20334867.701   -20162557.142 7 -14769391.37822
 93  6 11 19  6 29.9980000  0  4G27G 2G26G13
  22343835.9044    9690078.00746   7549123.62861
  20872022.4514   -1869654.24347  -1436998.28063
  22536247.467    -7354251.696 6  -5667979.84621
  20321498.2564  -20232830.99947 -14824150.20562
 93  6 11 19  6 59.9980000  0  4G27G 2G26G13
  22359955.5294    9774785.20946   7615129.17561
  20873695.0844   -1860861.82347  -1430147.05963
  22539566.139    -7336813.713 6  -5654391.84821
  20308225.959   -20302569.676 7 -14878492.00222
 93  6 11 19  7 29.9980000  0  4G27G 2G26G13
  22376123.4044    9859744.50046   7681331.14761
  20875395.592    -1851927.639 7  -1423185.37223
  22542963.365    -7318958.073 6  -5640478.40021
  20295055.6934  -20371772.81947 -14932416.49861
 93  6 11 19  7 59.9980000  0  4G27G 2G26G13
  22392334.2404    9944941.38346   7747718.24361
  20877121.9204   -1842842.42547  -1416105.99963
  22546443.4124   -7300687.59746  -5626241.69461
  20281987.7324  -20440443.49047 -14985926.08661
 93  6 11 19  8 29.9980000  0  4G27G 2G26G13
  22408593.8424   10030385.18046   7814297.74461
  20878889.4984   -1833571.71047  -1408882.07663
  22550000.225    -7281995.749 6  -5611676.68021
  20269025.498   -20508574.418 7 -15039015.08921
 93  6 11 19  8 59.9980000  0  4G27G 2G26G13
  22424899.420    10116063.461 6   7881059.95921
  20880693.9284   -1824100.27147  -1401501.74663
  22553632.850    -7262881.744 6  -5596782.69021
  20256161.357   -20576169.933 7 -15091686.89621
 93  6 11 19  9 29.9980000  0  4G27G 2G26G13
  22441248.1934   10201979.26046   7948007.26761
  20882536.1934   -1814412.60447  -1393952.93563
  22557351.5764   -7243351.35746  -5581564.24961
  20243400.920   -20643227.354 7 -15143939.40521
 93  6 11 19  9 59.9980000  0  4G27G 2G26G13
  22457639.826    10288137.098 6   8015143.14321
  20884425.326    -1804491.829 7  -1386222.47723
  22561142.5294   -7223417.67446  -5566031.54261
  20230742.2644  -20709744.88847 -15195771.22861
 93  6 11 19 10 29.9980000  0  4G27G 2G26G13
  22474085.639    10374536.711 6   8082467.44421
  20886352.8974   -1794347.86947  -1378318.10663
  22565018.4044   -7203080.58146  -5550184.51261
  20218186.8424  -20775721.58047 -15247181.61361
 93  6 11 19 10 59.9980000  0  4G27G 2G26G13
  22490569.3184   10461171.11746   8149974.69961
  20888318.2404   -1784008.60747  -1370261.55063
  22568960.2724   -7182345.17246  -5534027.09661
  20205734.959   -20841155.643 7 -15298169.17121
 93  6 11 19 11 29.9980000  0  4G27G 2G26G13
  22507103.967    10548057.044 6   8217677.94421
  20890324.3504   -1773484.14647  -1362060.68963
  22572980.9984   -7161217.26446  -5517563.83461
  20193388.3034  -20906044.67547 -15348732.03361
 93  6 11 19 11 59.9980000  0  4G27G 2G26G13
  22523681.7174   10635186.21045   8285570.70161
  20892355.7954   -1762794.50147  -1353731.10663
  22577077.6544   -7139693.09346  -5500791.78861
  20181142.076   -20970394.994 7 -15398875.11121
 93  6 11 19 12 29.9980000  0  4G27G 2G26G13
  22540311.193    10722558.777 6   8353653.11721
  20894418.4044   -1751962.74247  -1345290.79063
  22581250.272    -7117772.321 6  -5483710.71621
  20168999.2094  -21034204.36347 -15448596.68261
 93  6 11 19 12 59.9980000  0  4G27G 2G26G13
  22556983.092    10810168.442 6   8421920.31721
  20896509.5294   -1740976.06047  -1336729.75663
  22585497.693    -7095456.966 6  -5466322.17721
  20156959.928   -21097470.333 7 -15497894.82421
 93  6 11 19 13 29.9980000  0  4G27G 2G26G13
  22573695.9044   10897998.19946   8490358.98961
  20898631.4284   -1729822.29547  -1328038.52663
  22589818.037    -7072756.946 6  -5448633.90521
  20145024.334   -21160203.694 7 -15546777.93521
 93  6 11 19 13 59.9980000  0  4G27G 2G26G13
  22590454.545    10986051.580 6   8558971.92821
  20900791.6234   -1718478.74947  -1319199.41463
  22594209.834    -7049665.581 6  -5430640.68421
  20133190.053   -21222388.693 7 -15595233.75321
 93  6 11 19 14 29.9980000  0  4G27G 2G26G13
  22607251.482    11074323.891 6   8627755.46521
  20902985.9284   -1706934.19447  -1310203.67163
  22598678.3894   -7026189.21146  -5412347.46161
  20121459.5764  -21284025.40947 -15643262.34561
 93  6 11 19 14 59.9980000  0  4G27G 2G26G13
  22624087.4434   11162795.31846   8696694.18061
  20905226.1934   -1695172.12847  -1301038.43963
  22603220.693    -7002318.988 6  -5393747.34321
  20109833.3974  -21345118.55847 -15690867.38261
 93  6 11 19 15 29.9980000  0  4G27G 2G26G13
  22640961.381    11251483.960 5   8765802.11221
  20907501.576    -1683203.422 7  -1291712.19123
  22607837.7564   -6978053.52345  -5374839.23761
  20098310.8974  -21405671.53847 -15738051.50061
 93  6 11 19 15 59.9980000  0  4G27G 2G26G13
  22657883.514    11340405.261 5   8835091.34421
  20909819.936    -1671034.883 7  -1282230.23523
  22612533.8814   -6953382.12146  -5355614.82761
  20086892.2254  -21465678.49447 -15784810.15161
 93  6 11 19 16 29.9980000  0  4G27G 2G26G13
  22674848.3894   11429545.58845   8904551.24461
  20912168.1154   -1658684.88847  -1272606.88863
  22617305.3344   -6928301.25945  -5336071.35161
  20075577.1154  -21525149.13747 -15831150.88561
 93  6 11 19 16 59.9980000  0  4G27G 2G26G13
  22691854.365    11518931.750 5   8974202.70121
  20914555.2874   -1646136.74947  -1262829.13463
  22622157.936    -6902799.414 6  -5316199.82721
  20064363.725   -21584068.921 7 -15877062.38921
 93  6 11 19 17 29.9980000  0  4G27G 2G26G13
  22708918.600    11608581.798 5   9044059.78821
  20916981.2094   -1633397.17147  -1252902.19863
  22627086.1934   -6876893.36145  -5296013.34061
  20053257.928   -21642433.237 7 -15922541.05221
 93  6 11 19 17 59.9980000  0  4G27G 2G26G13
  22726019.1474   11698459.00845   9114093.89461
  20919440.2174   -1620473.18747  -1242831.56963
  22632089.295    -6850604.505 5  -5275528.56521
  20042255.5534  -21700251.46147 -15967594.19761
 93  6 11 19 18 29.9980000  0  4G27G 2G26G13
  22743162.3574   11788556.52745   9184299.65161
  20921934.7724   -1607359.83747  -1232613.38863
  22637165.9204   -6823941.32346  -5254752.10861
  20031356.7794  -21757522.74847 -16012221.16261
 93  6 11 19 18 59.9980000  0  4G27G 2G26G13
  22760351.756    11878878.592 5   9254680.38621
  20924464.756    -1594060.929 7  -1222250.62223
  22642303.772    -6796918.038 5  -5233695.05521
  20020563.5454  -21814243.28947 -16056418.96561
 93  6 11 19 19 29.9980000  0  4G27G 2G26G13
  22777578.311    11969398.417 5   9325215.21421
  20927032.3114   -1580581.06647  -1211746.84163
  22647513.592    -6769557.154 6  -5212374.94421
  20009874.4824  -21870415.98147 -16100189.87262
 93  6 11 19 19 59.9980000  0  4G27G 2G26G13
  22794837.654    12060103.719 5   9395894.55221
  20929630.4514   -1566913.42647  -1201096.74663
  22652785.7954   -6741854.70446  -5190788.67961
  19999289.389   -21926039.661 7 -16143532.97321
 93  6 11 19 20 29.9980000  0  4G27G 2G26G13
  22812138.022    12151004.196 5   9466726.00121
  20932272.3424   -1553052.75247  -1190296.23663
  22658124.7484   -6713809.88245  -5168935.63361
  19988808.8734  -21981113.75347 -16186447.83961
 93  6 11 19 20 59.9980000  0  4G27G 2G26G13
  22829467.951    12242086.268 5   9537698.94621
  20934944.2954   -1539000.00947  -1179346.05962
  22663522.404    -6685428.895 6  -5146820.64121
  19978431.9204  -22035643.45447 -16228938.49861
 93  6 11 19 21 29.9980000  0  4G27G 2G26G13
  22846836.506    12333350.556 5   9608813.87421
  20937659.4984   -1524726.59547  -1168223.92962
  22668990.9674   -6656684.16645  -5124422.19361
  19968160.9434  -22089616.16347 -16270995.14061
 93  6 11 19 21 59.9980000  0  4G27G 2G26G13
  22864238.412    12424805.841 5   9680077.63121
  20940414.5294   -1510243.64447  -1156938.52062
  22674535.2874   -6627555.17045  -5101724.36661
  19957996.9594  -22143031.56047 -16312617.50461
 93  6 11 19 22 29.9980000  0  4G27G 2G26G13
  22881678.873    12516444.155 5   9751484.00521
  20943209.9754   -1495556.03847  -1145493.63262
  22680152.779    -6598045.870 6  -5078730.14321
  19947935.8184  -22195896.79247 -16353811.17762
 93  6 11 19 22 59.9980000  0  4G27G 2G26G13
  22899150.451    12608260.116 5   9823028.79421
  20946043.295    -1480669.176 7  -1133893.50023
  22685833.5294   -6568163.78245  -5055445.46561
  19937981.0764  -22248217.48347 -16394580.53161
 93  6 11 19 23 29.9980000  0  4G27G 2G26G13
  22916659.662    12700271.006 5   9894725.47621
  20948915.1314   -1465579.40247  -1122135.24562
  22691592.693    -6537910.895 5  -5031871.84921
  19928128.4674  -22299989.04247 -16434921.99361
 93  6 11 19 23 59.9980000  0  4G27G 2G26G13
  22934207.686    12792489.918 5   9966584.25921
  20951826.3574   -1450291.82647  -1110222.86562
  22697417.7404   -6507299.04345  -5008018.52461
  19918380.7644  -22351208.19547 -16474833.01261
 93  6 11 19 24 29.9980000  0  4G27G 2G26G13
  22951795.7484   12884916.26145  10038604.66261
  20954776.0924   -1434789.96747  -1098143.50862
  22703310.365    -6476343.559 5  -4983897.43521
  19908739.9044  -22401875.72547 -16514314.18562
 93  6 11 19 24 59.9980000  0  4G27G 2G26G13
  22969420.2564   12977544.35945  10110782.28561
  20957764.3424   -1419082.68347  -1085904.08362
  22709264.6624   -6445055.32445  -4959517.04861
  19899203.0294  -22451994.63747 -16553367.86762
 93  6 11 19 25 29.9980000  0  4G27G 2G26G13
  22987083.5764   13070367.20345  10183111.64361
  20960794.0764   -1403168.50347  -1073503.43762
  22715282.5844   -6413423.10145  -4934868.61861
  19889773.9674  -22501557.34947 -16591988.15262
 93  6 11 19 25 59.9980000  0  4G27G 2G26G13
  23004784.7324   13163364.79945  10255577.18761
  20963860.4984   -1387046.54647  -1060940.87862
  22721365.3574   -6381449.19645  -4909953.95961
  19880445.6544  -22550571.13247 -16630180.70162
 93  6 11 19 26 29.9980000  0  4G27G 2G26G13
  23022512.873    13256538.983 5  10328180.33421
  20966968.951    -1370703.309 7  -1048205.90222
  22727520.1704   -6349132.04945  -4884771.84561
  19871221.5764  -22599033.84447 -16667943.84162
 93  6 11 19 26 59.9980000  0  4G27G 2G26G13
  23040271.5764   13349881.17245  10400914.39561
  20970120.1934   -1354151.01447  -1035308.02962
  22733733.0844   -6316470.61945  -4859321.42561
  19862104.475   -22646947.278 7 -16705278.97022
 93  6 11 19 27 29.9980000  0  4G27G 2G26G13
  23058070.7724   13443393.39245  10473780.92361
  20973311.7324   -1337389.02947  -1022246.75162
  22740013.092    -6283471.490 5  -4833607.90021
  19853091.1234  -22694314.13147 -16742188.19062
 93  6 11 19 27 59.9980000  0  4G27G 2G26G13
  23075899.9514   13537086.64945  10546788.53161
  20976540.0844   -1320417.03747  -1009021.84362
  22746353.6784   -6250151.29245  -4807644.17961
  19844182.1624  -22741129.85247 -16778667.96562
 93  6 11 19 28 29.9980000  0  4G27G 2G26G13
  23093764.0064   13630958.80945  10619935.54161
  20979808.451    -1303245.932 7   -995641.77822
  22752752.2094   -6216518.12945  -4781436.57861
  19835379.2174  -22787388.27047 -16814713.46461
 93  6 11 19 28 59.9980000  0  4G27G 2G26G13
  23111660.4984   13724982.80045  10693200.86261
  20983110.4284   -1285898.81147   -982124.55262
  22759208.623    -6182585.751 5  -4754995.82921
  19826682.9044  -22833095.36247 -16850329.37362
 93  6 11 19 29 29.9980000  0  4G27G 2G26G13
  23129575.006    13819150.310 5  10766578.00521
  20986443.0454   -1268379.80747   -968473.39462
  22765722.2644   -6148367.77645  -4728332.55861
  19818087.7954  -22878256.61247 -16885519.94661
 93  6 11 19 29 59.9980000  0  4G27G 2G26G13
  23147523.6624   13913459.80045  10840065.80461
  20989809.178    -1250679.693 7   -954681.11422
  22772291.1864   -6113852.54845  -4701437.62861
  19809600.0614  -22922865.30147 -16920279.95361
 93  6 11 19 30 29.9980000  0  4G27G 2G26G13
  23165496.1314   14007908.30645  10913661.92461
  20993217.4364   -1232784.99847   -940737.20362
  22778916.7404   -6079031.85845  -4674304.69661
  19801214.2254  -22966923.46947 -16954610.97761
 93  6 11 19 30 59.9980000  0  4G27G 2G26G13
  23183493.7794   14102507.72245  10987375.61461
  20996659.490    -1214677.175 7   -926627.24422
  22785603.639    -6043894.833 5  -4646925.26521
  19792934.9434  -23010431.12547 -16988513.03862
 93  6 11 19 31 29.9980000  0  4G27G 2G26G13
  23201532.951    14197284.344 5  11061227.40921
  21000154.7644   -1196330.10847   -912330.84062
  22792351.756    -6008435.572 5  -4619294.73521
  19784761.725   -23053383.061 7 -17021982.05621
 93  6 11 19 31 59.9980000  0  4G27G 2G26G13
  23219602.256    14292229.740 5  11135210.70921
  21003687.732    -1177739.249 7   -897844.48022
  22799158.959    -5972651.455 5  -4591411.08921
  19776693.5614  -23095784.40547 -17055022.05561
 93  6 11 19 32 29.9980000  0  4G27G 2G26G13
  23237699.0144   14387328.23145  11209313.30861
  21007274.9904   -1158911.29947   -883173.36662
  22806028.647    -5936554.284 5  -4563283.50521
  19768727.1864  -23137645.32147 -17087640.93762
 93  6 11 19 32 59.9980000  0  4G27G 2G26G13
  23255813.0374   14482533.92245  11283499.42661
  21010891.6004   -1139902.39347   -868361.23162
  22812950.4824   -5900186.18345  -4534944.79561
  19760857.1864  -23179005.80147 -17119869.87161
 93  6 11 19 33 29.9980000  0  5G27G 2G24G26G13
  23273955.654    14577853.636 5  11357774.39021
  21014539.4904   -1120712.77547   -853408.30862
  23613150.7484         -0.33855
  22819924.912    -5863540.256 5  -4506389.60821
  19753085.2254  -23219845.84647 -17151693.27561
 93  6 11 19 33 59.9980000  0  5G27G 2G24G26G13
  23292107.053    14673254.069 5  11432112.24921
  21018223.576    -1101367.059 7   -838333.73822
  23589262.318     -125536.492 5
  22826945.0374   -5826633.46445  -4477631.15361
  19745409.5144  -23260180.57447 -17183122.92161
 93  6 11 19 34 29.9980000  0  5G27G 2G24G26G13
  23310280.803    14768762.642 5  11506534.36521
  21021937.326    -1081852.142 7   -823127.33222
  23565362.764     -251093.640 5        -0.22431
  22834017.732    -5789471.847 5  -4448674.13121
  19737834.2724  -23299992.18547 -17214144.94861
 93  6 11 19 34 59.9980000  0  5G27G 2G24G26G13
  23328482.873    14864396.600 5  11581054.20021
  21025686.467    -1062157.088 7   -807780.56122
  23541475.1934    -376642.44445    -97830.27661
  22841141.3814   -5752051.19645  -4419515.24361
  19730359.0844  -23339268.90547 -17244750.17061
 93  6 11 19 35 29.9980000  0  5G27G 2G24G26G13
  23346700.4434   14960145.71045  11655663.76861
  21029471.4124   -1042259.90647   -792276.28562
  23517589.389     -502170.759 5   -195644.33721
  22848311.779    -5714371.226 5  -4390154.32721
  19722986.2094  -23378016.05247 -17274942.74761
 93  6 11 19 35 59.9980000  0  5G27G 2G24G26G13
  23364946.9674   15056016.83145  11730368.40061
  21033298.967    -1022140.698 7   -776599.00022
  23493708.100     -627670.570 5   -293436.17221
  22855536.0454   -5676411.15845  -4360575.10961
  19715715.2174  -23416226.95547 -17304717.47061
 93  6 11 19 36 29.9980000  0  5G27G 2G24G26G13
  23383213.943    15152015.228 5  11805172.19021
  21037167.5454   -1001802.98247   -760751.43662
  23469829.701     -753133.095 5   -391198.99821
  22862813.3264   -5638157.71345  -4330767.31061
  19708545.6934  -23453902.58647 -17334075.10162
 93  6 11 19 36 59.9980000  0  5G27G 2G24G26G13
  23401502.4204   15248125.63345  11880063.25861
  21041081.654     -981248.164 7   -744734.72122
  23445964.3734    -878542.85545   -488920.65961
  22870149.8574   -5599598.29245  -4300721.09861
  19701478.4364  -23491043.98447 -17363016.43661
 93  6 11 19 37 29.9980000  0  5G27G 2G24G26G13
  23419811.881    15344348.041 4  11955041.63521
  21045034.4904    -960476.77447   -728549.24062
  23422106.0684   -1003905.91745   -586605.97061
  22877545.381    -5560744.336 5  -4270445.37621
  19694512.6544  -23527649.21447 -17391539.98461
 93  6 11 19 37 59.9980000  0  6G27G 2G24G26G12G13
  23438143.8184   15440703.45144  12030123.59061
  21049024.8654    -939514.43647   -712214.96362
  23398263.9594   -1129227.26945   -684258.78861
  22884991.342    -5521613.221 5  -4239953.67721
  23460615.2484         -0.67755
  19687650.5684  -23563712.90347 -17419641.55361
 93  6 11 19 38 29.9980000  0  6G27G 2G24G26G12G13
  23456512.8814   15537201.53044  12105316.75861
  21053048.2484    -918358.33447   -695729.69862
  23374425.7724   -1254502.83145   -781875.92161
  22892489.1704   -5482227.24845  -4209263.38661
  23438968.0374    -113759.03745
  19680890.7644  -23599233.39547 -17447319.84861
 93  6 11 19 38 59.9980000  0  6G27G 2G24G26G12G13
  23474900.2874   15633832.34644  12180613.32861
  21057111.3894    -897013.47047   -679097.36562
  23350590.1234   -1379737.63545   -879461.27661
  22900024.764    -5442615.768 5  -4178397.40421
  23417323.725     -227487.054 5
  19674233.4284  -23634217.64447 -17474580.29261
 93  6 11 19 39 29.9980000  0  6G27G 2G24G26G12G13
  23493312.451    15730594.656 4  12256012.37221
  21061208.686     -875476.107 7   -662315.01622
  23326765.318    -1504945.461 5   -977025.63621
  22907605.4364   -5402769.97945  -4147348.80661
  23395693.2254    -341180.75545        -0.02471
  19667678.1314  -23668664.18847 -17501421.74961
 93  6 11 19 39 59.9980000  0  6G27G 2G24G26G12G13
  23511748.326    15827480.102 4  12331507.36721
  21065349.1934    -853735.13547   -645374.02262
  23302937.209    -1630129.544 5  -1074571.50521
  22915233.6474   -5362675.69645  -4116106.59061
  23374059.459     -454841.710 5    -88566.92921
  19661225.928   -23702577.212 7 -17527847.47421
 93  6 11 19 40 29.9980000  0  6G27G 2G24G26G12G13
  23530206.381    15924456.671 4  12407073.33121
  21069525.9674    -831766.39947   -628255.54962
  23279121.4594   -1755281.51745  -1172092.33261
  22922913.4284   -5322329.39645  -4084668.00261
  23352440.3574    -568472.05645   -177109.99361
  19654870.9284  -23735961.79447 -17553861.42761
 93  6 11 19 40 59.9980000  0  6G27G 2G24G26G12G13
  23548671.928    16021514.257 4  12482702.46021
  21073754.3974    -809556.08347   -610948.82562
  23255319.943    -1880396.565 5  -1269584.42321
  22930642.5684   -5281710.89945  -4053017.31561
  23330820.6544    -682064.46145
  19648621.1154  -23768813.78247 -17579460.36461
 93  6 11 19 41 29.9980000  0  6G27G 2G24G26G12G13
  23567157.1624   16118655.06544  12558396.41561
  21078029.3894    -787090.68547   -593443.34362
  23231517.467    -2005478.347 5  -1367050.59321
  22938430.0844   -5240809.97345  -4021146.55961
  23309217.873     -795613.544 5        -0.23731
  19642469.7404  -23801130.69347 -17604642.36461
 93  6 11 19 41 59.9980000  0  6G27G 2G24G26G12G13
  23585660.576    16215886.390 4  12634160.90221
  21082347.607     -764381.861 7   -575748.17222
  23207724.561    -2130515.036 5  -1464481.63121
  22946259.0764   -5199654.57945  -3989077.51961
  23287610.615     -909119.303 5    -88446.19521
  19636422.1394  -23832915.33047 -17629409.60661
 93  6 11 19 42 29.9970000  0  6G27G 2G24G26G12G13
  23604181.9784   16313209.16145  12709996.65161
  21086714.2984    -741448.07047   -557877.70162
  23183942.470    -2255492.117 5  -1561866.22621
  22954136.5244   -5158254.01245  -3956817.43261
  23266025.509    -1022570.043 5   -176849.30921
  19630476.6184  -23864162.07447 -17653757.71061
 93  6 11 19 42 59.9970000  0  6G27G 2G24G26G12G13
  23622724.3684   16410650.82844  12785925.07861
  21091118.9464    -718307.15047   -539845.83662
  23160162.0644   -2380430.60945  -1659220.76061
  22962062.1964   -5116609.10845  -3924366.93061
  23244446.7514   -1135973.89845   -265215.89161
  19624631.3604  -23894876.43947 -17677690.97761
 93  6 11 19 43 29.9970000  0  6G27G 2G24G26G12G13
  23641285.9854   16508210.56544  12861945.48261
  21095558.1734    -694965.01747   -521657.17962
  23136399.1424   -2505315.22645  -1756533.30961
  22970029.439    -5074739.250 5  -3891741.15821
  23222876.0404   -1249324.49045   -353540.95061
  19618888.1494  -23925058.26347 -17701209.26961
 93  6 11 19 43 59.9970000  0  6G27G 2G24G26G12G13
  23659870.876    16605860.601 3  12938036.25221
  21100033.493     -671437.875 7   -503324.36322
  23112647.384    -2630129.095 5  -1853790.70921
  22978035.399    -5032660.535 5  -3858952.65021
  23201312.6424   -1362633.23045   -441833.41061
  19613244.2984  -23954721.66447 -17724323.60561
 93  6 11 19 44 29.9970000  0  5G 2G24G26G12G13
  21104551.618     -647706.361 7   -484832.29022
  23088911.704    -2754861.508 5  -1950984.66121
  22986089.5404   -4990357.94345  -3825989.67861
  23179761.767    -1475892.990 5   -530087.68321
  19607698.6034  -23983862.33648 -17747030.61461
 93  6 11 19 44 59.9970000  0  5G 2G24G26G12G13
  21109113.3064    -623736.25747   -466154.32062
  23065201.1814   -2879478.46745  -2048088.64361
  22994182.7354   -4947810.26845  -3792835.75861
  23158218.4154   -1589083.91745   -618288.34061
  19602255.7434  -24012463.23447 -17769317.02261
 93  6 11 19 45 29.9970000  0  5G 2G24G26G12G13
  21113717.5174    -599539.29547   -447299.55562
  23041506.7204   -3003970.20845  -2145095.08761
  23002322.8374   -4905031.22345  -3759501.53461
  23136691.0874   -1702216.23645   -706443.30461
  19596912.9314  -24040538.08747 -17791193.52761
 93  6 11 19 45 59.9970000  0  5G 2G24G26G12G13
  21118365.134     -575128.268 7   -428278.00522
  23017841.8684   -3128345.73645  -2242010.96961
  23010509.626    -4862012.743 5  -3725980.70821
  23115177.0954   -1815284.90045   -794548.67861
  19591670.2594  -24068085.07047 -17812658.70261
 93  6 11 19 46 29.9970000  0  5G 2G24G26G12G13
  21123051.0244    -550500.30447   -409087.41262
  22994190.689    -3252621.333 5  -2338848.96621
  23018740.493    -4818752.437 5  -3692271.47821
  23093673.7354   -1928279.86945   -882596.64861
  19586530.0714  -24095097.66447 -17833707.47261
 93  6 11 19 46 59.9970000  0  5G 2G24G26G12G13
  21127777.220     -525659.023 7   -389730.58522
  22970562.4934   -3376801.18545  -2435612.38761
  23027020.8064   -4775251.49845  -3658374.75061
  23072188.649    -2041200.682 5   -970586.81921
  19581490.7124  -24121578.63347 -17854341.99861
 93  6 11 19 47 29.9970000  0  5G 2G24G26G12G13
  21132540.0794    -500621.02247   -370220.47162
  22946944.2674   -3500912.90445  -2532322.69061
  23035342.1034   -4731533.23245  -3624308.67861
  23050709.9544   -2154058.37745  -1058527.82161
  19576549.7594  -24147542.73047 -17874573.75761
 93  6 11 19 47 59.9970000  0  5G 2G24G26G12G13
  21137345.626     -475375.410 7   -350548.59622
  22923339.5324   -3624971.31345  -2628991.43961
  23043702.103    -4687593.407 5  -3590069.92421
  23029246.3374   -2266845.58445  -1146413.87761
  19571707.8764  -24172984.80947 -17894398.74561
 93  6 11 19 48 29.9970000  0  5G 2G24G26G12G13
  21142194.485     -449889.457 7   -330689.43522
  22899741.7514   -3748963.17345  -2725608.34361
  23052106.001    -4643431.315 5  -3555658.01521
  23007798.759    -2379557.157 5  -1234241.00621
  19566967.0794  -24197903.34947 -17913815.78761
 93  6 11 19 48 59.9970000  0  5G 2G24G26G12G13
  21147093.501     -424156.062 7   -310637.46622
  22876159.9704   -3872881.66245  -2822168.10061
  23060550.1894   -4599055.27945  -3521079.36061
  22986366.368    -2492189.115 5  -1322006.11821
  19562325.3294  -24222298.20447 -17932824.76161
 93  6 11 19 49 29.9970000  0  5G 2G24G26G12G13
  21152038.6814    -398175.58547   -290392.95662
  22852588.7674   -3996731.61245  -2918674.44461
  23069035.0714   -4554474.41045  -3486341.11361
  22964951.446    -2604735.040 5  -1409704.18721
  19557782.5404  -24246166.88647 -17951423.72761
 93  6 11 19 49 59.9970000  0  5G 2G24G26G12G13
  21157029.9934    -371946.02747   -269954.37062
  22829035.251    -4120511.576 5  -3015126.26421
  23077552.6814   -4509694.95445  -3451448.11161
  22943548.665    -2717197.361 5  -1497337.08121
  19553340.7744  -24269514.78547 -17969616.89461
 93  6 11 19 50 29.9970000  0  5G 2G24G26G12G13
  21162065.0954    -345478.07147   -249330.01562
  22805501.9394   -4244196.66945  -3111504.14161
  23086108.9464   -4464731.43745  -3416411.71661
  22922160.892    -2829576.541 5  -1584905.22821
  19548995.6264  -24292345.68847 -17987407.19561
 93  6 11 19 50 59.9970000  0  5G 2G24G26G12G13
  21167141.306     -318792.632 7   -228536.19422
  22781981.415    -4367779.046 5  -3207801.99121
  23094700.4464   -4419582.21545  -3381230.62061
  22900794.7124   -2941866.25645  -1672403.64061
  19544749.8604  -24314656.60347 -18004792.32261
 93  6 11 19 51 29.9970000  0  5G 2G24G26G12G13
  21172260.853     -291896.736 7   -207578.38222
  22758490.5714   -4491238.06145  -3304003.73961
  23103331.321    -4374250.650 5  -3345907.42421
  22879440.985    -3054070.642 5  -1759835.58421
  19540601.8294  -24336455.37647 -18021778.37761
 93  6 11 19 51 59.9970000  0  5G 2G24G26G12G13
  21177423.626     -264780.431 7   -186448.82422
  22735025.821    -4614547.577 5  -3400088.94521
  23111990.860    -4328723.441 5  -3310431.76721
  22858112.9544   -3166177.93045  -1847191.83661
  19536552.1894  -24357733.84747 -18038359.00561
 93  6 11 19 52 29.9970000  0  5G 2G24G26G12G13
  21182620.8684    -237463.08447   -165162.60962
  22711586.759    -4737713.121 5  -3496062.01221
  23120692.829    -4283004.912 5  -3274807.03521
  22836794.845    -3278195.498 5  -1934478.19021
  19532600.0094  -24378503.45548 -18054543.11161
 93  6 11 19 52 59.9970000  0  5G 2G24G26G12G13
  21187860.9394    -209910.47447   -143693.07262
  22688175.1034   -4860736.81145  -3591924.50661
  23129434.7674   -4237082.40145  -3239023.36361
  22815496.064    -3390109.636 5  -2021683.94321
  19528747.0244  -24398753.76347 -18070322.57461
 93  6 11 19 53 29.9970000  0  5G 2G24G26G12G13
  21193150.3844    -182121.22847   -122039.13362
  22664787.915    -4983637.281 5  -3687691.02221
  23138200.0174   -4190958.96444  -3203083.11861
  22794217.821    -3501923.605 5  -2108811.63721
  19524990.4464  -24418491.29747 -18085702.46861
 93  6 11 19 53 59.9970000  0  5G 2G24G26G12G13
  21198484.5404    -154106.91347   -100209.82562
  22641422.657    -5106442.802 6  -3783383.54721
  23147025.3294   -4144634.07445  -3166985.90061
  22772960.1894   -3613642.09545  -2195864.98761
  19521330.3534  -24437725.00947 -18100689.77661
 93  6 11 19 54 29.9970000  0  5G 2G24G26G12G13
  21203857.649     -125856.328 7    -78196.40622
  22618071.6574   -5229149.06545  -3878998.71461
  23155876.298    -4098111.442 5  -3130734.62021
  22751719.6964   -3725260.12945  -2282839.99461
  19517766.5644  -24456453.38547 -18115283.31561
 93  6 11 19 54 59.9970000  0  5G 2G24G26G12G13
  21209278.6734     -97356.87047    -55989.06162
  22594739.3604   -5351740.48145  -3974524.40461
  23164768.9154   -4051390.11945  -3094328.49361
  22730501.095    -3836760.238 5  -2369723.15521
  19514301.7044  -24474662.34947 -18129472.10861
 93  6 11 19 55 29.9970000  0  5G 2G24G26G12G13
  21214747.3684     -68639.99646    -33612.31462
  22571434.8064   -5474215.75045  -4069959.58961
  23173696.165    -4004477.812 5  -3057773.53221
  22709306.4234   -3948145.88145  -2456517.09761
  19510933.7044  -24492359.52147 -18143262.11261
 93  6 11 19 55 59.9970000  0  5G 2G24G26G12G13
  21220250.907      -39703.252 6    -11064.22722
  22548153.485    -5596554.043 5  -4165288.03321
  23182656.0714   -3957391.35145  -3021082.90261
  22688133.7984   -4059417.94045  -2543222.52961
  19507662.7284  -24509549.48847 -18156656.88861
 93  6 11 19 56 29.9970000  0  5G 2G24G26G12G13
  21225800.314      -10540.480 7     11659.97822
  22524903.2354   -5718741.02446  -4260498.59361
  23191643.7594   -3910140.76645  -2984264.37461
  22666979.399    -4170570.497 5  -2629834.84921
  19504488.9934  -24526230.07347 -18169654.74561
 93  6 11 19 56 59.9970000  0  5G 2G24G26G12G13
  21231394.259       18841.771 6     34555.20822
  22501679.501    -5840775.345 5  -4355590.19221
  23200673.1574   -3862724.86445  -2947317.03161
  22645851.228    -4281599.881 6  -2716351.19921
  19501411.3534  -24542400.96647 -18182255.43561
 93  6 11 19 57 29.9970000  0  5G 2G24G26G12G13
  21237030.087       48463.311 7     57636.88922
  22478488.1424   -5962646.77546  -4450554.86861
  23209726.8064   -3815138.98345  -2910237.20461
  22624749.1264   -4392499.57246  -2802766.49061
  19498430.7284  -24558059.75447 -18194457.08861
 93  6 11 19 57 59.9970000  0  5G 2G24G26G12G13
  21242715.251       78343.534 6     80920.15022
  22455326.790    -6084362.973 6  -4545398.56821
  23218813.9464   -3767400.20645  -2873038.27261
  22603669.0404   -4503272.43646  -2889082.96261
  19495547.9704  -24573213.90847 -18206265.51961
 93  6 11 19 58 29.9970000  0  5G 2G24G26G12G13
  21248452.524      108482.634 6    104405.13522
  22432194.7124   -6205932.86546  -4640128.26561
  23227922.071    -3719512.138 5  -2835723.01821
  22582613.142    -4613917.439 5  -2975299.77921
  19492759.3064  -24587866.09647 -18217682.80461
 93  6 11 19 58 59.9970000  0  5G 2G24G26G12G13
  21254235.892      138886.996 6    128096.81022
  22409085.860    -6327352.533 6  -4734740.91321
  23237066.5644   -3671485.87745  -2798300.05661
  22561584.118    -4724434.810 6  -3061417.15221
  19490065.8144  -24602020.25247 -18228712.01361
 93  6 11 19 59 29.9970000  0  5G 2G24G26G12G13
  21260073.2204     169567.57546    152003.73162
  22386008.6344   -6448616.79646  -4829232.47861
  23246226.751    -3623321.601 5  -2760769.57121
  22540578.5794   -4834818.98146  -3147430.74261
  19487467.2824  -24615675.26047 -18239352.27761
 93  6 11 19 59 59.9970000  0  5G 2G24G26G12G13
  21265963.751      200506.855 6    176112.22521
  22362964.9854   -6569730.88046  -4923607.01461
  23255422.189    -3575013.984 5  -2723127.35521
  22519598.6814   -4945071.90746  -3233342.04861
  19484962.8144  -24628836.71247 -18249607.94861
 93  6 11 20  0 29.9970000  0  5G 2G24G26G12G13
  21271896.6894     231686.23146    200407.82761
  22339948.3684   -6690677.99946  -5017851.42461
  23264642.9624   -3526560.39345  -2685371.44461
  22498642.7674   -5055192.17246  -3319149.99561
  19482551.5014  -24641507.20047 -18259481.05261
 93  6 11 20  0 59.9970000  0  5G 2G24G26G12G13
  21277876.337      263107.995 6    224892.26921
  22316967.884    -6811439.531 6  -5111951.21321
  23273892.282    -3477948.082 5  -2647491.83721
  22477713.9314   -5165169.42346  -3404846.48761
  19480236.7824  -24653680.48547 -18268966.72861
 93  6 11 20  1 29.9970000  0  5G 2G24G26G12G13
  21283897.3064     294755.75546    249552.84361
  22294023.220    -6932026.486 6  -5205915.00321
  23283174.0644   -3429172.79744  -2609485.21261
  22456815.001    -5275002.527 6  -3490430.68421
  19478013.5014  -24665359.14547 -18278066.98661
 93  6 11 20  1 59.9970000  0  5G 2G24G26G12G13
  21289958.9854     326619.61746    274381.78561
  22271108.9314   -7052438.59046  -5299742.54961
  23292479.595    -3380249.398 4  -2571363.23721
  22435940.337    -5384694.792 6  -3575905.12921
  19475883.5174  -24676551.00547 -18286787.91161
 93  6 11 20  2 29.9970000  0  5G 2G24G26G12G13
  21296067.1814     358711.73946    299388.60761
  22248231.071    -7172661.172 6  -5393422.39921
  23301819.118    -3331181.858 5  -2533128.90921
  22415095.0954   -5494236.35346  -3661262.12761
  19473848.0244  -24687250.16947 -18295124.92261
 93  6 11 20  2 59.9970000  0  5G 2G24G26G12G13
  21302220.610      391027.813 6    324569.91922
  22225384.9934   -7292712.55946  -5486968.86761
  23311180.2124   -3281975.12544  -2494786.10561
  22394279.1814   -5603625.31746  -3746500.22561
  19471905.3684  -24697459.05447 -18303079.89661
 93  6 11 20  3 29.9970000  0  5G 2G24G26G12G13
  21308413.454      423580.031 6    349935.23822
  22202572.1494   -7412600.57646  -5580388.02461
  23320576.485    -3232630.604 5  -2456335.94421
  22373491.0794   -5712857.28246  -3831615.98961
  19470056.0644  -24707177.42947 -18310652.65661
 93  6 11 20  3 59.9970000  0  5G 2G24G26G12G13
  21314653.446      456374.454 6    375489.30421
  22179789.064    -7532313.287 6  -5673670.56621
  23329992.3294   -3183154.39345  -2417783.16261
  22352736.985    -5821934.500 6  -3916611.17821
  19468298.1184  -24716411.60647 -18317848.12161
 93  6 11 20  4 29.9970000  0  5G 2G24G26G12G13
  21320940.274      489411.700 6    401232.57722
  22157046.837    -7651846.149 6  -5766812.98221
  23339431.2984   -3133542.10845  -2379124.33861
  22332009.4624   -5930847.95446  -4001478.75261
  19466632.9854  -24725157.34347 -18324662.98261
 93  6 11 20  4 59.9970000  0  5G 2G24G26G12G13
  21327272.337      522689.091 6    427162.98221
  22134331.290    -7771210.233 6  -5859823.87521
  23348893.3604   -3083811.93545  -2340373.67061
  22311314.8144   -6039602.87346  -4086222.76961
  19465060.5404  -24733423.68847 -18331104.28961
 93  6 11 20  5 29.9970000  0  5G 2G24G26G12G13
  21333650.228      556210.530 6    453283.55721
  22111651.9854   -7890387.53246  -5952689.24561
  23358378.0484   -3033966.91244  -2301533.51561
  22290650.485    -6148200.201 6  -4170844.01121
  19463578.0404  -24741215.50147 -18337175.83761
 93  6 11 20  5 59.9970000  0  5G 2G24G26G12G13
  21340075.610      589961.065 6    479582.63321
  22089008.970    -8009364.788 6  -6045398.72721
  23367886.1964   -2984020.53944  -2262614.37061
  22270012.681    -6256633.817 6  -4255337.71221
  19462186.2514  -24748531.26947 -18342876.43361
 93  6 11 20  6 29.9970000  0  5G 2G24G26G12G13
  21346539.907      623933.670 6    506054.76821
  22066406.0484   -8128155.14846  -6137962.57461
  23377404.9854   -2933984.21445  -2223625.15661
  22249412.024    -6364904.680 6  -4339704.55921
  19460884.8764  -24755375.86147 -18348209.88761
 93  6 11 20  6 59.9970000  0  5G 2G24G26G12G13
  21353050.064      658143.468 6    532711.71521
  22043836.6654   -8246750.95846  -6230374.81661
  23386942.6264   -2883852.03844  -2184561.21661
  22228841.962    -6473005.197 6  -4423938.68621
  19459670.0644  -24761746.44247 -18353173.96761
 93  6 11 20  7 29.9970000  0  5G 2G24G26G12G13
  21359605.048      692587.778 6    559551.40221
  22021308.0644   -8365147.20946  -6322631.57761
  23396503.017    -2833611.407 4  -2145412.81621
  22208302.4074   -6580930.80746  -4508036.50361
  19458548.6104  -24767643.24847 -18357768.88361
 93  6 11 20  7 59.9970000  0  5G 2G24G26G12G13
  21366204.5874     727273.16546    586578.94561
  21998812.8144   -8483352.01546  -6414739.16061
  23406087.2514   -2783267.11745  -2106183.59361
  22187799.103    -6688681.821 6  -4591998.28721
  19457516.7354  -24773070.40147 -18361997.84161
 93  6 11 20  8 29.9970000  0  5G 2G24G26G12G13
  21372855.728      762209.867 6    613802.31321
  21976358.3214   -8601361.37346  -6506694.43561
  23415687.5484   -2732816.83544  -2066871.83361
  22167327.243    -6796263.466 6  -4675828.09821
  19456570.0644  -24778037.67947 -18365868.44361
 93  6 11 20  8 59.9970000  0  5G 2G24G26G12G13
  21379552.829      797407.808 6    641229.24521
  21953943.845    -8719148.254 6  -6598476.37321
  23425307.134    -2682245.799 3  -2027465.92821
  22146889.642    -6903666.206 6  -4759518.50221
  19455715.1344  -24782539.80247 -18369376.59461
 93  6 11 20  9 29.9970000  0  4G 2G24G12G13
  21386298.439      832863.994 6    668857.40021
  21931573.8924   -8836696.47146  -6690072.32361
  22126485.329    -7010883.142 6  -4843064.11821
  19454946.7354  -24786574.46747 -18372520.49261
 93  6 11 20  9 59.9970000  0  4G 2G24G12G13
  21393092.493      868581.308 6    696689.03421
  21909254.2984   -8953990.37146  -6781470.11161
  22106120.4234   -7117906.90546  -4926459.22661
  19454269.3994  -24790138.44347 -18375297.62361
 93  6 11 20 10 29.9970000  0  4G 2G24G12G13
  21399932.462      904533.110 6    724703.39221
  21886979.228    -9071049.184 6  -6872684.71421
  22085788.5404   -7224749.11946  -5009712.83961
  19453676.8844  -24793247.95047 -18377720.61861
 93  6 11 20 10 59.9970000  0  4G 2G24G12G13
  21406821.501      940723.944 6    752904.00321
  21864747.0794   -9187880.45646  -6963722.01961
  22065494.978    -7331396.376 6  -5092814.54921
  19453172.2594  -24795894.67247 -18379783.00261
 93  6 11 20 11 29.9970000  0  4G 2G24G12G13
  21413756.282      977146.982 6    781285.54221
  21842552.9624   -9304511.07346  -7054602.95461
  22045234.368    -7437851.997 6  -5175766.94121
  19452756.7744  -24798086.40747 -18381490.84861
 93  6 11 20 11 59.9970000  0  4G 2G24G12G13
  21420727.876     1013807.728 6    809852.31821
  21820395.149    -9420952.892 6  -7145336.77921
  22025014.337    -7544112.012 6  -5258566.91621
  19452426.6734  -24799823.08847 -18382844.10461
 93  6 11 20 12 29.9970000  0  4G 2G24G12G13
  21427751.978     1050716.991 6    838612.75121
  21798272.6814   -9537205.78946  -7235923.38161
  22004830.024    -7650172.824 6  -5341211.65621
  19452180.4544  -24801106.21347 -18383843.94061
 93  6 11 20 12 59.9970000  0  4G 2G24G12G13
  21434825.907     1087881.681 6    867572.20821
  21776186.4314   -9653261.12646  -7326356.05061
  21984689.509    -7756030.771 6  -5423698.33421
  19452025.3064  -24801936.13947 -18384490.64361
 93  6 11 20 13 29.9970000  0  4G 2G24G12G13
  21441944.103     1125299.172 6    896728.66221
  21754146.0014   -9769096.30146  -7416617.16061
  21964586.2434   -7861683.53446  -5506025.11261
  19451953.1964  -24802315.05847
 93  6 11 20 13 59.9970000  0  4G 2G24G12G13
  21449114.423     1162965.751 6    926079.19521
  21732150.3214   -9884687.29946  -7506687.99561
  21944517.345    -7967131.652 6  -5588192.43021
  19451963.4314  -24802248.58947
 93  6 11 20 14 29.9970000  0  4G 2G24G12G13
  21456327.439     1200871.305 6    955615.95321
  21710200.1034  -10000032.30346  -7596567.15961
  21924490.220    -8072381.733 6  -5670205.45121
  19452061.5954  -24801747.90947
 93  6 11 20 14 59.9970000  0  4G 2G24G12G13
  21463584.142     1239012.686 6    985336.47221
  21688299.9464  -10115121.95446  -7686247.34061
  21904500.251    -8177424.278 6  -5752056.74521
  19452239.9074  -24800807.68447 -18383611.32261
 93  6 11 20 15 29.9970000  0  4G 2G24G12G13
  21470883.548     1277390.714 6   1015241.37921
  21666447.6184  -10229946.20746  -7775720.71661
  21884553.415    -8282252.560 6  -5833741.07721
  19452500.4704  -24799426.28947 -18382534.91061
 93  6 11 20 15 59.9970000  0  4G 2G24G12G13
  21478240.774     1316027.692 6   1045348.08921
  21644646.9784  -10344503.85046  -7864986.34861
  21864646.626    -8386854.608 6  -5915249.13121
  19452849.0094  -24797596.17747 -18381108.85261
 93  6 11 20 16 29.9970000  0  4G 2G24G12G13
  21485639.626     1354914.201 6   1075649.22421
  21622893.837   -10458822.123 6  -7954065.45021
  21844784.4544   -8491241.43546  -5996589.46761
  19453280.9464  -24795333.34247 -18379345.60161
 93  6 11 20 16 59.9970000  0  4G 2G24G12G13
  21493090.837     1394063.990 6   1106155.50921
  21601186.204   -10572888.773 6  -8042948.49221
  21824961.399    -8595399.407 6  -6077751.49021
  19453794.5484  -24792628.82447 -18377238.19161
 93  6 11 20 17 29.9970000  0  4G 2G24G12G13
  21500591.860     1433487.890 6   1136875.39121
  21579527.2434  -10686701.90446  -8131633.98961
  21805186.470    -8699324.326 6  -6158731.90321
  19454393.3844  -24789482.82347 -18374786.76161
 93  6 11 20 17 59.9970000  0  4G 2G24G12G13
  21508146.2204    1473170.75946   1167797.05261
  21557917.548   -10800278.352 6  -8220135.04221
  21785452.017    -8803028.692 6  -6239540.46721
  19455072.7284  -24785913.04247 -18372005.11461
 93  6 11 20 18 29.9970000  0  4G 2G24G12G13
  21515742.228     1513099.574 6   1198910.37921
  21536350.3844  -10913608.56746  -8308444.23761
  21765762.032    -8906504.598 6  -6320171.00221
  19455833.1184  -24781915.91247 -18368890.47261
 93  6 11 20 18 59.9970000  0  4G 2G24G12G13
  21523386.517     1553272.824 6   1230214.16121
  21514830.587   -11026681.097 6  -8396552.64221
  21746114.392    -9009740.962 6  -6400614.87921
  19456677.7594  -24777485.07547 -18365437.86861
 93  6 11 20 19 29.9970000  0  4G 2G24G12G13
  21531074.5244    1593674.17646   1261695.68561
  21493365.5174  -11139496.34746  -8484460.57061
  21726513.524    -9112745.524 6  -6480878.12321
  19457601.0324  -24772633.35047 -18361657.30661
 93  6 11 20 19 59.9970000  0  4G 2G24G12G13
  21538805.517     1634289.186 6   1293343.70821
  21471947.8534  -11252062.57046  -8572174.44561
  21706956.353    -9215521.257 6  -6560963.09121
  19458602.5324  -24767368.24447 -18357554.62161
 93  6 11 20 20 29.9970000  0  4G 2G24G12G13
  21546573.4854    1675121.49846   1325161.06161
  21450572.4074  -11364377.31746  -8659692.37361
  21687442.196    -9318068.002 6  -6640869.60721
  19459681.5014  -24761694.65247 -18353133.64161
 93  6 11 20 20 59.9970000  0  4G 2G24G12G13
  21554385.689     1716174.031 6   1357149.99721
  21429244.696   -11476448.262 6  -8747020.33121
  21667968.946    -9420395.869 6  -6720605.55521
  19460834.6814  -24755627.50947 -18348405.99561
 93  6 11 20 21 29.9970000  0  4G 2G24G12G13
  21562236.595     1757434.829 6   1389301.22321
  21407963.548   -11588285.357 6  -8834166.05421
  21648535.1494   -9522528.58246  -6800189.44161
  19462059.5714  -24749195.10747 -18343393.73561
 93  6 11 20 21 59.9970000  0  4G 2G24G12G13
  21570136.1424    1798935.61546   1421639.44161
  21386728.985   -11699865.385 6  -8921111.48521
  21629141.4314   -9624437.14846  -6879598.69461
  19463358.1654  -24742373.72147 -18338078.37661
 93  6 11 20 22 29.9970000  0  4G 2G24G12G13
  21578083.8374    1840698.83446   1454182.18061
  21365555.2594  -11811144.74846  -9007822.61461
  21609798.2674   -9726091.14746  -6958809.56661
  19464735.6184  -24735137.51647 -18332439.77061
 93  6 11 20 22 59.9970000  0  4G 2G24G12G13
  21586073.431     1882702.637 6   1486912.35921
  21344437.0874  -11922120.95546  -9094297.52361
  21590501.212    -9827497.913 6  -7037827.77121
  19466188.0324  -24727498.66747 -18326487.43061
 93  6 11 20 23 29.9970000  0  4G 2G24G12G13
  21594115.3374    1924945.02046   1519828.44661
  21323378.2354  -12032795.17246  -9180537.11161
  21571252.017    -9928645.737 6  -7116644.22521
  19467719.2284  -24719450.54547 -18320216.15561
 93  6 11 20 23 59.9970000  0  4G 2G24G12G13
  21602194.337     1967415.387 6   1552922.19721
  21302368.649   -12143180.599 6  -9266551.68021
  21552056.610   -10029529.240 6  -7195254.70521
  19469329.7204  -24710992.31247 -18313625.33461
 93  6 11 20 24 29.9970000  0  4G 2G24G12G13
  21610322.970     2010107.757 6   1586188.92421
  21281417.9934  -12253284.30346  -9352346.71061
  21532908.9624  -10130154.93346  -7273664.31261
  19471014.0174  -24702135.83547 -18306724.17361
 93  6 11 20 24 59.9970000  0  4G 2G24G12G13
  21618492.415     2053055.034 6   1619654.30621
  21260521.173   -12363106.418 6  -9437922.33121
  21513812.1104  -10230512.65446  -7351865.09661
  19472777.3684  -24692875.34447 -18299508.21961
 93  6 11 20 25 29.9960000  0  4G 2G24G12G13
  21626715.574     2096270.627 6   1653328.74821
  21239673.895   -12472643.811 6  -9523276.08921
  21494766.277   -10330594.606 7  -7429851.00521
  19474615.4494  -24683212.19047 -18291978.48761
 93  6 11 20 25 59.9960000  0  4G 2G24G12G13
  21634993.488     2139769.107 6   1687223.61721
  21218888.1914  -12581885.57246  -9608399.48862
  21475772.012   -10430403.405 6  -7507624.05321
  19476531.6994  -24673146.18247 -18284134.84461
 93  6 11 20 26 29.9960000  0  4G 2G24G12G13
  21643325.176     2183553.714 6   1721341.43621
  21198157.8634  -12690820.45246  -9693283.74461
  21456831.902   -10529934.845 6  -7585180.99421
  19478523.2624  -24662682.14547 -18275981.04961
 93  6 11 20 26 59.9960000  0  4G 2G24G12G13
  21651709.410     2227603.180 6   1755665.66021
  21177485.652   -12799453.319 6  -9777932.67421
  21437944.4964  -10629193.14647  -7662525.10461
  19480588.3014  -24651828.41047 -18267523.59861
 93  6 11 20 27 29.9960000  0  4G 2G24G12G13
  21660136.3714    2271887.02446   1790172.50661
  21156869.0204  -12907787.23946  -9862348.66561
  21419105.301   -10728178.975 6  -7739656.87721
  19482725.8014  -24640590.82947 -18258767.04261
 93  6 11 20 27 59.9960000  0  4G 2G24G12G13
  21668606.356     2316400.319 6   1824858.13721
  21136311.246   -13015824.696 6  -9946533.64322
  21400322.387   -10826882.076 6  -7816568.34821
  19484938.2624  -24628964.52447 -18249707.59061
 93  6 11 20 28 29.9960000  0  4G 2G24G12G13
  21677118.059     2361129.842 6   1859712.25221
  21115811.0904  -13123559.76746 -10030482.98562
  21381596.4344  -10925299.06346  -7893256.88461
  19487226.4104  -24616950.75447 -18240346.21561
 93  6 11 20 28 59.9960000  0  4G 2G24G12G13
  21685670.3324    2406075.70446   1894734.94561
  21095367.027   -13230983.522 6 -10114189.74922
  21362921.0904  -11023433.13746  -7969724.97561
  19489582.5354  -24604557.98147 -18230689.50961
 93  6 11 20 29 29.9960000  0  4G 2G24G12G13
  21694269.723     2451259.922 6   1929943.36821
  21074984.621   -13338089.713 6 -10197649.07522
  21344303.145   -11121272.045 6  -8045963.04322
  19492016.9024  -24591778.81147 -18220731.71061
 93  6 11 20 29 59.9960000  0  4G 2G24G12G13
  21702917.684     2496695.181 6   1965347.41421
  21054667.5984  -13444876.34646 -10280859.37562
  21325741.316   -11218817.357 6  -8121972.32521
  19494519.4654  -24578620.03247 -18210478.12861
 93  6 11 20 30 29.9960000  0  4G 2G24G12G13
  21711610.270     2542400.354 6   2000961.78621
  21034410.8634  -13551317.51446 -10363800.48262
  21307237.645   -11316054.539 6  -8197741.53421
  19497097.3794  -24565072.17547 -18199921.36061
 93  6 11 20 30 59.9960000  0  4G 2G24G12G13
  21720361.3014    2588370.08846   2036782.28861
  21014216.1064  -13657440.79046 -10446493.88462
  21288790.8324  -11412988.10046  -8273274.15361
  19499748.5594  -24551144.50247 -18189068.63161
 93  6 11 20 31 29.9960000  0  4G 2G24G12G13
  21729156.277     2634597.912 6   2072803.91721
  20994079.324   -13763259.776 6 -10528950.18322
  21270404.9264  -11509607.27446  -8348561.76962
  19502472.0124  -24536831.05247 -18177915.29261
 93  6 11 20 31 59.9960000  0  4G 2G24G12G13
  21737996.4734    2681060.16446   2109008.21661
  20974000.2384  -13868779.28947 -10611173.11962
  21252075.441   -11605932.407 6  -8423620.28622
  19505264.6134  -24522157.19147 -18166481.12261
 93  6 11 20 32 29.9960000  0  4G 2G24G12G13
  21746884.566     2727749.988 6   2145389.83621
  20953980.0984  -13973989.05046 -10693154.69162
  21233803.1914  -11701955.90246  -8498443.75062
  19508125.9494  -24507120.53447 -18154764.24561
 93  6 11 20 32 59.9960000  0  4G 2G24G12G13
  21755817.574     2774682.335 6   2181960.41821
  20934021.9104  -14078872.86347 -10774882.28062
  21215590.7464  -11797666.30546  -8573023.25162
  19511056.6764  -24491714.93147 -18142759.88261
 93  6 11 20 33 29.9960000  0  4G 2G24G12G13
  21764798.1764    2821874.47946   2218733.46161
  20914130.8564  -14183396.98847 -10856329.59162
  21197436.7464  -11893058.84647  -8647355.06762
  19514057.5744  -24475940.38347 -18130468.02061
 93  6 11 20 33 59.9960000  0  4G 2G24G12G13
  21773826.3714    2869330.34046   2255712.00661
  20894310.090   -14287546.811 7 -10937485.23822
  21179343.449   -11988137.665 7  -8721442.42422
  19517128.2624  -24459806.10047 -18117895.85661
 93  6 11 20 34 29.9960000  0  4G 2G24G12G13
  21782904.5984    2917045.00446   2292892.19761
  20874560.6134  -14391332.61147 -11018357.24162
  21161312.2854  -12082899.79547  -8795283.02162
  19520267.2624  -24443313.97447 -18105044.84761
 93  6 11 20 34 59.9960000  0  4G 2G24G12G13
  21792040.152     2965036.531 6   2330288.14521
  20854879.0984  -14494751.77247 -11098943.53362
  21143340.887   -12177339.751 7  -8868872.55222
  19523474.5124  -24426463.62847 -18091914.71561
 93  6 11 20 35 29.9960000  0  4G 2G24G12G13
  21801226.6604    3013315.85746   2367908.33461
  20835270.082   -14597804.538 7 -11179244.34822
  21125435.9964  -12271440.29447  -8942197.62662
  19526749.8324  -24409242.87947 -18078495.94661
 93  6 11 20 35 59.9960000  0  4G 2G24G12G13
  21810461.5434    3061861.72646   2405736.21961
  20815727.3404  -14700512.58047 -11259276.53362
  21107591.5124  -12365204.48347  -9015260.58862
  19530096.6684  -24391659.90247 -18064794.93061
 93  6 11 20 36 29.9960000  0  4G 2G24G12G13
  21819752.309     3110664.042 6   2443763.94121
  20796246.8404  -14802876.25846 -11339040.38562
  21089809.8564  -12458631.95247  -9088061.18362
  19533510.2384  -24373719.22247 -18050815.18661
 93  6 11 20 36 59.9960000  0  4G 2G24G12G13
  21829080.5204    3159712.16646   2481983.19861
  20776829.481   -14904907.678 6 -11418545.34522
  21072094.3634  -12551734.14347  -9160608.33662
  19536990.0044  -24355437.51847 -18036569.70461
 93  6 11 20 37 29.9960000  0  4G 2G24G12G13
  21838461.387     3208978.931 6   2520372.83121
  20757474.129   -15006613.508 6 -11497796.59122
  21054442.0744  -12644506.29047  -9232898.27162
  19540533.5664  -24336815.07447 -18022058.71161
 93  6 11 20 37 59.9960000  0  4G 2G24G12G13
  21847876.160     3258466.406 6   2558934.42321
  20738186.996   -15107969.250 6 -11576775.04222
  21036852.598   -12736934.375 7  -9304920.12722
  19544142.6064  -24317842.68247 -18007275.03961
 93  6 11 20 38 29.9960000  0  4G 2G24G12G13
  21857333.3794    3308175.78746   2597668.94061
  20718965.934   -15208977.717 6 -11655482.88922
  21019328.8634  -12829024.66047  -9376678.77262
  19547817.7624  -24298531.87647 -17992227.66561
 93  6 11 20 38 59.9960000  0  4G 2G24G12G13
  21866835.4654    3358114.71646   2636582.33061
  20699814.7704  -15309640.24047 -11733921.16762
  21001870.137   -12920767.891 7  -9448166.97022
  19551558.3094  -24278878.45247 -17976913.30661
 93  6 11 20 39 29.9960000  0  4G 2G24G12G13
  21876384.5664    3408283.11346   2675674.51961
  20680724.957   -15409944.255 6 -11812080.08822
  20984478.715   -13012161.336 7  -9519382.61022
  19555362.2074  -24258884.82447 -17961333.86161
 93  6 11 20 39 59.9960000  0  4G 2G24G12G13
  21885984.707     3458713.841 6   2714971.12121
  20661709.402   -15509866.114 7 -11889941.22522
  20967157.0514  -13103198.03947  -9590320.27862
  19559231.1454  -24238548.82547 -17945487.63161
 93  6 11 20 40 29.9960000  0  4G 2G24G12G13
  21895627.6684    3509415.60246   2754478.92061
  20642765.176   -15609414.801 6 -11967511.58222
  20949899.215   -13193882.884 7  -9660983.77422
  19563167.3094  -24217880.51647 -17929382.46261
 93  6 11 20 40 59.9960000  0  4G 2G24G12G13
  21905332.0744    3560390.49646   2794199.55961
  20623895.3714  -15708590.46346 -12044791.26262
  20932709.074   -13284211.856 7  -9731369.96222
  19567161.8874  -24196881.56447 -17913019.63861
 93  6 11 20 41 29.9960000  0  4G 2G24G12G13
  21915083.4184    3611645.99745   2834138.84761
  20605093.191   -15807389.479 7 -12121777.45222
  20915588.910   -13374180.790 7  -9801475.60122
  19571220.1294  -24175552.58947 -17896399.66461
 93  6 11 20 41 59.9960000  0  4G 2G24G12G13
  21924890.0434    3663181.29245   2874296.15861
  20586362.340   -15905818.325 7 -12198475.20422
  20898539.277   -13463788.947 7  -9871300.11022
  19575340.8564  -24153897.52747 -17879525.59961
 93  6 11 20 42 29.9960000  0  4G 2G24G12G13
  21934745.160     3714976.146 5   2914655.70921
  20567699.4104  -16003878.93647 -12274886.00962
  20881554.0594  -13553038.33447  -9940845.07462
  19579522.9814  -24131923.88847 -17862403.29661
 93  6 11 20 42 59.9960000  0  4G 2G24G12G13
  21944645.2704    3767000.32745   2955193.95461
  20549113.809   -16101567.465 7 -12351006.89522
  20864635.106   -13641932.921 7 -10010113.55422
  19583764.2544  -24109640.25647 -17845039.43662
 93  6 11 20 43 29.9960000  0  4G 2G24G12G13
  21954594.6684    3819258.14746   2995914.28061
  20530599.3714  -16198851.03747 -12426812.21262
  20847794.660   -13730452.953 7 -10079090.18322
  19588064.8244  -24087031.77747 -17827422.45061
 93  6 11 20 43 59.9960000  0  4G 2G24G12G13
  21964578.2154    3871737.31845   3036807.06261
  20512162.746   -16295731.558 7 -12502303.47722
  20831016.387   -13818610.077 7 -10147784.02822
  19592425.7704  -24064115.45747 -17809565.58261
 93  6 11 20 44 29.9960000  0  4G 2G24G12G13
  21974613.301     3924449.928 6   3077881.74821
  20493809.8874  -16392191.81247 -12577467.25762
  20814314.4264  -13906390.08547 -10216184.01762
  19596848.0204  -24040881.82847 -17791461.46661
 93  6 11 20 44 59.9960000  0  4G 2G24G12G13
  21984683.856     3977406.456 6   3119146.50921
  20475530.4104  -16488239.86947 -12652309.84362
  20797681.9574  -13993788.42247 -10284286.59562
  19601328.4734  -24017331.48147 -17773110.55061
 93  6 11 20 45 29.9960000  0  4G 2G24G12G13
  21994813.988     4030627.437 6   3160617.35321
  20457330.6214  -16583885.13347 -12726838.56762
  20781122.137   -14080801.197 7 -10352088.72022
  19605869.7154  -23993465.41547 -17754513.62062
 93  6 11 20 45 59.9960000  0  4G 2G24G12G13
  22004994.340     4084127.235 6   3202305.43421
  20439205.1604  -16679131.09247 -12801056.14062
  20764641.7384  -14167419.83147 -10419583.74562
  19610471.9024  -23969280.56947 -17735668.29562
 93  6 11 20 46 29.9960000  0  4G 2G24G12G13
  22015224.559     4137885.564 6   3244194.97821
  20421152.559   -16774000.008 7 -12874979.91822
  20748231.699   -14253651.020 7 -10486776.84522
  19615133.3714  -23944788.49347 -17716583.57062
 93  6 11 20 46 59.9960000  0  4G 2G24G12G13
  22025504.637     4191896.760 6   3286281.53621
  20403171.566   -16868504.075 7 -12948619.40222
  20731894.645   -14339493.675 7 -10553667.19622
  19619851.520   -23919992.678 7 -17697262.16922
 93  6 11 20 47 29.9960000  0  4G 2G24G12G13
  22035830.6524    4246165.89245   3328569.08561
  20385257.0274  -16962629.86747 -13021964.11562
  20715635.660   -14424937.165 7 -10620246.52722
  19624630.4104  -23894888.05247 -17677700.13161
 93  6 11 20 47 59.9960000  0  4G 2G24G12G13
  22046204.191     4300672.406 5   3371041.61521
  20367417.785   -17056381.109 7 -13095016.98622
  20699451.066   -14509994.115 7 -10686524.63422
  19629462.4814  -23869492.07147 -17657911.06762
 93  6 11 20 48 29.9960000  0  4G 2G24G12G13
  22056619.418     4355419.521 5   3413701.63421
  20349651.2384  -17149750.68147 -13167772.45162
  20683339.371   -14594652.199 7 -10752491.94722
  19634351.0904  -23843797.12947 -17637889.03761
 93  6 11 20 48 59.9960000  0  4G 2G24G12G13
  22067088.4814    4410408.23645   3456549.92061
  20331955.863   -17242726.478 7 -13240221.07222
  20667307.496   -14678912.579 7 -10818149.36722
  19639296.0904  -23817809.16847 -17617638.69262
 93  6 11 20 49 29.9960000  0  4G 2G24G12G13
  22077596.6454    4465632.33146   3499581.59761
  20314344.723   -17335286.677 7 -13312345.85922
  20651348.0514  -14762770.69447 -10883493.32962
  19644296.9494  -23791529.03447 -17597160.67561
 93  6 11 20 49 59.9960000  0  4G 2G24G12G13
  22088146.2384    4521094.41345   3542798.72361
  20296810.941   -17427426.626 7 -13384143.17422
  20635467.5434  -14846220.59247 -10948519.19762
  19649354.3634  -23764956.01347 -17576454.43362
 93  6 11 20 50 29.9960000  0  4G 2G24G12G13
  22098748.9814    4576789.12845   3586197.14261
  20279353.371   -17519153.624 7 -13455618.71422
  20619668.1214  -14929263.13347 -11013227.65762
  19654465.6374  -23738095.51047 -17555524.17962
 93  6 11 20 50 59.9960000  0  4G 2G24G12G13
  22109391.145     4632729.319 5   3629786.80021
  20261981.4414  -17610449.17547 -13526758.05062
  20603940.848   -15011889.876 7 -11077612.10922
  19659632.6684  -23710944.04247 -17534367.19662
 93  6 11 20 51 29.9960000  0  4G 2G24G12G13
  22120077.496     4688902.861 5   3673558.30521
  20244687.035   -17701328.955 7 -13597573.42123
  20588296.0204  -15094109.46647 -11141679.31162
  19664853.1374  -23683515.16047 -17512994.04762
 93  6 11 20 51 59.9960000  0  4G 2G24G12G13
  22130816.5514    4745336.29645   3717532.34661
  20227472.395   -17791787.307 7 -13668060.40022
  20572731.5354  -15175906.02847 -11205416.87562
  19670129.0124  -23655798.29847 -17491396.50962
 93  6 11 20 52 29.9960000  0  4G 2G24G12G13
  22141606.1764    4802017.88445   3761699.73361
  20210343.824   -17881813.868 7 -13738210.93322
  20557245.6064  -15257281.72647 -11268826.49962
  19675454.7544  -23627800.25847 -17469579.87062
 93  6 11 20 52 59.9960000  0  4G 2G24G12G13
  22152436.816     4858935.655 5   3806051.15721
  20193293.332   -17971398.227 7 -13808016.88322
  20541840.4024  -15338244.79047 -11331914.58062
  19680832.8794  -23599534.45647 -17447554.58061
 93  6 11 20 53 29.9960000  0  4G 2G24G12G13
  22163315.0514    4916094.86645   3850590.71161
  20176336.371   -18060527.835 7 -13877468.49322
  20526512.0434  -15418787.57147 -11394675.18362
  19686263.4104  -23570998.19747 -17425318.55062
 93  6 11 20 53 59.9960000  0  4G 2G24G12G13
  22174237.434     4973503.942 5   3895324.98121
  20159462.2074  -18149187.11347 -13946553.59862
  20511268.0664  -15498903.78147 -11457103.38162
  19691745.6524  -23542190.19247 -17402870.76462
 93  6 11 20 54 29.9960000  0  4G 2G24G12G13
  22185211.184     5031146.826 5   3940241.44121
  20142681.5744  -18237379.28947 -14015274.72262
  20496101.3634  -15578596.83747 -11519201.85062
  19697278.5434  -23513118.34347 -17380217.38461
 93  6 11 20 54 59.9960000  0  4G 2G24G12G13
  22196222.020     5089040.359 5   3985353.20321
  20125982.223   -18325121.342 7 -14083645.10422
  20481018.8404  -15657854.17047 -11580960.79862
  19702862.5664  -23483775.06847 -17357352.49862
 93  6 11 20 55 29.9960000  0  4G 2G24G12G13
  22207287.4884    5147171.31545   4030649.94561
  20109363.7934  -18412456.93347 -14151698.76262
  20466018.6764  -15736684.26347 -11642386.82262
  19708494.441   -23454173.613 7 -17334286.43722
 93  6 11 20 55 59.9960000  0  4G 2G24G12G13
  22218390.910     5205532.960 5   4076126.47121
  20092820.199   -18499403.468 7 -14219449.26822
  20451101.9734  -15815075.26547 -11703470.69862
  19714179.4884  -23424307.00047 -17311013.76361
 93  6 11 20 56 29.9960000  0  4G 2G24G12G13
  22229542.5744    5264125.50645   4121782.92361
  20076344.262   -18585969.977 7 -14286903.64522
  20436270.191   -15893020.765 7 -11764207.43322
  19719912.7314  -23394173.79547 -17287533.34661
 93  6 11 20 56 59.9960000  0  4G 2G24G12G13
  22240736.9344    5322947.81745   4167618.39561
  20059949.473   -18672151.699 7 -14354058.19022
  20421518.9414  -15970525.56447 -11824600.76562
  19725695.0904  -23363783.92747 -17263852.94762
 93  6 11 20 57 29.9960000  0  4G 2G24G12G13
  22251971.0744    5381996.49645   4213630.27961
  20043622.332   -18757925.095 7 -14420894.56122
  20406855.1214  -16047589.63147 -11884650.66362
  19731525.9264  -23333141.80847 -17239975.98561
 93  6 11 20 57 59.9960000  0  4G 2G24G12G13
  22263254.2544    5441279.10245   4259824.43661
  20027382.848   -18843261.627 7 -14487390.51622
  20392275.5594  -16124212.24147 -11944356.57362
  19737406.7854  -23302251.24147 -17215905.43361
 93  6 11 20 58 29.9960000  0  4G 2G24G12G13
  22274581.9264    5500812.07545   4306213.67861
  20011235.410   -18928132.072 7 -14553523.29122
  20377776.777   -16200391.225 7 -12003716.79622
  19743328.7774  -23271115.22247 -17191643.60461
 93  6 11 20 58 59.9960000  0  4G 2G24G12G13
  22285957.9104    5560600.84345   4352802.22561
  19995175.816   -19012523.699 7 -14619282.96222
  20363369.2854  -16276114.97247 -12062722.29562
  19749302.9414  -23239727.02547 -17167185.28161
 93  6 11 20 59 29.9960000  0  4G 2G24G12G13
  22297384.035     5620638.574 5   4399584.79521
  19979201.996   -19096461.078 7 -14684688.67422
  20349044.6994  -16351387.83047 -12121376.46162
  19755320.9654  -23208095.87947 -17142537.64461
 93  6 11 20 59 59.9960000  0  4G 2G24G12G13
  22308851.660     5680919.633 5   4446556.97021
  19963317.0274  -19179944.88747 -14749740.94462
  20334806.293   -16426203.509 7 -12179674.36322
  19761387.7234  -23176220.14247 -17117699.41561
 93  6 11 21  0 29.9960000  0  4G 2G24G12G13
  22320371.8164    5741437.03745   4493713.31261
  19947511.731   -19262988.945 7 -14814450.56722
  20320659.3954  -16500557.15347 -12237612.25362
  19767499.0434  -23144099.18947 -17092670.10461
 93  6 11 21  0 59.9960000  0  4G 2G24G12G13
  22331933.4814    5802186.46145   4541050.42161
  19931793.566   -19345600.343 7 -14878823.04822
  20306596.6524  -16574446.49847 -12295188.34762
  19773657.7774  -23111735.91247 -17067451.98361
 93  6 11 21  1 29.9960000  0  4G 2G24G12G13
  22343534.7314    5863175.98645   4588574.64461
  19916159.574   -19427755.025 7 -14942839.64223
  20292625.5354  -16647865.72647 -12352398.12362
  19779863.2234  -23079129.04247 -17042044.03961
 93  6 11 21  1 59.9960000  0  4G 2G24G12G13
  22355188.738     5924400.776 5   4636282.17621
  19900614.262   -19509440.022 7 -15006490.24823
  20278747.5274  -16720814.72947 -12409241.48962
  19786113.4964  -23046283.00947 -17016449.73861
 93  6 11 21  2 29.9960000  0  4G 2G24G12G13
  22366885.0124    5985868.60345   4684179.10061
  19885160.566   -19590661.616 7 -15069779.76723
  20264953.340   -16793294.597 7 -12465719.28922
  19792408.5664  -23013203.47447 -16990673.48261
 93  6 11 21  2 59.9960000  0  4G 2G24G12G13
  22378632.066     6047578.989 5   4732265.04721
  19869795.621   -19671405.342 7 -15132696.91423
  20251248.8014  -16865304.57347 -12521830.95362
  19798746.1524  -22979894.38647 -16964718.36361
 93  6 11 21  3 29.9960000  0  4G 2G24G12G13
  22390414.832     6109519.413 5   4780530.23621
  19854516.684   -19751681.099 7 -15195249.41423
  20237637.2704  -16936845.60547 -12577577.19562
  19805129.6914  -22946361.61847 -16938588.93361
 93  6 11 21  3 59.9960000  0  4G 2G24G12G13
  22402249.0274    6171701.55245   4828983.75061
  19839327.902   -19831502.767 7 -15257448.07923
  20224113.7314  -17007907.50547 -12632950.08462
  19811551.973   -22912599.951 7 -16912281.15521
 93  6 11 21  4 29.9960000  0  4G 2G24G12G13
  22414129.496     6234124.656 5   4877625.03221
  19824227.496   -19910866.598 7 -15319289.99123
  20210680.8794  -17078489.04347 -12687948.67662
  19818020.2934  -22878612.12647 -16885797.14161
 93  6 11 21  4 59.9960000  0  4G 2G24G12G13
  22426048.559     6296777.873 5   4926445.62921
  19809212.606   -19989759.416 7 -15380764.87423
  20197344.6994  -17148586.48347 -12742570.04462
  19824531.4884  -22844399.32847 -16859137.83961
 93  6 11 21  5 29.9960000  0  4G 2G24G12G13
  22438010.637     6359647.422 5   4975434.79521
  19794286.598   -20068190.148 7 -15441879.69023
  20184094.121   -17218208.551 7 -12796820.98622
  19831081.6524  -22809974.57747 -16832313.36361
 93  6 11 21  5 59.9950000  0  4G 2G24G12G13
  22450020.312     6422743.912 5   5024600.78521
  19779457.444   -20146128.056 7 -15502610.48923
  20170938.8124  -17287337.18047 -12850687.44662
  19837674.8434  -22775327.87947 -16805315.94761
 93  6 11 21  6 29.9950000  0  4G 2G24G12G13
  22462066.007     6486045.123 5   5073926.30621
  19764720.319   -20223578.519 7 -15562961.46023
  20157876.9684  -17355983.16047 -12904177.80962
  19844308.3984  -22740467.28847 -16778151.85861
 93  6 11 21  6 59.9950000  0  4G 2G24G12G13
  22474154.452     6549547.816 5   5123408.80721
  19750068.288   -20300548.456 7 -15622938.00023
  20144907.7964  -17424143.80947 -12957289.98562
  19850980.5384  -22705398.71047 -16750825.70361
 93  6 11 21  7 29.9950000  0  4G 2G24G12G13
  22486275.9994    6613271.90545   5173063.83161
  19735513.538   -20377042.458 7 -15682543.67823
  20132031.601   -17491807.312 7 -13010014.77822
  19857696.9374  -22670114.64847 -16723331.64061
 93  6 11 21  7 59.9950000  0  4G 2G24G12G13
  22498448.280     6677226.720 5   5222898.65721
  19721051.866   -20453063.559 7 -15741780.86223
  20119247.4444  -17558971.46347 -13062350.46962
  19864451.9524  -22634617.05047 -16695671.18261
 93  6 11 21  8 29.9950000  0  4G 2G24G12G13
  22510662.608     6741432.740 5   5272929.19321
  19706674.999   -20528608.557 7 -15800647.06623
  20106563.9214  -17625630.21947 -13114292.34762
  19871243.4374  -22598904.72347 -16667843.41461
 93  6 11 21  8 59.9950000  0  4G 2G24G12G13
  22522939.851     6805910.320 5   5323171.38321
  19692390.437   -20603662.866 7 -15859130.90923
  20093978.9764  -17691777.13647 -13165835.37862
  19878084.2884  -22562975.54247 -16639846.66861
 93  6 11 21  9 29.9950000  0  4G 2G24G12G13
  22535255.218     6870645.416 5   5373614.18321
  19678199.405   -20678229.502 7 -15917234.74723
  20081487.2264  -17757420.60047 -13216986.11562
  19884959.5384  -22526842.32547 -16611690.92761
 93  6 11 21  9 59.9950000  0  4G 2G24G12G13
  22547616.1244    6935617.09544   5424241.34961
  19664105.257   -20752316.363 7 -15974964.73423
  20069086.1164  -17822573.75947 -13267754.80062
  19891871.8584  -22490522.51547 -16583389.78361
 93  6 11 21 10 29.9950000  0  4G 2G24G12G13
  22560025.8824    7000825.70845   5475053.14961
  19650098.085   -20825926.116 7 -16032322.95223
  20056783.6244  -17887222.65247 -13318130.55162
  19898821.7964  -22454006.26747 -16554935.58861
 93  6 11 21 10 59.9950000  0  4G 2G24G12G13
  22572480.452     7066259.089 5   5526040.09821
  19636179.460   -20899063.903 7 -16089313.40523
  20044578.7184  -17951361.66947 -13368109.00362
  19905807.0464  -22417292.30947 -16526327.31461
 93  6 11 21 11 29.9950000  0  4G 2G24G12G13
  22584969.8274    7131900.73345   5577189.33261
  19622348.1874  -20971743.86647 -16145947.11363
  20032470.8044  -18014995.18747 -13417693.54662
  19912828.3984  -22380389.76847 -16497572.09461
 93  6 11 21 11 59.9950000  0  4G 2G24G12G13
  22597500.718     7197755.714 4   5628504.75321
  19608602.733   -21043967.632 7 -16202225.34823
  20020460.093   -18078115.863 7 -13466878.47422
  19919889.4374  -22343295.75547 -16468667.69361
 93  6 11 21 12 29.9950000  0  4G 2G24G12G13
  22610070.4374    7263822.30644   5679985.12661
  19594945.679   -21115732.595 7 -16258146.05023
  20008546.1634  -18140719.68047 -13515660.66662
  19926983.4524  -22306010.42647 -16439614.19761
 93  6 11 21 12 59.9950000  0  4G 2G24G12G13
  22622686.5154    7330096.72845   5731627.43461
  19581379.733   -21187016.305 7 -16313691.77423
  19996730.6554  -18202809.11847 -13564042.04263
  19934113.0854  -22268540.16647 -16410416.60461
 93  6 11 21 13 29.9950000  0  4G 2G24G12G13
  22635343.804     7396589.910 5   5783440.22021
  19567910.968   -21257802.610 7 -16368849.89723
  19985015.8354  -18264376.41147 -13612016.53962
  19941278.8194  -22230881.56847 -16381072.24661
 93  6 11 21 13 59.9950000  0  3G24G12G13
  19554534.593   -21328088.400 7 -16423618.01523
  19973397.9444  -18325425.54047 -13659587.27862
  19948480.1404  -22193043.04547 -16351587.69561
 93  6 11 21 14 29.9950000  0  3G24G12G13
  19541260.116   -21397849.422 7 -16477977.21523
  19961880.7414  -18385946.82547 -13706746.72263
  19955714.6554  -22155018.76747 -16321958.41361
 93  6 11 21 14 59.9950000  0  3G24G12G13
  19528089.819   -21467063.490 7 -16531910.22623
  19950467.5544  -18445930.43047 -13753487.18162
  19962989.4444  -22116803.31447 -16292180.13761
 93  6 11 21 15 29.9950000  0  3G24G12G13
  19515014.101   -21535770.715 7 -16585448.29523
  19939152.5774  -18505395.44947 -13799823.55162
  19970290.6874  -22078419.56547 -16262270.73861
 93  6 11 21 15 59.9950000  0  3G24G12G13
  19502037.335   -21603965.291 7 -16638586.89223
  19927938.2184  -18564324.90147 -13845742.59562
  19977629.9914  -22039854.66947 -16232220.17661
 93  6 11 21 16 29.9950000  0  3G24G12G13
  19489154.648   -21671666.826 7 -16691341.30223
  19916823.5934  -18622726.84747 -13891250.59363
  19985001.3824  -22001121.03247 -16202038.14761
 93  6 11 21 16 59.9950000  0  3G24G12G13
  19476363.7024  -21738886.55147 -16743720.28263
  19905811.8434  -18680594.87247 -13936342.55162
  19992405.5854  -21962216.32247 -16171722.79161
 93  6 11 21 17 29.9950000  0  3G24G12G13
  19463662.687   -21805640.175 7 -16795736.06023
  19894899.2264  -18737931.30047 -13981020.27363
  19999838.6484  -21923146.15147 -16141278.51361
 93  6 11 21 17 59.9950000  0  3G24G12G13
  19451051.616   -21871919.341 7 -16847382.13323
  19884089.2494  -18794734.57547 -14025282.56062
  20007305.663   -21883913.599 7 -16110707.71821
 93  6 11 21 18 29.9950000  0  3G24G12G13
  19438531.890   -21937702.862 7 -16898641.99123
  19873383.6554  -18850996.63547 -14069123.11163
  20014802.9054  -21844514.84747 -16080007.41061
 93  6 11 21 18 59.9950000  0  3G24G12G13
  19426109.444   -22002975.702 7 -16949503.91423
  19862784.5464  -18906707.65147 -14112534.29163
  20022333.1404  -21804943.51347 -16049172.61361
 93  6 11 21 19 29.9950000  0  3G24G12G13
  19413782.999   -22067741.941 7 -16999971.09023
  19852287.2104  -18961872.24147 -14155519.68063
  20029893.9134  -21765208.01647 -16018209.89661
 93  6 11 21 19 59.9950000  0  3G24G12G13
  19401556.858   -22132005.529 7 -17050046.58123
  19841890.1714  -19016497.68847 -14198084.95763
  20037485.046   -21725319.750 7 -15987128.15421
 93  6 11 21 20 29.9950000  0  3G24G12G13
  19389426.757   -22195752.186 7 -17099719.27023
  19831598.9374  -19070572.51647 -14240221.17063
  20045106.4994  -21685271.01447 -15955921.36161
 93  6 11 21 20 59.9950000  0  3G24G12G13
  19377388.819   -22258999.321 7 -17149002.72523
  19821416.819   -19124097.888 7 -14281929.24723
  20052755.7184  -21645067.14647 -15924593.68061
 93  6 11 21 21 29.9950000  0  3G24G12G13
  19365449.210   -22321755.404 7 -17197903.54723
  19811332.6244  -19177081.97147 -14323215.53463
  20060433.569   -21604720.005 7 -15893154.35921
 93  6 11 21 21 59.9950000  0  3G24G12G13
  19353603.577   -22384003.314 7 -17246408.38523
  19801353.3514  -19229512.94047 -14364070.83563
  20068140.3274  -21564221.49547 -15861597.09861
 93  6 11 21 22 29.9950000  0  3G24G12G13
  19341854.9374  -22445726.39647 -17294504.26963
  19791487.3124  -19281374.44247 -14404482.39263
  20075876.7024  -21523558.95947 -15829912.02161
 93  6 11 21 22 59.9950000  0  3G24G12G13
  19330211.5624  -22506929.96547 -17342195.34063
  19781724.0854  -19332674.46747 -14444456.42463
  20083644.8354  -21482744.25047 -15798108.37661
 93  6 11 21 23 29.9950000  0  3G24G12G13
  19318664.124   -22567600.115 7 -17389470.74923
  19772068.9294  -19383419.39947 -14483997.92863
  20091440.6634  -21441787.30947 -15766193.87361
 93  6 11 21 23 59.9950000  0  3G24G12G13
  19307224.288   -22627728.464 7 -17436323.98823
  19762516.4444  -19433601.57747 -14523100.91863
  20099261.757   -21400683.552 7 -15734164.98521
 93  6 11 21 24 29.9950000  0  3G24G12G13
  19295882.749   -22687312.859 7 -17482753.36423
  19753076.6714  -19483218.90347 -14561763.75963
  20107110.132   -21359435.210 7 -15702023.45521
 93  6 11 21 24 59.9950000  0  3G24G12G13
  19284648.390   -22746366.665 7 -17528769.29123
  19743741.1014  -19532271.18947 -14599986.32163
  20114987.4994  -21318045.43847 -15669771.69361
 93  6 11 21 25 29.9950000  0  3G24G12G13
  19273503.343   -22804918.093 7 -17574393.75823
  19734515.8274  -19580762.46647 -14637771.72363
  20122888.8904  -21276522.27747 -15637415.98561
 93  6 11 21 25 59.9950000  0  3G24G12G13
  19262457.187   -22862981.053 7 -17619637.60023
  19725394.3274  -19628681.95447 -14675111.57763
  20130816.273   -21234857.927 7 -15604950.28021
 93  6 11 21 26 29.9950000  0  3G24G12G13
  19251495.9054  -22920569.33047 -17664511.56063
  19716384.7414  -19676040.20147 -14712014.09963
  20138768.9604  -21193067.20647 -15572386.09061
 93  6 11 21 26 59.9950000  0  3G24G12G13
  19240628.921   -22977678.467 7 -17709012.16323
  19707481.2104  -19722829.05447 -14748472.95463
  20146745.819   -21151144.931 7 -15539719.41221
 93  6 11 21 27 29.9950000  0  3G24G12G13
  19229860.5304  -23034279.64047 -17753116.95163
  19698686.1404  -19769038.48047 -14784480.28163
  20154749.7734  -21109084.53247 -15506945.08561
 93  6 11 21 27 59.9950000  0  3G24G12G13
  19219191.2024  -23090343.89847 -17796803.36763
  19690003.7804  -19814669.26147 -14820036.73863
  20162779.8274  -21066890.41247 -15474066.54861
 93  6 11 21 28 29.9950000  0  3G24G12G13
  19208626.812   -23145855.981 7 -17840059.51423
  19681433.4134  -19859718.47547 -14855140.01363
  20170833.874   -21024562.956 7 -15441084.13521
 93  6 11 21 28 59.9950000  0  3G24G12G13
  19198168.3124  -23200808.76047 -17882879.84263
  19672970.8274  -19904178.94547 -14889784.53663
  20178915.1484  -20982098.04847 -15407994.61761
 93  6 11 21 29 29.9950000  0  3G24G12G13
  19187815.030   -23255221.053 7 -17925279.01223
  19664619.6014  -19948065.34047 -14923981.72763
  20187018.9214  -20939513.29947 -15374811.71161
 93  6 11 21 29 59.9950000  0  3G24G12G13
  19177563.3664  -23309098.45647 -17967261.38163
  19656377.4294  -19991371.55247 -14957726.82363
  20195145.4914  -20896806.60747 -15341533.77961
 93  6 11 21 30 29.9950000  0  3G24G12G13
  19167409.5234  -23362457.68547 -18008839.98063
  19648246.1554  -20034096.84347 -14991019.26162
  20203295.905   -20853980.508 7 -15308162.80721
 93  6 11 21 30 59.9950000  0  3G24G12G13
  19157357.0074  -23415289.28747 -18050007.44163
  19640227.6634  -20076236.55847 -15023855.39662
  20211469.5854  -20811032.71447 -15274697.00661
 93  6 11 21 31 29.9950000  0  3G24G12G13
  19147402.1084  -23467600.12447 -18090769.11263
  19632320.5624  -20117794.97647 -15056238.57863
  20219662.4054  -20767971.81947 -15241143.07661
 93  6 11 21 31 59.9950000  0  3G24G12G13
  19137547.601   -23519387.790 7 -18131123.11623
  19624521.4994  -20158773.26447 -15088169.70962
  20227877.5464  -20724801.65247 -15207503.99961
 93  6 11 21 32 29.9950000  0  3G24G12G13
  19127792.116   -23570646.459 7 -18171064.92123
  19616833.4684  -20199168.36747 -15119646.41762
  20236112.3274  -20681522.04747 -15173779.64361
 93  6 11 21 32 59.9950000  0  3G24G12G13
  19118141.866   -23621365.100 7 -18210585.91723
  19609259.4214  -20238974.38347 -15150664.08662
  20244369.6324  -20638130.47947 -15139968.04361
 93  6 11 21 33 29.9950000  0  3G24G12G13
  19108591.6484  -23671541.86047 -18249684.67663
  19601798.1244  -20278188.68747 -15181220.69462
  20252650.0154  -20594627.84547 -15106069.90161
 93  6 11 21 33 59.9950000  0  3G24G12G13
  19099143.5384  -23721185.41847 -18288367.94663
  19594449.1404  -20316821.64047 -15211324.28662
  20260945.9214  -20551026.85047 -15072095.10861
 93  6 11 21 34 29.9950000  0  3G24G12G13
  19089801.0694  -23770284.20747 -18326626.72663
  19587209.0544  -20354862.37547 -15240966.42462
  20269261.827   -20507319.590 7 -15038037.52321
 93  6 11 21 34 59.9950000  0  3G24G12G13
  19080558.6794  -23818860.11147 -18364478.06263
  19580081.1014  -20392314.41647 -15270149.83662
  20277599.351   -20463512.903 7 -15003902.45821
 93  6 11 21 35 29.9950000  0  3G24G12G13
  19071414.0384  -23866922.21147 -18401929.03563
  19573064.7494  -20429175.40047 -15298872.68462
  20285952.382   -20419607.379 7 -14969690.37821
 93  6 11 21 35 59.9950000  0  3G24G12G13
  19062360.140   -23914487.064 7 -18438992.53523
  19566166.2734  -20465443.55047 -15327133.58062
  20294327.679   -20375603.844 7 -14935401.93221
 93  6 11 21 36 29.9950000  0  3G24G12G13
  19053401.9374  -23961568.70747 -18475679.51263
  19559375.7494  -20501117.20647 -15354931.24062
  20302718.1404  -20331503.27247 -14901037.87061
 93  6 11 21 36 59.9950000  0  3G24G12G13
  19044532.5384  -24008162.84247 -18511986.61563
  19552703.8984  -20536190.11047 -15382260.77962
  20311131.8274  -20287302.33247 -14866595.59261
 93  6 11 21 37 29.9950000  0  3G24G12G13
  19035764.1084  -24054257.30447 -18547904.35863
  19546140.4524  -20570669.03047 -15409127.47262
  20319560.1794  -20243010.48047 -14832082.46761
 93  6 11 21 37 59.9950000  0  3G24G12G13
  19027088.5384  -24099839.97247 -18583423.30462
  19539693.2654  -20604558.34647 -15435534.73762
  20328004.6404  -20198635.51547 -14797504.58961
 93  6 11 21 38 29.9950000  0  3G24G12G13
  19018520.9444  -24144876.71447 -18618516.85463
  19533356.0624  -20637849.30247 -15461475.74862
  20336465.671   -20154170.845 7 -14762856.84021
 93  6 11 21 38 59.9950000  0  3G24G12G13
  19010058.6324  -24189335.93547 -18653160.38663
  19527138.4834  -20670530.37847 -15486941.52962
  20344945.0694  -20109607.90047 -14728132.48761
 93  6 11 21 39 29.9950000  0  3G24G12G13
  19001704.1554  -24233231.57247 -18687364.76462
  19521034.5854  -20702610.29747 -15511938.87262
  20353441.4294  -20064957.78547 -14693340.19461
 93  6 11 21 39 59.9950000  0  3G24G12G13
  18993457.2414  -24276575.89847 -18721139.54963
  19515042.6714  -20734089.73847 -15536468.30962
  20361954.4444  -20020223.50947 -14658482.32461
 93  6 11 21 40 29.9950000  0  3G24G12G13
  18985311.7804  -24319382.60347 -18754495.41162
  19509168.4134  -20764967.10147 -15560528.59762
  20370482.3664  -19975406.61747 -14623560.11761
 93  6 11 21 40 59.9950000  0  3G24G12G13
  18977263.1084  -24361669.28447 -18787446.05562
  19503407.8194  -20795244.84847 -15584121.64862
  20379025.8044  -19930511.88947 -14588577.23261
 93  6 11 21 41 29.9950000  0  3G24G12G13
  18969313.6714  -24403440.88447 -18819995.34162
  19497759.7494  -20824921.56147 -15607246.36862
  20387584.4834  -19885540.15247 -14553534.32761
 93  6 11 21 41 59.9950000  0  3G24G12G13
  18961465.8744  -24444681.60447 -18852130.95162
  19492228.4444  -20853989.07547 -15629896.38162
  20396157.7184  -19840485.98846 -14518427.20361
 93  6 11 21 42 29.9950000  0  3G24G12G13
  18953720.1324  -24485390.19347 -18883851.92262
  19486813.5234  -20882448.46247 -15652072.53262
  20404746.694   -19795352.515 7 -14483258.30021
 93  6 11 21 42 59.9950000  0  3G24G12G13
  18946072.0934  -24525574.26247 -18915164.16762
  19481512.1874  -20910301.54647 -15673776.24062
  20413350.3124  -19750144.37847 -14448031.19061
 93  6 11 21 43 29.9950000  0  3G24G12G13
  18938522.2024  -24565249.30847 -18946079.77662
  19476327.7334  -20937550.25347 -15695008.99862
  20421965.9374  -19704865.48247 -14412748.95861
 93  6 11 21 43 59.9950000  0  3G24G12G13
  18931069.8274  -24604415.53247 -18976598.90262
  19471258.5544  -20964193.92947 -15715770.31262
  20430595.187   -19659517.740 6 -14377413.08621
 93  6 11 21 44 29.9950000  0  3G24G12G13
  18923715.4294  -24643067.79647 -19006717.53762
  19466303.5074  -20990221.80647 -15736051.77862
  20439238.4524  -19614092.82747 -14342017.06961
 93  6 11 21 44 59.9950000  0  3G24G12G13
  18916458.8904  -24681212.33347 -19036440.54362
  19461463.2804  -21015646.22247 -15755863.02562
  20447893.952   -19568605.141 7 -14306572.13221
 93  6 11 21 45 29.9950000  0  3G24G12G13
  18909298.7494  -24718824.53147 -19065748.74062
  19456743.5464  -21040462.24647 -15775200.19262
  20456564.218   -19523051.572 7 -14271075.86321
 93  6 11 21 45 59.9940000  0  4G20G24G12G13
  22567216.5574         -0.88754
  18902246.4634  -24755884.37947 -19094626.53062
  19452138.2054  -21064665.09647 -15794059.56862
  20465245.5574  -19477431.71447 -14235527.94661
 93  6 11 21 46 29.9940000  0  4G20G24G12G13
  22544715.822     -118204.668 3
  18895298.8694  -24792406.72447 -19123085.49162
  19447644.5964  -21088264.37047 -15812448.62262
  20473936.963   -19431753.330 7 -14199934.44321
 93  6 11 21 46 59.9940000  0  4G20G24G12G13
  22522221.8854    -236402.36643        -0.29871
  18888449.6114  -24828387.71247 -19151122.60762
  19443271.3224  -21111261.12247 -15830368.17762
  20482640.3074  -19386021.42147 -14164299.20461
 93  6 11 21 47 29.9940000  0  4G20G24G12G13
  22499735.861     -354577.963 3    -92085.09321
  18881708.3854  -24863826.17047 -19178736.97862
  19439010.4474  -21133640.69647 -15847806.81562
  20491354.1114  -19340223.11347 -14128612.23261
 93  6 11 21 47 59.9940000  0  4G20G24G12G13
  22477251.025     -472727.168 3   -184149.34721
  18875064.7754  -24898725.04847 -19205930.89662
  19434872.3154  -21155399.89647 -15864762.04162
  20500082.900   -19294357.493 7 -14092872.80321
 93  6 11 21 48 29.9940000  0  4G20G24G12G13
  22454781.3934    -590851.80844   -276194.41461
  18868527.1664  -24933091.66647 -19232710.06762
  19430847.5414  -21176541.89947 -15881236.33362
  20508822.565   -19248429.411 7 -14057084.72321
 93  6 11 21 48 59.9940000  0  4G20G24G12G13
  22432306.783     -708957.445 5   -368224.70921
  18862084.893   -24966942.195 7 -19259087.08722
  19426941.8774  -21197073.59947 -15897235.07662
  20517572.518   -19202447.793 7 -14021254.91921
 93  6 11 21 49 29.9940000  0  4G20G24G12G13
  22409838.424     -827034.715 5   -460232.90621
  18855740.4084  -25000271.57047 -19285058.02362
  19423152.3934  -21216986.78047 -15912751.85062
  20526333.6044  -19156406.92547 -13985378.92561
 93  6 11 21 49 59.9940000  0  4G20G24G12G13
  22387368.9554    -945090.87745   -552224.66661
  18849500.8614  -25033073.51447 -19310617.96362
  19419476.9084  -21236290.33647 -15927793.59362
  20535102.8384  -19110317.17146 -13949464.84161
 93  6 11 21 50 29.9940000  0  4G20G24G12G13
  22364908.0654   -1063116.17245   -644192.36161
  18843359.3154  -25065349.14447 -19335767.79462
  19415920.2834  -21254975.96347 -15942353.83362
  20543883.416   -19064172.324 6 -13913507.85021
 93  6 11 21 50 59.9940000  0  4G20G24G12G13
  22342458.283    -1181108.920 5   -736134.69621
  18837321.7054  -25097085.24547 -19360497.21262
  19412483.205   -21273043.353 7 -15956432.33522
  20552676.549   -19017973.056 7 -13877508.46021
 93  6 11 21 51 29.9940000  0  4G20G24G12G13
  22320012.932    -1299064.792 5   -828048.28221
  18831386.3384  -25128270.13647 -19384797.12462
  19409162.6664  -21290489.85147 -15970027.01562
  20561478.6584  -18971718.69747 -13841466.11561
 93  6 11 21 51 59.9940000  0  4G20G24G12G13
  22297571.1114   -1416985.90545   -919934.78661
  18825553.8934  -25158917.12947 -19408677.89162
  19405960.9864  -21307318.68147 -15983140.39962
  20570290.658   -18925414.355 6 -13805384.83421
 93  6 11 21 52 29.9940000  0  4G20G24G12G13
  22275131.135    -1534874.987 5  -1011796.33221
  18819820.5964  -25189046.00448 -19432154.93162
  19402874.7364  -21323534.43447 -15995776.06262
  20579109.9864  -18879066.46246 -13769269.61461
 93  6 11 21 52 59.9940000  0  4G20G24G12G13
  22252709.4864   -1652724.82445  -1103627.31661
  18814186.2604  -25218657.38548 -19455228.72562
  19399907.1584  -21339131.12147 -16007929.33662
  20587938.2834  -18832670.77146 -13733117.15961
 93  6 11 21 53 29.9940000  0  4G20G24G12G13
  22230293.885    -1770535.655 5  -1195427.89621
  18808644.2134  -25247782.09948 -19477923.29762
  19397056.3934  -21354110.85447 -16019601.86662
  20596775.2914  -18786230.23347 -13696929.74261
 93  6 11 21 53 59.9940000  0  4G20G24G12G13
  22207880.596    -1888308.187 5  -1287198.63921
  18803191.7214  -25276418.52847 -19500237.38862
  19394324.6194  -21368475.95747 -16030795.47062
  20605620.8614  -18739748.83447 -13660710.49861
 93  6 11 21 54 29.9940000  0  4G20G24G12G13
  22185475.518    -2006034.766 5  -1378933.54221
  18797838.5184  -25304557.77348 -19522164.05962
  19391708.3694  -21382220.40747 -16041505.43862
  20614474.799   -18693222.114 6 -13624455.95321
 93  6 11 21 54 59.9940000  0  4G20G24G12G13
  22163081.166    -2123724.863 5  -1470640.08721
  18792578.6434  -25332202.01647 -19543705.02362
  19389209.6744  -21395355.64947 -16051740.70462
  20623335.065   -18646662.989 6 -13588176.14721
 93  6 11 21 55 29.9940000  0  4G20G24G12G13
  22140693.9714   -2241370.43445  -1562311.89161
  18787415.0804  -25359327.38947 -19564841.66662
  19386828.0964  -21407875.36447 -16061496.33562
  20632202.2134  -18600066.52247 -13551867.22861
 93  6 11 21 55 59.9940000  0  4G20G24G12G13
  22118315.3074   -2358964.58745  -1653943.62561
  18782358.9944  -25385902.21247 -19585549.31462
  19384561.6504  -21419774.71647 -16070768.57462
  20641075.2054  -18553429.57446 -13515526.76261
 93  6 11 21 56 29.9940000  0  4G20G24G12G13
  22095950.1504   -2476515.65245  -1745541.79761
  18777403.9714  -25411943.71048 -19605841.38562
  19382414.0724  -21431063.59147 -16079565.11562
  20649955.065   -18506763.836 6 -13479163.86821
 93  6 11 21 56 59.9940000  0  4G20G24G12G13
  22073583.3464   -2594017.14545  -1837101.33161
  18772551.4244  -25437436.35748 -19625705.77462
  19380383.9004  -21441737.66847 -16087882.59462
  20658843.377   -18460065.673 6 -13442775.72921
 93  6 11 21 57 29.9940000  0  4G20G24G12G13
  22051242.713    -2711456.932 5  -1928612.78821
  18767809.8934  -25462370.06148 -19645134.62862
  19378469.8154  -21451786.50247 -16095712.86562
  20667737.549   -18413325.717 6 -13406355.04421
 93  6 11 21 57 59.9940000  0  4G20G24G12G13
  22028900.604    -2828842.509 5  -2020082.00421
  18763165.3544  -25486770.29847 -19664147.79362
  19376674.7134  -21461219.52647 -16103063.28962
  20676638.2604  -18366555.19446 -13369910.49861
 93  6 11 21 58 29.9940000  0  4G20G24G12G13
  22006569.486    -2946180.428 5  -2111514.10221
  18758618.4474  -25510656.64748 -19682760.52862
  19374996.9474  -21470045.52447 -16109940.70262
  20685541.5804  -18319762.91046 -13333448.98761
 93  6 11 21 58 59.9940000  0  4G20G24G12G13
  21984255.4474   -3063462.62545  -2202902.79561
  18754170.6824  -25534026.41348 -19700970.72462
  19373434.9794  -21478258.46647 -16116340.41062
  20694451.1974  -18272944.78246 -13296967.34061
 93  6 11 21 59 29.9940000  0  4G20G24G12G13
  21961947.5884   -3180683.17045  -2294243.40761
  18749821.5184  -25556887.51048 -19718784.56262
  19371988.8154  -21485854.52847 -16122259.43762
  20703367.815   -18226098.031 6 -13260463.42421
 93  6 11 21 59 59.9940000  0  4G20G24G12G13
  21939657.1114   -3297835.33845  -2385530.75861
  18745566.2684  -25579247.26548 -19736207.74462
  19370659.2834  -21492829.00647 -16127694.11262
  20712287.815   -18179218.446 6 -13223933.92321
 93  6 11 22  0 29.9940000  0  4G20G24G12G13
  21917374.900    -3414921.643 5  -2476766.75721
  18741407.5964  -25601103.93148 -19753238.90162
  19369452.2364  -21499186.48047 -16132648.00162
  20721213.0964  -18132312.16546 -13187383.60961
 93  6 11 22  0 59.9940000  0  4G20G24G12G13
  21895105.650    -3531940.109 5  -2567949.92621
  18737342.8934  -25622458.02848 -19769878.45562
  19368358.9634  -21504927.43847 -16137121.49062
  20730143.479   -18085380.504 6 -13150813.50221
 93  6 11 22  1 29.9940000  0  4G20G24G12G13
  21872849.4474   -3648891.54645  -2659080.86361
  18733377.1044  -25643306.89548 -19786124.31562
  19367384.4084  -21510054.78647 -16141116.84062
  20739077.8304  -18038427.20546 -13114226.54561
 93  6 11 22  1 59.9940000  0  5G20G16G24G12G13
  21850610.549    -3765775.181 5  -2750158.93921
  22549675.8774         -0.55455
  18729505.7604  -25663654.84348 -19801979.85862
  19366520.7524  -21514569.87947 -16144635.10762
  20748016.830   -17991454.642 6 -13077624.58521
 93  6 11 22  2 29.9940000  0  5G20G16G24G12G13
  21828379.830    -3882589.815 5  -2841183.30021
  22528226.0574    -112699.43744
  18725731.2444  -25683479.58948 -19817427.70362
  19365780.7444  -21518474.08047 -16147677.35262
  20756957.8694  -17944464.86546 -13041009.18561
 93  6 11 22  2 59.9940000  0  5G20G16G24G12G13
  21806164.6504   -3999334.22845  -2932152.90761
  22506778.846     -225397.965 5
  18722058.4634  -25702783.47748 -19832469.69462
  19365154.6504  -21521768.40347 -16150244.37762
  20765903.7364  -17897459.74746 -13004381.85661
 93  6 11 22  3 29.9940000  0  5G20G16G24G12G13
  21783966.4864   -4115987.58145  -3023051.58161
  22485339.861     -338083.010 5        -0.17831
  18718487.2134  -25721549.37448 -19847092.46362
  19364647.127   -21524434.378 7 -16152321.77722
  20774854.1744  -17850421.60046 -12967728.79461
 93  6 11 22  3 59.9940000  0  5G20G16G24G12G13
  21761782.2054   -4232560.27445  -3113887.38061
  22463889.6974    -450773.94845    -87811.14561
  18715016.4164  -25739786.98948 -19861303.58462
  19364256.5494  -21526484.88247 -16153919.58062
  20783809.822   -17803363.999 6 -12931060.56521
 93  6 11 22  4 29.9940000  0  5G20G16G24G12G13
  21739617.0414   -4349056.16546  -3204663.33161
  22442447.0724    -563482.46644   -175635.78261
  18711647.7054  -25757491.44248 -19875099.25762
  19363980.205   -21527926.423 7 -16155042.88322
  20792765.8934  -17756294.45846 -12894383.02561
 93  6 11 22  4 59.9940000  0  5G20G16G24G12G13
  21717462.6504   -4465463.45446  -3295370.28561
  22420989.643     -676197.027 4   -263465.17321
  18708377.7444  -25774678.83548 -19888492.02862
  19363823.7054  -21528749.83047 -16155684.51562
  20801727.166   -17709204.280 6 -12857689.39821
 93  6 11 22  5 29.9940000  0  5G20G16G24G12G13
  21695329.0964   -4581775.69445  -3386003.13661
  22399544.5724    -788924.34445   -351304.49061
  18705204.6114  -25791346.23548 -19901479.60062
  19363788.979   -21528950.973 7
  20810694.479   -17662090.198 6 -12820977.15121
 93  6 11 22  5 59.9940000  0  5G20G16G24G12G13
  21673212.9324   -4697996.97145  -3476565.10961
  22378086.4004    -901669.77845   -439157.93561
  18702129.9404  -25807506.28048 -19914071.83762
  19363865.1274  -21528536.54247
  20819661.6274  -17614959.13846 -12784251.68061
 93  6 11 22  6 29.9940000  0  5G20G16G24G12G13
  21651115.8934   -4814132.24946  -3567060.07861
  22356625.1664   -1014434.74245   -527026.57361
  18699147.2134  -25823181.49648 -19926286.28862
  19364059.4554  -21527513.99147 -16154721.57762
  20828633.096   -17567818.680 6 -12747518.87321
 93  6 11 22  6 59.9940000  0  5G20G16G24G12G13
  21629033.854    -4930178.051 6  -3657485.32221
  22335170.7754   -1127206.82645   -614900.81161
  18696254.4714  -25838388.06348 -19938135.55462
  19364370.182   -21525882.558 7 -16153450.35122
  20837605.635   -17520668.859 6 -12710778.81021
 93  6 11 22  7 29.9940000  0  5G20G16G24G12G13
  21606965.635    -5046129.970 6  -3747837.42421
  22313705.7444   -1239978.31545   -702774.53561
  18693453.9944  -25853105.27248 -19949603.50062
  19364795.8304  -21523640.60047 -16151703.38562
  20846577.3154  -17473508.80346 -12674030.76061
 93  6 11 22  7 59.9940000  0  5G20G16G24G12G13
  21584921.4244   -5161988.54146  -3838116.77061
  22292254.650    -1352728.874 5   -790631.97921
  18690746.2834  -25867333.52448 -19960690.45062
  19365340.3384  -21520791.53847 -16149483.35562
  20855553.674   -17426341.811 6 -12637277.29421
 93  6 11 22  8 29.9940000  0  5G20G16G24G12G13
  21562895.275    -5277742.423 6  -3928314.55521
  22270801.3464   -1465442.60445   -878460.72461
  18688136.5654  -25881045.44848 -19971375.05762
  19366000.4634  -21517326.66347 -16146783.47362
  20864534.830   -17379159.964 6 -12600512.24821
 93  6 11 22  8 59.9940000  0  5G20G16G24G12G13
  21540880.6114   -5393395.85445  -4018434.05861
  22249362.916    -1578123.174 5   -966263.64821
  18685624.9474  -25894239.38448 -19981656.03962
  19366774.7294  -21513253.05447 -16143609.25362
  20873513.8614  -17331970.52446 -12563741.24861
 93  6 11 22  9 29.9940000  0  5G20G16G24G12G13
  21518894.4634   -5508940.95045  -4108469.16561
  22227929.690    -1690766.905 5  -1054037.86321
  18683216.0574  -25906909.92148 -19991529.18062
  19367665.002   -21508565.692 7 -16139956.78522
  20882494.861   -17284769.114 6 -12526960.95521
 93  6 11 22  9 59.9940000  0  5G20G16G24G12G13
  21496930.1664   -5624367.30545  -4198411.69961
  22206501.916    -1803357.311 5  -1141770.52621
  18680901.1354  -25919065.32148 -20001000.91662
  19368677.2754  -21503256.85947 -16135820.05162
  20891480.2524  -17237548.01446 -12490165.34761
 93  6 11 22 10 29.9940000  0  5G20G16G24G12G13
  21474987.3544   -5739687.80946  -4288271.79061
  22185081.088    -1915921.144 5  -1229482.46421
  18678681.7834  -25930727.49148 -20010088.31262
  19369803.5334  -21497342.32147 -16131211.34062
  20900466.604   -17190323.284 6 -12453366.88721
 93  6 11 22 10 59.9940000  0  5G20G16G24G12G13
  21453059.400    -5854898.776 5  -4378046.52721
  22163667.8384   -2028456.09545  -1317171.89661
  18676553.2294  -25941915.65148 -20018806.35462
  19371041.4474  -21490821.47347 -16126130.17862
  20909454.885   -17143094.466 6 -12416565.25121
 93  6 11 22 11 29.9940000  0  5G20G16G24G12G13
  21431160.541    -5969993.026 6  -4467730.30621
  22142255.736    -2140962.343 5  -1404838.98521
  18674516.7994  -25952613.61548 -20027142.42762
  19372399.3934  -21483690.09747 -16120573.29062
  20918444.236   -17095857.237 6 -12379757.05521
 93  6 11 22 11 59.9940000  0  5G20G16G24G12G13
  21409280.510    -6084970.555 6  -4557323.13421
  22120852.4474   -2253440.42345  -1492484.13061
  18672578.0804  -25962800.44648 -20035080.21262
  19373870.6904  -21475951.38047 -16114543.13862
  20927434.1584  -17048614.99146 -12342944.96361
 93  6 11 22 12 29.9940000  0  5G20G16G24G12G13
  21387424.596    -6199828.123 6  -4646822.51421
  22099456.8304   -2365896.35545  -1580112.00861
  18670738.4634  -25972475.58048 -20042619.28162
  19375459.283   -21467604.935 7 -16108039.44522
  20936424.7684  -17001367.51046 -12306128.77161
 93  6 11 22 12 59.9940000  0  5G20G16G24G12G13
  21365587.5654   -6314571.51146  -4736232.90061
  22078055.619    -2478321.827 5  -1667716.16821
  18668992.0254  -25981650.15448 -20049768.30162
  19377163.5964  -21458659.40647 -16101068.92362
  20945414.549   -16954123.690 6 -12269315.41421
 93  6 11 22 13 29.9940000  0  5G20G16G24G12G13
  21343778.752    -6429186.537 6  -4825543.25821
  22056674.830    -2590694.331 5  -1755279.02621
  18667344.9794  -25990304.10048 -20056511.62662
  19378982.4944  -21449104.26947 -16093623.38362
  20954406.166   -16906872.816 6 -12232496.56321
 93  6 11 22 13 59.9940000  0  5G20G16G24G12G13
  21321993.6114   -6543676.57546  -4914756.21261
  22035306.627    -2703003.447 5  -1842792.48921
  18665790.2604  -25998469.16648 -20062874.01462
  19380915.4164  -21438945.61547 -16085707.57162
  20963398.6194  -16859621.13046 -12195677.09961
 93  6 11 22 14 29.9940000  0  5G20G16G24G12G13
  21300229.2754   -6658038.38546  -5003869.27761
  22013946.2684   -2815240.89745  -1930250.11761
  18664324.5884  -26006173.28148 -20068877.21862
  19382963.5254  -21428183.75947 -16077321.72762
  20972389.627   -16812368.126 6 -12158856.61421
 93  6 11 22 14 59.9940000  0  5G20G16G24G12G13
  21278490.775    -6772274.767 6  -5092884.60021
  21992600.869    -2927407.979 5  -2017652.91021
  18662947.9944  -26013408.60148 -20074515.12462
  19385125.6354  -21416824.81947 -16068470.62362
  20981381.346   -16765119.750 6 -12122039.73521
 93  6 11 22 15 29.9940000  0  5G20G16G24G12G13
  21256777.877    -6886378.842 6  -5181796.82921
  21971267.1744   -3039511.83145  -2105006.43061
  18661662.5184  -26020166.16148 -20079780.74962
  19387399.369   -21404864.925 7 -16059151.25122
  20990371.713   -16717872.599 6 -12085223.83021
 93  6 11 22 15 59.9940000  0  5G20G16G24G12G13
  21235090.807    -7000351.261 6  -5270606.45221
  21949946.471    -3151561.176 5  -2192317.50121
  18660468.8934  -26026445.70948 -20084673.90462
  19389787.3464  -21392307.82747 -16049366.52462
  20999361.494   -16670630.415 6 -12048411.75921
 93  6 11 22 16 29.9940000  0  5G20G16G24G12G13
  21213423.572    -7114189.368 6  -5359311.42721
  21928629.9084   -3263568.36045  -2279595.69961
  18659368.5884  -26032221.47548 -20089174.49462
  19392292.807   -21379154.734 7 -16039117.38522
  21008352.5804  -16623393.77946 -12011604.03261
 93  6 11 22 16 59.9940000  0  5G20G16G24G12G13
  21191788.8774   -7227890.29946  -5447909.51161
  21907323.5184   -3375530.61045  -2366838.84461
  18658368.2294  -26037476.54848 -20093269.34762
  19394910.0574  -21365405.78247 -16028403.93762
  21017340.8304  -16576162.53846 -11974800.47861
 93  6 11 22 17 29.9940000  0  5G20G16G24G12G13
  21170183.518    -7341448.440 6  -5536396.31721
  21886029.0964   -3487435.19845  -2454037.10861
  18657467.7294  -26042216.70048 -20096962.97062
  19397638.6194  -21351058.90547 -16017224.56662
  21026326.5024  -16528933.95946 -11937999.03061
 93  6 11 22 17 59.9940000  0  5G20G16G24G12G13
  21148599.7134   -7454861.17246  -5624769.83961
  21864750.4944   -3599273.39145  -2541183.63261
  18656661.9324  -26046444.16448 -20100257.09362
  19400484.010   -21336114.828 7 -16005579.85422
  21035314.510   -16481708.901 6 -11901200.31021
 93  6 11 22 18 29.9940000  0  5G20G16G24G12G13
  21127045.8464   -7568118.89246  -5713022.55961
  21843481.3774   -3711027.03745  -2628264.26961
  18655954.0964  -26050168.26948 -20103158.99262
  19403440.135   -21320567.467 7 -15993465.04422
  21044299.463   -16434481.028 6 -11864399.40421
 93  6 11 22 18 59.9940000  0  5G20G16G24G12G13
  21105521.088    -7681228.161 6  -5801159.62021
  21822235.4554   -3822686.93045  -2715271.87661
  18655334.5964  -26053417.17448 -20105690.60862
  19406513.338   -21304427.012 7 -15980888.09622
  21053288.533   -16387259.423 6 -11827603.37621
 93  6 11 22 19 29.9940000  0  5G20G16G24G12G13
  21084026.244    -7794195.204 6  -5889185.84921
  21801000.994    -3934264.146 5  -2802215.02921
  18654802.2684  -26056215.80448 -20107871.35563
  19409694.6114  -21287703.18447 -15967856.55962
  21062269.205   -16340053.787 6 -11790819.79521
 93  6 11 22 19 59.9940000  0  5G20G16G24G12G13
  21062558.049    -7907014.117 6  -5977096.63921
  21779782.7684   -4045751.06945  -2889087.85161
  18654354.9714  -26058567.83148 -20109704.10363
  19412989.6044  -21270393.62147 -15954368.61162
  21071250.025   -16292861.017 6 -11754046.26121
 93  6 11 22 20 29.9940000  0  5G20G16G24G12G13
  21041116.0414   -8019683.13046  -6064890.62161
  21758593.947    -4157139.709 5  -2975884.10521
  18653991.2684  -26060476.60048 -20111191.45563
  19416393.1824  -21252500.14147 -15940425.66562
  21080224.9554  -16245682.52946 -11717283.86861
 93  6 11 22 20 59.9940000  0  5G20G16G24G12G13
  21019705.9794   -8132190.46446  -6152558.61861
  21737415.557    -4268418.555 6  -3062594.78621
  18653716.5884  -26061928.87848 -20112323.10063
  19419912.8614  -21234014.44747 -15926021.25262
  21089204.5254  -16198509.39246 -11680525.57261
 93  6 11 22 21 29.9940000  0  5G20G16G24G12G13
  20998328.322    -8244538.843 6  -6240102.77921
  21716257.5184   -4379600.53245  -3149229.98861
  18653528.1744  -26062925.67248 -20113099.82263
  19423542.9164  -21214943.05047 -15911160.44862
  21098177.674   -16151347.665 6 -11643776.20621
 93  6 11 22 21 59.9940000  0  5G20G16G24G12G13
  20976980.533    -8356726.944 6  -6327522.04921
  21695120.072    -4490683.542 6  -3235788.08521
  18653426.1584  -26063454.00048 -20113511.50363
  19427281.1584  -21195288.65947 -15895845.36062
  21107150.1194  -16104198.86346 -11607036.90061
 93  6 11 22 22 29.9940000  0  5G20G16G24G12G13
  20955660.346    -8468747.744 6  -6414810.94121
  21674003.0254   -4601663.68045  -3322266.00161
  18653416.6974  -26063504.51148
  19431133.377   -21175047.971 7 -15880073.42722
  21116122.963   -16057059.423 6 -11570304.90221
 93  6 11 22 22 59.9940000  0  5G20G16G24G12G13
  20934376.8154   -8580603.99246  -6501971.60361
  21652898.166    -4712552.002 5  -3408672.41121
  18653497.2294  -26063078.06148
  19435096.658   -21154227.212 7 -15863849.48022
  21125090.1044  -16009934.50746 -11533584.22361
 93  6 11 22 23 29.9940000  0  5G20G16G24G12G13
  20913122.932    -8692289.568 6  -6588999.28221
  21631816.7754   -4823348.24845  -3495007.03061
  18653670.3464  -26062166.38748 -20112508.15263
  19439167.9794  -21132824.23847 -15847171.86362
  21134053.9554  -15962821.40946 -11496872.76561
 93  6 11 22 23 59.9940000  0  5G20G16G24G12G13
  20891901.916    -8803803.993 6  -6675893.60521
  21610751.611    -4934033.264 6  -3581254.99321
  18653937.7364  -26060767.95748 -20111418.47263
  19443350.7754  -21110842.40247 -15830043.18762
  21143017.2054  -15915722.89346 -11460172.64861
 93  6 11 22 24 29.9940000  0  5G20G16G24G12G13
  20870715.268    -8915147.466 6  -6762654.72121
  21589714.8934   -5044597.97846  -3667409.19661
  18654294.5724  -26058891.93348 -20109956.62963
  19447644.440   -21088285.515 7 -15812466.42322
  21151975.307   -15868641.645 6 -11423486.00121
 93  6 11 22 24 59.9940000  0  5G20G16G24G12G13
  20849560.213    -9026315.401 6  -6849279.04321
  21568695.854    -5155036.597 5  -3753465.17321
  18654741.3544  -26056544.91548 -20108127.78463
  19452044.4554  -21065152.94947 -15794441.06962
  21160934.2834  -15821576.38246 -11386811.79661
 93  6 11 22 25 29.9930000  0  5G20G16G24G12G13
  20828439.091    -9137306.345 6  -6935765.46521
  21547706.341    -5265339.931 5  -3839415.71921
  18655273.4424  -26053734.78347 -20105938.06763
  19456556.833   -21041452.119 7 -15775972.92622
  21169886.114   -15774534.235 6 -11350155.59921
 93  6 11 22 25 59.9930000  0  5G20G16G24G12G13
  20807355.841    -9248113.713 6  -7022108.82421
  21526742.7084   -5375502.25345  -3925256.37961
  18655897.7084  -26050456.59447 -20103383.64063
  19461176.536   -21017171.226 7 -15757052.77322
  21178837.1924  -15727500.91946 -11313506.28561
 93  6 11 22 26 29.9930000  0  5G20G16G24G12G13
  20786300.6074   -9358742.54846  -7108313.07661
  21505803.1464   -5485547.29845  -4011005.67661
  18656604.9974  -26046740.50747 -20100487.98463
  19465903.786   -20992323.759 7 -15737691.14422
  21187778.5674  -15680489.92646 -11276874.36461
 93  6 11 22 26 59.9930000  0  5G20G16G24G12G13
  20765283.317    -9469180.058 6  -7194368.25221
  21484886.075    -5595467.790 5  -4096657.89221
  18657398.1614  -26042577.19748 -20097243.84763
  19470741.021   -20966901.002 7 -15717881.23022
  21196724.239   -15633491.232 6 -11240252.03621
 93  6 11 22 27 29.9930000  0  5G20G16G24G12G13
  20744305.4354   -9579431.52346  -7280278.44361
  21463989.5914   -5705269.80445  -4182217.83361
  18658274.0994  -26037972.29347 -20093655.60063
  19475688.286   -20940911.838 7 -15697629.95922
  21205664.0834  -15586512.80546 -11203645.49161
 93  6 11 22 27 59.9930000  0  5G20G16G24G12G13
  20723360.357    -9689497.607 6  -7366044.19121
  21443120.630    -5814951.811 6  -4267684.22521
  18659231.8964  -26032933.39547 -20089729.19063
  19480741.747   -20914361.420 7 -15676941.35122
  21214598.3964  -15539558.57746 -11167057.84161
 93  6 11 22 28 29.9930000  0  5G20G16G24G12G13
  20702449.817    -9799375.442 6  -7451663.23621
  21422268.8024   -5924510.53446  -4353054.58661
  18660274.9034  -26027454.21147 -20085459.68863
  19485898.950   -20887250.872 7 -15655816.27622
  21223529.7244  -15492628.60346 -11130489.06761
 93  6 11 22 28 59.9930000  0  5G20G16G24G12G13
  20681581.9424   -9909050.81046  -7537124.52261
  21401449.419    -6033925.934 6  -4438313.25921
  18661407.6534  -26021506.33447 -20080824.97763
  19491168.5994  -20859570.25647 -15634246.99462
  21232455.091   -15445711.473 6 -11093930.27721
 93  6 11 22 29 29.9930000  0  5G20G16G24G12G13
  20660748.810   -10018528.516 6
  21380653.0834   -6143199.66445
  18662626.5674  -26015099.32547 -20075832.50163
  19496540.864   -20831328.607 7 -15612240.54422
  21241381.497   -15398814.762 6 -11057387.44021
 93  6 11 22 29 59.9930000  0  5G20G16G24G12G13
  20639951.482   -10127811.544 6
  21359888.7784   -6252330.75946
  18663933.9584  -26008229.70047 -20070479.54763
  19502021.200   -20802532.980 7 -15589802.42822
  21250302.3574  -15351944.68646 -11020865.31161
 93  6 11 22 30 29.9930000  0  5G20G16G24G12G13
  20619198.575   -10236881.534 6
  21339147.9584   -6361300.86946
  18665330.4894  -26000889.28147 -20064759.73863
  19507607.880   -20773169.533 7 -15566921.84622
  21259218.0364  -15305086.79146 -10984352.69761
 93  6 11 22 30 59.9930000  0  5G20G16G24G12G13
  20598482.482   -10345744.675 6
  21318446.7714   -6470107.80446
  18666813.5604  -25993097.40647 -20058688.14463
  19513303.091   -20743248.609 7 -15543606.87522
  21268130.5604  -15258249.36746 -10947856.03361
 93  6 11 22 31 29.9930000  0  5G20G16G24G12G13
  20577805.247   -10454392.035 6
  21297774.4974   -6578741.54946
  18668380.1074  -25984859.45347 -20052268.95963
  19519103.052   -20712765.250 7 -15519853.64222
  21277039.7394  -15211426.07546 -10911370.40361
 93  6 11 22 31 59.9930000  0  5G20G16G24G12G13
  20557172.1774  -10562829.11646
  21277133.6854   -6687205.16146
  18670029.1854  -25976198.46247 -20045520.13263
  19525007.208   -20681729.537 7 -15495670.00022
  21285944.0524  -15164626.08846 -10874902.91961
 93  6 11 22 32 29.9930000  0  5G20G16G24G12G13
  20536576.388   -10671065.147 6
  21256522.7634   -6795510.80646
  18671750.5524  -25967143.87847 -20038464.61463
  19531017.974   -20650154.974 7 -15471066.47522
  21294846.333   -15117861.258 6 -10838462.83421
 93  6 11 22 32 59.9930000  0  5G20G16G24G12G13
  20516017.247   -10779097.851 6
  21235943.7784   -6903655.78946
  18673553.4274  -25957683.41747 -20031092.82563
  19537127.435   -20618043.778 7 -15446044.79922
  21303738.2164  -15071132.56546 -10802050.86861
 93  6 11 22 33 29.9930000  0  5G20G16G24G12G13
  20495498.677   -10886919.473 6
  21215397.5914   -7011632.75746
  18675431.9194  -25947808.21047 -20023397.86163
  19543340.989   -20585392.389 7 -15420602.19622
  21312623.333   -15024434.820 6 -10765663.08221
 93  6 11 22 33 59.9930000  0  5G20G16G24G12G13
  20475022.528   -10994529.624 6  -8382951.79321
  21194881.3334   -7119445.13946  -4813451.04261
  18677389.1614  -25937519.30347 -20015380.52763
  19549655.997   -20552204.967 7 -15394741.89822
  21321504.5604  -14977770.52146 -10729301.29861
 93  6 11 22 34 29.9930000  0  5G20G16G24G12G13
  20454586.997   -11101915.889 7  -8466629.36621
  21174396.919    -7227092.882 6  -4897332.30821
  18679431.3724  -25926792.20247 -20007021.75663
  19556074.997   -20518473.565 7 -15368457.72622
  21330379.575   -14931130.410 6 -10692958.40521
 93  6 11 22 34 59.9930000  0  5G20G16G24G12G13
  20434195.6614  -11209071.58846  -8550127.29161
  21153941.5994   -7334564.35346  -4981076.22461
  18681557.9744  -25915614.35647 -19998311.74563
  19562598.8494  -20484196.15947 -15341748.08362
  21339250.903   -14884510.841 6 -10656631.52621
 93  6 11 22 35 29.9930000  0  5G20G16G24G12G13
  20413847.8414  -11316006.04546  -8633452.78861
  21133522.3254   -7441878.69846  -5064697.71361
  18683765.2164  -25904012.73947 -19989271.52763
  19569221.216   -20449386.258 7 -15314623.52422
  21348116.9894  -14837923.60546 -10620329.81561
 93  6 11 22 35 59.9930000  0  5G20G16G24G12G13
  20393542.849   -11422709.626 6  -8716598.39821
  21113135.466    -7549028.439 6  -5148190.93821
  18686054.2084  -25891984.09347 -19979898.56163
  19575947.974   -20414038.823 7 -15287080.10122
  21356976.0604  -14791362.28346 -10584048.30361
 93  6 11 22 36 29.9930000  0  5G20G16G24G12G13
  20373279.911   -11529187.323 6  -8799568.00021
  21092780.3644   -7656000.99646  -5231546.09761
  18688424.7394  -25879527.93147 -19970192.46763
  19582775.771   -20378163.746 7 -15259125.52822
  21365829.6304  -14744835.02546 -10547793.31161
 93  6 11 22 36 59.9930000  0  5G20G16G24G12G13
  20353060.708   -11635433.708 6  -8882357.35521
  21072457.4354   -7762775.28746  -5314746.75161
  18690877.4034  -25866640.77147 -19960150.52663
  19589702.489   -20341760.033 7 -15230759.03422
  21374676.1144  -14698338.95546 -10511562.65161
 93  6 11 22 37 29.9930000  0  5G20G16G24G12G13
  20332887.028   -11741448.423 6  -8964966.20621
  21052180.2244   -7869355.33146  -5397796.06061
  18693409.4824  -25853324.56447 -19949774.26663
  19596731.0364  -20304831.89947 -15201983.89962
  21383522.161   -14651876.420 6 -10475358.12421
 93  6 11 22 37 59.9930000  0  5G20G16G24G12G13
  20312757.817   -11847223.084 6  -9047387.97622
  21031938.2474   -7975714.46546  -5480673.22961
  18696031.7634  -25839560.81047 -19939049.26763
  19603858.7084  -20267375.47247 -15172797.10162
  21392356.7944  -14605441.72546 -10439175.28261
 93  6 11 22 38 29.9930000  0  5G20G16G24G12G13
  20292676.942   -11952757.543 7  -9129622.58721
  21011739.9274   -8081852.95146  -5563378.46161
  18698735.0994  -25825346.13447 -19927972.89463
  19611086.5674  -20229395.40347 -15143202.28262
  21401187.0444  -14559038.12446 -10403016.65761
 93  6 11 22 38 59.9930000  0  5G20G16G24G12G13
  20272640.146   -12058053.821 6  -9211671.59821
  20991582.146    -8187791.967 6  -5645928.26121
  18701521.6074  -25810701.11647 -19916561.19763
  19618411.200   -20190898.269 7 -15113204.55222
  21410005.146   -14512670.314 5 -10366885.93521
 93  6 11 22 39 29.9930000  0  5G20G16G24G12G13
  20252648.442   -12163101.188 6  -9293526.66121
  20971459.294    -8293522.262 6  -5728315.46221
  18704388.4354  -25795631.45947 -19904818.60663
  19625835.341   -20151878.293 7 -15082799.41522
  21418831.9354  -14466330.25746 -10330776.85861
 93  6 11 22 39 59.9930000  0  5G20G16G24G12G13
  20232706.8334  -12267900.90247  -9375188.74161
  20951380.6924   -8399036.11546  -5810533.98761
  18707335.4354  -25780152.44647 -19892757.04463
  19633360.7554  -20112341.28647 -15051991.38762
  21427638.2944  -14420022.21646 -10294692.72761
 93  6 11 22 40 29.9930000  0  5G20G16G24G12G13
  20212809.411   -12372450.844 7  -9456656.19921
  20931337.4974   -8504350.93446  -5892597.41061
  18710355.5444  -25764279.96547 -19880388.88163
  19640981.521   -20072290.180 7 -15020782.78122
  21436445.4894  -14373747.04846 -10258634.18861
 93  6 11 22 40 59.9930000  0  5G20G16G24G12G13
  20192963.560   -12476751.449 7  -9537929.37321
  20911339.4664   -8609467.30546  -5974506.19661
  18713447.1074  -25748032.52447 -19867728.53663
  19648699.841   -20031729.894 7 -14989177.39722
  21445246.3644  -14327508.07545 -10222603.84961
 93  6 11 22 41 29.9930000  0  5G20G16G24G12G13
  20173165.755   -12580798.736 7  -9619005.14621
  20891377.2714   -8714372.65146  -6056250.55861
  18716610.0524  -25731417.90147 -19854782.08863
  19656517.763   -19990661.488 7 -14957176.07822
  21454036.7944  -14281304.20846 -10186600.87561
 93  6 11 22 41 59.9930000  0  5G20G16G24G12G13
  20153411.927   -12684582.659 7  -9699875.69722
  20871452.6304   -8819069.18546  -6137832.20161
  18719841.3024  -25714429.03847 -19841544.01263
  19664430.060   -19949079.602 7 -14924774.65322
  21462823.044   -14235128.293 5 -10150619.69721
 93  6 11 22 42 29.9930000  0  5G20G16G24G12G13
  20133715.989   -12788103.215 7  -9780541.03322
  20851566.021    -8923561.110 6  -6219254.42421
  18723146.9584  -25697067.39847 -19828015.46563
  19672438.6074  -19906989.06947 -14891976.86762
  21471605.7084  -14188982.79645 -10114662.19661
 93  6 11 22 42 59.9930000  0  5G20G16G24G12G13
  20114065.966   -12891359.384 7  -9861000.35721
  20831725.700    -9027826.287 6  -6300499.96721
  18726521.9274  -25679331.02847 -19814194.92763
  19680544.833   -19864393.868 7 -14858785.85122
  21480376.8174  -14142869.42645 -10078729.74161
 93  6 11 22 43 29.9930000  0  5G20G16G24G12G13
  20094468.638   -12994345.280 7  -9941249.07221
  20811930.4824   -9131849.03946  -6381556.58961
  18729972.6924  -25661197.26247 -19800064.72463
  19688744.888   -19821292.669 7 -14825200.54522
  21489152.6304  -14096785.29245 -10042820.05261
 93  6 11 22 43 59.9930000  0  5G20G16G24G12G13
  20074924.841   -13097059.024 7 -10021285.72522
  20792185.9034   -9235623.04946  -6462419.38261
  18733503.5914  -25642640.77747 -19785605.12963
  19697042.607   -19777688.839 7 -14791223.57222
  21497914.942   -14050731.132 5 -10006933.72321
 93  6 11 22 44 29.9930000  0  5G20G16G24G12G13
  20055428.232   -13199496.129 7 -10101106.81422
  20772483.255    -9339136.834 6  -6543079.41221
  18737116.4034  -25623653.22847 -19770809.63963
  19705435.0914  -19733582.70447 -14756855.20562
  21506670.6614  -14004705.96345  -9971070.01661
 93  6 11 22 44 59.9930000  0  5G20G16G24G12G13
  20035988.411   -13301663.749 7 -10180717.92222
  20752838.2714   -9442399.52946  -6623543.77161
  18740813.2004  -25604228.89447 -19755673.79663
  19713921.6224  -19688986.53947 -14722104.99962
  21515421.810   -13958719.416 5  -9935236.37321
 93  6 11 22 45 29.9930000  0  5G20G16G24G12G13
  20016599.185   -13403553.451 7 -10260112.45321
  20733236.263    -9545417.684 6  -6703817.58121
  18744592.4894  -25584366.97247 -19740196.97963
  19722502.708   -19643896.875 7 -14686970.22622
  21524165.0284  -13912765.66445  -9899428.31161
 93  6 11 22 45 59.9930000  0  5G20G16G24G12G13
  19997266.1924  -13505159.35947 -10339285.87062
  20713674.0054   -9648196.50246  -6783904.90161
  18748450.8174  -25564084.47447 -19724392.43563
  19731175.771   -19598312.985 7
  21532909.5754  -13866841.52745
 93  6 11 22 46 29.9930000  0  5G20G16G24G12G13
  19977981.528   -13606496.494 7 -10418249.83722
  20694155.567    -9750753.793 6  -6863819.61421
  18752384.1384  -25543421.57347 -19708291.47763
  19739943.935   -19552255.021 7 -14615561.08622
  21541635.9354  -13820964.93445  -9827895.36861
 93  6 11 22 46 59.9930000  0  5G20G16G24G12G13
  19958748.489   -13707552.454 7 -10496994.70222
  20674689.888    -9853068.214 6  -6943545.05621
  18756386.1304  -25522386.31047 -19691900.36163
  19748799.427   -19505715.358 7 -14579296.46022
  21550360.7864  -13775126.15445  -9792176.89661
 93  6 11 22 47 29.9930000  0  5G20G16G24G12G13
  19939572.1304  -13808320.20747 -10575515.01262
  20655266.4894   -9955137.36546  -7023079.39961
  18760456.2244  -25501007.07647 -19675241.22863
  19757746.9274  -19458691.89747 -14542654.85162
  21559076.5754  -13729320.91045  -9756484.55261
 93  6 11 22 47 59.9930000  0  5G20G16G24G12G13
  19920450.474   -13908800.211 7 -10653811.09722
  20635888.6614  -10056963.42046  -7102424.31561
  18764587.6144  -25479291.57747 -19658320.05963
  19766786.099   -19411190.318 7 -14505640.67522
  21567784.208   -13683552.436 5  -9720820.83421
 93  6 11 22 48 29.9930000  0  5G20G16G24G12G13
  19901387.724   -14008988.499 7 -10731879.85422
  20616562.4824  -10158533.19546  -7181569.53361
  18768784.1144  -25457244.33747 -19641140.40463
  19775914.8804  -19363211.72747 -14468254.80862
  21576490.028   -13637819.887 5  -9685185.14621
 93  6 11 22 48 59.9930000  0  5G20G16G24G12G13
  19882379.1224  -14108882.65447 -10809719.43762
  20597280.3024  -10259842.33346  -7260511.64561
  18773040.8414  -25434864.42247 -19623701.51063
  19785135.192   -19314758.997 7 -14430499.47722
  21585185.325   -13592123.003 5  -9649577.20921
 93  6 11 22 49 29.9930000  0  5G20G16G24G12G13
  19863426.8414  -14208480.86247 -10887328.39762
  20578053.1614  -10360894.29746  -7339253.37861
  18777366.4744  -25412135.60847 -19605990.75563
  19794446.185   -19265835.158 7 -14392377.04622
  21593871.2004  -13546462.88445  -9613997.93861
 93  6 11 22 49 59.9930000  0  5G20G16G24G12G13
  19844528.357   -14307794.705 7 -10964715.78922
  20558871.8414  -10461684.29046  -7417790.97461
  18781761.4664  -25389043.57247 -19587996.95463
  19803842.646   -19216456.975 7 -14353900.59022
  21602553.685   -13500853.945 5  -9578458.58321
 93  6 11 22 50 29.9930000  0  5G20G16G24G12G13
  19825686.630   -14406804.167 7 -11041865.98922
  20539747.7554  -10562181.12946  -7496100.13961
  18786230.0284  -25365563.12147 -19569700.50363
  19813327.372   -19166609.665 7 -14315058.57522
  21611226.677   -13455278.625 5  -9542945.33921
 93  6 11 22 50 59.9930000  0  5G20G16G24G12G13
  19806905.208   -14505506.789 7 -11118777.09022
  20520675.6074  -10662387.34246  -7574182.83861
  18790774.4744  -25341680.28547 -19551090.51163
  19822902.239   -19116295.883 7 -14275853.06422
  21619891.263   -13409737.076 5  -9507458.46921
 93  6 11 22 51 29.9930000  0  5G20G16G24G12G13
  19788179.661   -14603908.863 7 -11195454.00722
  20501667.2244  -10762303.38446  -7652039.44561
  18795394.6074  -25317398.27447 -19532169.47563
  19832562.7324  -19065527.50947 -14236293.34362
  21628550.692   -13364239.090 5  -9472005.53421
 93  6 11 22 51 59.9930000  0  5G20G16G24G12G13
  19769511.6534  -14702004.94247 -11271892.48562
  20482707.200   -10861923.571 6  -7729665.51021
  18800089.4664  -25292728.36247 -19512946.16663
  19842309.036   -19014304.047 6 -14196379.00122
  21637200.8804  -13318781.20545  -9436583.86661
 93  6 11 22 52 29.9930000  0  5G20G16G24G12G13
  19750904.911   -14799785.224 7 -11348084.89422
  20463808.5994  -10961238.45146  -7807053.65061
  18804855.9194  -25267684.07847 -19493431.15363
  19852145.9584  -18962620.78947 -14156106.38062
  21645839.0914  -13273355.70345  -9401187.43061
 93  6 11 22 52 59.9930000  0  5G20G16G24G12G13
  19732356.4824  -14897257.49347 -11424037.27962
  20444965.325   -11060259.149 6  -7884212.59421
  18809687.3724  -25242284.52547 -19473639.29463
  19862067.317   -18910490.912 7 -14115485.74421
  21654479.911   -13227973.793 5  -9365824.95221
 93  6 11 22 53 29.9930000  0  5G20G16G24G12G13
  19713869.083   -14994410.630 7 -11499740.98922
  20426179.8574  -11158974.64446  -7961133.68761
  18814587.1074  -25216538.84347 -19453577.73563
  19872071.802   -18857908.692 7 -14074512.63721
  21663111.0524  -13182626.70345  -9330489.63061
 93  6 11 22 53 59.9930000  0  5G20G16G24G12G13
  19695443.3574  -15091243.71447 -11575195.32062
  20407452.5524  -11257399.23946  -8037828.11361
  18819551.3174  -25190455.88347 -19433253.36163
  19882163.372   -18804878.395 6 -14033190.36821
  21671729.0604  -13137316.37346  -9295182.90561
 93  6 11 22 54 29.9930000  0  5G20G16G24G12G13
  19677074.5214  -15187756.39647 -11650399.99162
  20388776.1144  -11355534.61246  -8114297.17861
  18824579.9034  -25164035.53947 -19412666.08563
  19892340.185   -18751404.949 6 -13991522.80221
  21680347.4974  -13092044.86446  -9259906.47561
 93  6 11 22 54 59.9930000  0  5G20G16G24G12G13
  19658774.661   -15283940.027 7 -11725348.23122
  20370155.083   -11453395.323 6  -8190552.22621
  18829672.3884  -25137265.06947 -19391805.99563
  19902599.224   -18697485.199 6 -13949507.46121
  21688954.200   -13046806.096 6  -9224655.52021
 93  6 11 22 55 29.9930000  0  5G20G16G24G12G13
  19640529.755   -15379805.662 7 -11800048.70922
  20351583.9504  -11550997.05146  -8266605.44661
  18834830.5994  -25110159.67647 -19370684.91163
  19912943.005   -18643135.218 6 -13907156.87921
  21697553.083   -13001614.283 5  -9189441.17921
 93  6 11 22 55 59.9930000  0  5G20G16G24G12G13
  19622350.5134  -15475338.71247 -11874490.02662
  20333065.5834  -11648318.98946  -8342440.68361
  18840056.364   -25082701.307 7 -19349288.79723
  19923367.396   -18588345.673 6 -13864463.77521
  21706150.5914  -12956456.91945  -9154253.69361
 93  6 11 22 56 29.9930000  0  5G20G16G24G12G13
  19604234.677   -15570541.744 7 -11948674.19222
  20314598.4354  -11745352.35946  -8418051.03461
  18845346.8884  -25054896.92247 -19327623.04863
  19933875.9424  -18533124.60346 -13821434.42461
  21714737.0604  -12911339.12646  -9119097.02461
 93  6 11 22 56 59.9930000  0  5G20G16G24G12G13
  19586183.153   -15665409.207 7 -12022596.85422
  20296186.239   -11842080.665 6  -8493423.67121
  18850704.3804  -25026749.19447 -19305689.75863
  19944467.1384  -18477471.92746 -13778068.75661
  21723315.0524  -12866258.09245  -9083968.98161
 93  6 11 22 57 29.9930000  0  5G20G16G24G12G13
  19568193.0284  -15759936.08747 -12096254.15262
  20277846.3414  -11938480.22346  -8568540.16361
  18856126.2324  -24998252.68147 -19283484.70063
  19955138.4034  -18421388.20946 -13734367.20561
  21731885.075   -12821211.204 5  -9048867.58721
 93  6 11 22 57 59.9930000  0  5G20G16G24G12G13
  19550270.560   -15854124.365 7 -12169647.59422
  20259567.3964  -12034546.43746  -8643396.90761
  18861613.3174  -24969406.78547 -19261007.38264
  19965890.528   -18364880.425 6 -13690335.20321
  21740451.208   -12776202.946 5  -9013796.23321
 93  6 11 22 58 29.9930000  0  5G20G16G24G12G13
  19532413.1304  -15947966.34347 -12242771.19562
  20241350.833   -12130273.993 6  -8717989.76021
  18867169.6144  -24940217.74447 -19238262.69064
  19976727.1774  -18307946.33846 -13645971.03061
  21749006.607   -12731228.714 5  -8978751.47421
 93  6 11 22 58 59.9930000  0  5G20G16G24G12G13
  19514621.5284  -16041463.14947 -12315625.83762
  20223194.263   -12225672.395 6  -8792326.13021
  18872787.5674  -24910695.65247 -19215258.47464
  19987639.544   -18250592.633 6 -13601279.88321
  21757559.685   -12686292.291 5  -8943736.13121
 93  6 11 22 59 29.9930000  0  5G20G16G24G12G13
  19496895.4194  -16134613.11047 -12388210.20162
  20205100.2004  -12320743.91846  -8866407.76961
  18878467.9504  -24880845.60447 -19191998.70464
  19998634.3574  -18192823.00546 -13556264.63461
  21766103.310   -12641393.955 5  -8908750.46221
 93  6 11 22 59 59.9930000  0  5G20G16G24G12G13
  19479234.114   -16227418.413 7 -12460526.00922
  20187077.982   -12415488.474 6  -8940234.65521
  18884205.9274  -24850693.78547 -19168503.79364
  20009704.130   -18134645.408 6 -13510931.49721
  21774638.4744  -12596538.73045  -8873798.40261
 93  6 11 23  0 29.9930000  0  5G20G16G24G12G13
  19461638.7244  -16319876.99447 -12532571.64362
  20169110.4424  -12509908.61346  -9013808.74361
  18889999.6304  -24820246.80447 -19144778.88564
  20020852.6774  -18076062.93246 -13465282.86361
  21783165.021   -12551726.970 5  -8838880.20321
 93  6 11 23  0 59.9930000  0  5G20G16G24G12G13
  19444115.810   -16411976.352 7 -12604337.35322
  20151201.4974  -12603990.01046  -9087118.86261
  18895857.2554  -24789469.09647 -19120796.26263
  20032078.583   -18017068.544 6 -13419313.25821
  21791688.4274  -12506948.48245  -8803987.96661
 93  6 11 23  1 29.9930000  0  5G20G16G24G12G13
  19426653.9824  -16503730.49547 -12675834.07362
  20133367.247   -12697733.369 6  -9160165.59121
  18901773.0994  -24758376.55547 -19096568.31463
  20043380.396   -17957681.348 6 -13373037.57221
  21800200.052   -12462219.366 5  -8769134.15321
 93  6 11 23  1 59.9930000  0  5G20G16G24G12G13
  19409262.3884  -16595122.65447 -12747048.72262
  20115593.817   -12791131.392 6  -9232943.22422
  18907752.8254  -24726953.79347 -19072083.05964
  20054756.919   -17897890.409 6 -13326447.28121
  21808706.6384  -12417525.42845  -8734307.74961
 93  6 11 23  2 29.9930000  0  5G20G16G24G12G13
  19391939.177   -16686158.442 7 -12817985.67922
  20097882.4354  -12884208.56146  -9305470.82762
  18913794.3724  -24695200.48647 -19047340.22463
  20066209.7164  -17837707.11046 -13279551.25461
  21817203.294   -12372875.592 5  -8699515.73521
 93  6 11 23  2 59.9930000  0  5G20G16G24G12G13
  19374685.0674  -16776826.11147 -12888635.80162
  20080232.372   -12976941.150 6  -9377729.93422
  18919901.4504  -24663114.22047 -19022337.94664
  20077740.5604  -17777124.86546 -13232344.36861
  21825689.6144  -12328260.02645  -8664750.41561
 93  6 11 23  3 29.9930000  0  5G20G16G24G12G13
  19357503.9194  -16867123.20547 -12958997.15162
  20062653.0674  -13069332.44446  -9449723.08961
  18926064.7554  -24630721.16747 -18997096.62563
  20089343.872   -17716146.722 6 -13184828.98921
  21834172.9744  -12283678.90845  -8630011.95061
 93  6 11 23  3 59.9930000  0  5G20G16G24G12G13
  19340390.2864  -16957051.25147 -13029070.93762
  20045133.919   -13161394.341 6  -9521459.58922
  18932289.4274  -24598018.77148 -18971614.23764
  20101021.1694  -17654779.67646 -13137010.57361
  21842650.1304  -12239135.89945  -8595303.17161
 93  6 11 23  4 29.9930000  0  5G20G16G24G12G13
  19323348.599   -17046608.490 7 -13098855.77922
  20027682.8174  -13253108.54246  -9592925.13562
  18938571.3024  -24565001.67047 -18945886.64063
  20112772.7784  -17593027.60846 -13088892.12461
  21851118.6694  -12194631.59745  -8560624.54761
 93  6 11 23  4 59.9930000  0  4G20G16G24G12
  19306373.5914  -17135798.92847 -13168354.80062
  20010298.5214  -13344456.61046  -9664105.39462
  18944912.8414  -24531674.74447 -18919917.61263
  20124594.169   -17530899.892 6 -13040480.96121
 93  6 11 23  5 29.9920000  0  4G20G16G24G12
  19289476.344   -17224610.543 7 -13237558.63323
  19992982.7744  -13435440.01246  -9735001.48962
  18951315.1024  -24498029.64847 -18893700.67564
  20136489.883   -17468395.111 6 -12991775.99121
 93  6 11 23  5 59.9920000  0  4G20G16G24G12
  19272646.5474  -17313042.84547 -13306466.91162
  19975740.5474  -13526063.38646  -9805617.03762
  18957779.1494  -24464064.13547 -18867234.04263
  20148455.922   -17405508.482 6 -12942773.48521
 93  6 11 23  6 29.9920000  0  4G20G16G24G12
  19255891.4064  -17401096.90247 -13375080.44463
  19958562.5944  -13616320.71546  -9875947.36362
  18964299.4454  -24429804.56847 -18840538.28363
  20160492.4844  -17342251.33746 -12893482.26661
 93  6 11 23  6 59.9920000  0  4G20G16G24G12
  19239208.5164  -17488760.76847 -13443389.92962
  19941459.899   -13706211.154 6  -9945991.80622
  18970871.9844  -24395260.39047 -18813620.76563
  20172601.2034  -17278617.30846 -12843897.37261
 93  6 11 23  7 29.9920000  0  4G20G16G24G12
  19222602.0634  -17576032.66347 -13511393.98963
  19924417.8674  -13795746.82046 -10015759.79062
  18977497.8134  -24360439.53547 -18786487.62963
  20184783.125   -17214610.245 6 -12794021.78421
 93  6 11 23  7 59.9920000  0  4G20G16G24G12
  19206069.4534  -17662906.72047 -13579088.04463
  19907454.133   -13884908.533 6 -10085236.39922
  18984179.008   -24325331.380 7 -18759130.64723
  20197033.0944  -17150229.76146 -12743855.24861
 93  6 11 23  8 29.9920000  0  4G20G16G24G12
  19189613.5944  -17749388.62547 -13646476.52063
  19890559.524   -13973685.625 6 -10154413.29422
  18990914.9844  -24289937.65148 -18731551.12563
  20209354.5944  -17085487.32946 -12693406.65861
 93  6 11 23  8 59.9920000  0  4G20G16G24G12
  19173231.5474  -17835472.91347 -13713555.17463
  19873739.828   -14062071.384 6 -10223285.26022
  18997708.5314  -24254238.59947 -18703733.68663
  20221741.7894  -17020382.77146 -12642675.90061
 93  6 11 23  9 29.9920000  0  4G20G16G24G12
  19156927.6644  -17921155.79647 -13780321.04363
  19856995.024   -14150056.727 6 -10291845.22422
  19004560.5634  -24218225.21247 -18675671.31663
  20234199.6954  -16954918.15546 -12591664.58061
 93  6 11 23  9 59.9920000  0  4G20G16G24G12
  19140699.6724  -18006432.51047 -13846770.41063
  19840331.867   -14237631.418 6 -10360085.18822
  19011471.3134  -24181909.55147 -18647373.41663
  20246725.3994  -16889094.28146 -12540373.31161
 93  6 11 23 10 29.9920000  0  4G20G16G24G12
  19124550.9304  -18091295.19147 -13912897.15163
  19823741.570   -14324796.852 6 -10428006.26122
  19018436.2344  -24145307.19047 -18618852.11263
  20259321.352   -16822908.655 6 -12488800.15021
 93  6 11 23 10 59.9920000  0  4G20G16G24G12
  19108480.1334  -18175750.62447 -13978706.57363
  19807232.8524  -14411565.10546 -10495617.82562
  19025453.3364  -24108432.69947 -18590118.75363
  20271980.2114  -16756373.51546 -12436954.65961
 93  6 11 23 11 29.9920000  0  4G20G16G24G12
  19092486.3364  -18259793.16147 -14044194.25563
  19790794.3674  -14497933.28346 -10562917.64462
  19032520.8054  -24071295.10847 -18561180.38663
  20284711.5394  -16689488.97046 -12384836.89561
 93  6 11 23 11 59.9920000  0  4G20G16G24G12
  19076569.0944  -18343428.94847 -14109364.97663
  19774437.352   -14583908.723 6 -10629911.44922
  19039637.2344  -24033893.53147 -18532036.30663
  20297501.3914  -16622266.56846 -12332455.86761
 93  6 11 23 12 29.9920000  0  4G20G16G24G12
  19060736.1884  -18426646.06847 -14174209.48463
  19758151.633   -14669481.457 6 -10696591.45622
  19046811.8524  -23996190.68447 -18502657.48163
  20310360.2744  -16554699.84246 -12279806.53661
 93  6 11 23 12 59.9920000  0  4G20G16G24G12
  19044980.7274  -18509435.44347 -14238720.67063
  19741950.0634  -14754643.94846 -10762951.78262
  19054051.1564  -23958157.49447 -18473021.25463
  20323282.2034  -16486785.60846 -12226886.42261
 93  6 11 23 13 29.9920000  0  4G20G16G24G12
  19029307.7344  -18591804.24247 -14302904.13763
  19725812.664   -14839412.334 6 -10829005.01922
  19061350.0164  -23919793.95647 -18443127.60163
  20336272.3364  -16418536.50046 -12173705.35561
 93  6 11 23 13 59.9920000  0  4G20G16G24G12
  19013711.2344  -18673750.00747 -14366757.97263
  19709764.813   -14923786.454 7 -10894751.04122
  19068710.3594  -23881106.33447 -18412981.41163
  20349322.969   -16349955.884 6 -12120265.99121
 93  6 11 23 14 29.9920000  0  4G20G16G24G12
  18998200.4304  -18755274.01147 -14430283.16563
  19693779.656   -15007766.010 6 -10960189.60922
  19076131.4144  -23842123.73247 -18382605.37363
  20362434.0944  -16281050.37146 -12066573.45361
 93  6 11 23 14 59.9920000  0  4G20G16G24G12
  18982765.2034  -18836374.59547 -14493478.40663
  19677873.414   -15091346.449 6 -11025317.17622
  19083598.3594  -23802879.25047 -18352025.27163
  20375607.5244  -16211823.69146 -12012630.65161
 93  6 11 23 15 29.9920000  0  4G20G16G24G12
  18967411.7894  -18917046.60247 -14556339.70163
  19662049.352   -15174516.320 6 -11090124.81722
  19091111.3754  -23763407.76947 -18321268.29363
  20388842.6954  -16142276.62946 -11958438.20461
 93  6 11 23 15 59.9920000  0  4G20G16G24G12
  18952147.2664  -18997292.78547 -14618869.18863
  19646298.141   -15257267.130 6 -11154605.92722
  19098658.1804  -23723735.02047 -18290354.47363
  20402136.4304  -16072417.38846 -11904002.50561
 93  6 11 23 16 29.9920000  0  4G20G16G24G12
  18936955.625   -19077108.687 7 -14681063.37323
  19630634.555   -15339588.687 6 -11218752.54522
  19106247.2584  -23683857.11847 -18259280.79263
  20415487.9384  -16002247.16446 -11849324.48661
 93  6 11 23 16 59.9920000  0  4G20G16G24G12
  18921850.6024  -19156492.18347 -14742920.63663
  19615053.055   -15421479.360 7 -11282563.41622
  19113877.9924  -23643765.07947 -18228040.25163
  20428899.1804  -15931769.40546 -11794406.82661
 93  6 11 23 17 29.9920000  0  4G20G16G24G12
  18906828.1174  -19235438.26347 -14804437.05563
  19599550.156   -15502933.286 7 -11346033.96622
  19121550.6414  -23603439.63647 -18196617.84863
  20442370.0634  -15860984.81646 -11739250.06561
 93  6 11 23 17 59.9920000  0  4G20G16G24G12
  18891882.8364  -19313951.05747 -14865615.84063
  19584136.367   -15583955.195 7 -11409167.87522
  19129273.1804  -23562852.78647 -18164991.73863
  20455894.7894  -15789902.90646 -11683861.64061
 93  6 11 23 18 29.9920000  0  4G20G16G24G12
  18877030.180   -19392026.401 7 -14926453.74723
  19568796.430   -15664545.317 7 -11471965.32622
  19137050.0634  -23521995.33647 -18133154.77663
  20469478.906   -15718524.990 6 -11628242.55921
 93  6 11 23 18 59.9920000  0  4G20G16G24G12
  18862259.3204  -19469641.43747 -14986932.99063
  19553545.899   -15744684.278 7 -11534411.22122
  19144879.8134  -23480842.68547 -18101087.79163
  20483122.4534  -15646834.22746 -11572379.70661
 93  6 11 23 19 29.9920000  0  4G20G16G24G12
  18847574.0634  -19546814.51047 -15047067.83663
  19538382.547   -15824390.943 7 -11596520.27522
  19152765.7424  -23439411.37947 -18068803.66863
  20496818.9774  -15574854.17946 -11516291.44861
 93  6 11 23 19 59.9920000  0  5G20G16G24G 3G12
  18832974.9774  -19623538.98347 -15106853.12563
  19523295.953   -15903661.435 7 -11658289.44522
  19160699.9454  -23397711.84347 -18036310.53563
  22293767.6564         -0.60153
  20510570.0944  -15502583.55846 -11459976.74661
 93  6 11 23 20 29.9920000  0  5G20G16G24G 3G12
  18818458.0244  -19699820.30847 -15166293.10763
  19508291.2664  -15982502.30847 -11719723.83762
  19168680.3134  -23355775.60947 -18003632.96163
  22277907.4384     -83331.21542
  20524374.797   -15430033.574 6 -11403444.38421
 93  6 11 23 20 59.9920000  0  5G20G16G24G 3G12
  18804026.250   -19775655.787 7 -15225385.68523
  19493374.250   -16060909.608 7 -11780820.40022
  19176704.6254  -23313605.02347 -17970772.76363
  22262056.844     -166614.529 3
  20538237.094   -15357206.956 6 -11346696.46521
 93  6 11 23 21 29.9920000  0  5G20G16G24G 3G12
  18789681.9144  -19851036.67047 -15284124.01363
  19478535.195   -16138878.013 7 -11841574.95322
  19184774.0704  -23271201.69247 -17937731.22063
  22246222.9774    -249844.46044        -0.02471
  20552148.1414  -15284100.54446 -11289730.50161
 93  6 11 23 21 59.9920000  0  5G20G16G24G 3G12
  18775426.1724  -19925955.69347 -15342502.46463
  19463780.563   -16216393.480 7 -11901976.57422
  19192885.367   -23228576.777 7 -17904517.02023
  22230382.484     -333016.750 3    -64809.48821
  20566113.5314  -15210712.72146 -11232545.27961
 93  6 11 23 22 29.9920000  0  5G20G16G24G 3G12
  18761256.0784  -20000411.83947 -15400520.22663
  19449125.203   -16293450.194 7 -11962020.72422
  19201038.8594  -23185724.85447 -17871125.92563
  22214569.5004    -416133.15642   -129575.40361
  20580133.289   -15137047.994 6 -11175144.28121
 93  6 11 23 22 59.9920000  0  5G20G16G24G 3G12
  18747177.0704  -20074403.92747 -15458176.38663
  19434545.899   -16370047.503 7 -12021706.89122
  19209238.8134  -23142639.68747 -17837553.08563
  22198775.4454    -499195.78244   -194299.41861
  20594201.695   -15063110.791 6 -11117530.95721
 93  6 11 23 23 29.9920000  0  5G20G16G24G 3G12
  18733185.336   -20147934.336 7 -15515472.80523
  19420054.555   -16446191.424 7 -12081039.77822
  19217481.3834  -23099332.73948 -17803807.42163
  22182973.8914    -582209.40043   -258985.26261
  20608320.758   -14988908.770 6 -11059711.29321
 93  6 11 23 23 59.9920000  0  5G20G16G24G 3G12
  18719279.5244  -20220999.62147 -15572406.77363
  19405655.609   -16521880.315 7 -12140018.09922
  19225761.3284  -23055809.16447 -17769892.95563
  22167182.188     -665173.015 3   -323632.13921
  20622490.7504  -14914443.86446 -11001686.77661
 93  6 11 23 24 29.9920000  0  5G20G16G24G 3G12
  18705466.1884  -20293598.07047 -15628976.98563
  19391335.422   -16597125.068 7 -12198650.32322
  19234084.7664  -23012066.87647 -17735808.06663
  22151407.688     -748088.282 4   -388241.33921
  20636708.617   -14839719.988 6 -10943460.46621
 93  6 11 23 24 59.9920000  0  5G20G16G24G 3G12
  18691741.5474  -20365724.35847 -15685179.27663
  19377097.688   -16671929.226 7 -12256939.24422
  19242451.664   -22968103.979 7 -17701551.29123
  22135637.3364    -830952.55943   -452810.83261
  20650981.1414  -14764737.51946 -10885032.65761
 93  6 11 23 25 29.9920000  0  5G20G16G24G 3G12
  18678104.2344  -20437381.49547 -15741015.99963
  19362946.2034  -16746292.43747 -12314884.56162
  19250856.0314  -22923936.75748 -17667135.30163
  22119872.531     -913771.335 4   -517344.83521
  20665298.3834  -14689504.56046 -10826409.65661
 93  6 11 23 25 59.9920000  0  5G20G16G24G 3G12
  18664557.2194  -20508575.59647 -15796491.90763
  19348883.461   -16820203.755 7 -12372477.76522
  19259299.0554  -22879571.18447 -17632564.72363
  22104125.641     -996553.613 4   -581850.42721
  20679654.9454  -14614032.71546 -10767600.50461
 93  6 11 23 26 29.9920000  0  5G20G16G24G 3G12
  18651099.3524  -20579297.27947 -15851599.70463
  19334912.500   -16893637.035 7 -12429698.45722
  19267781.4144  -22834993.90747 -17597829.20063
  22088383.344    -1079293.171 4   -646322.69021
  20694067.3204  -14538318.60546 -10708602.57461
 93  6 11 23 26 59.9920000  0  5G20G16G24G 3G12
  18637727.4384  -20649569.12747 -15906356.98263
  19321019.930   -16966615.366 7 -12486564.65322
  19276299.883   -22790224.780 7 -17562944.19023
  22072641.9384   -1162015.34244   -710781.44461
  20708514.602   -14462390.056 6 -10649437.57321
 93  6 11 23 27 29.9920000  0  5G20G16G24G 3G12
  18624452.7664  -20719329.54747 -15960715.74463
  19307231.899   -17039070.750 7 -12543023.35522
  19284866.5554  -22745204.20747 -17527863.24663
  22056909.977    -1244660.903 4   -775180.50121
  20723015.9844  -14386190.92046 -10590061.70561
 93  6 11 23 27 59.9920000  0  5G20G16G24G 3G12
  18611274.8754  -20788569.08747 -16014668.62563
  19293546.406   -17111001.545 7 -12599073.29522
  19293487.4304  -22699909.13547 -17492568.40163
  22041206.1644   -1327223.11245   -839514.60561
  20737570.992   -14309717.018 6 -10530471.73421
 93  6 11 23 28 29.9920000  0  5G20G16G24G 3G12
  18598190.2584  -20857328.33147 -16068247.24363
  19279946.922   -17182473.699 7 -12654765.84622
  19302152.055   -22654374.973 7 -17457087.25323
  22025496.1254   -1409745.30745   -903817.55261
  20752164.914   -14233014.507 6 -10470703.63921
 93  6 11 23 28 59.9920000  0  5G20G16G24G 3G12
  18585197.4774  -20925616.60647 -16121458.87763
  19266424.922   -17253511.647 7 -12710120.05422
  19310862.4924  -22608610.38247 -17421426.55863
  22009803.383    -1492239.462 5   -968098.62121
  20766797.5704  -14156098.14446 -10410768.89961
 93  6 11 23 29 29.9920000  0  5G20G16G24G 3G12
  18572300.2344  -20993397.41147 -16174275.06663
  19253001.078   -17324060.882 7 -12765093.45122
  19319616.1724  -22562597.42947 -17385572.32263
  21994112.453    -1574672.236 5  -1032331.85721
  20781483.6884  -14078936.79046 -10350643.25061
 93  6 11 23 29 59.9920000  0  5G20G16G24G 3G12
  18559494.8674  -21060679.42347 -16226702.60463
  19239669.6494  -17394129.09447 -12819692.01462
  19328415.2344  -22516363.40347 -17349545.82163
  21978434.6024   -1657054.07945  -1096525.40761
  20796211.906   -14001544.392 6 -10290337.56921
 93  6 11 23 30 29.9920000  0  5G20G16G24G 3G12
  18546785.8754  -21127460.10547 -16278739.48963
  19226430.156   -17463703.991 7 -12873906.18222
  19337251.7504  -22469931.10047 -17313364.81963
  21962767.7274   -1739385.55845  -1160679.75561
  20810978.8284  -13923923.49046 -10229853.85561
